<?xml version="1.0" encoding="UTF-8" standalone="no" ?>
<gpx xmlns="http://www.topografix.com/GPX/1/1" xmlns:xsi="http://www.w3.org/2001/XMLSchema-instance" xsi:schemaLocation="http://www.topografix.com/GPX/1/1 http://www.topografix.com/GPX/1/1/gpx.xsd" version="1.1" creator="VisuGPX - https://www.visugpx.com">
  <metadata>
    <name> brasque enfant</name>
    <desc><![CDATA[rando pedestre]]></desc>
  </metadata>
  <trk>
    <name><![CDATA[Tracé actuel: 02 MARS 2014 08:32]]></name>
    <trkseg>
      <trkpt lat="43.96689" lon="7.26859">
        <ele>691.81</ele>
        <time>2014-03-02T07:32:58Z</time>
      </trkpt>
      <trkpt lat="43.96683" lon="7.26849">
        <ele>697.09</ele>
        <time>2014-03-02T07:33:28Z</time>
      </trkpt>
      <trkpt lat="43.96675" lon="7.26841">
        <ele>697.57</ele>
        <time>2014-03-02T07:33:40Z</time>
      </trkpt>
      <trkpt lat="43.96678" lon="7.26831">
        <ele>705.75</ele>
        <time>2014-03-02T07:33:47Z</time>
      </trkpt>
      <trkpt lat="43.9668" lon="7.2683">
        <ele>706.71</ele>
        <time>2014-03-02T07:33:49Z</time>
      </trkpt>
      <trkpt lat="43.96681" lon="7.26826">
        <ele>708.15</ele>
        <time>2014-03-02T07:33:52Z</time>
      </trkpt>
      <trkpt lat="43.96683" lon="7.26817">
        <ele>710.55</ele>
        <time>2014-03-02T07:33:57Z</time>
      </trkpt>
      <trkpt lat="43.96685" lon="7.2681">
        <ele>711.99</ele>
        <time>2014-03-02T07:34:01Z</time>
      </trkpt>
      <trkpt lat="43.96693" lon="7.26799">
        <ele>716.32</ele>
        <time>2014-03-02T07:34:12Z</time>
      </trkpt>
      <trkpt lat="43.96694" lon="7.26795">
        <ele>716.8</ele>
        <time>2014-03-02T07:34:15Z</time>
      </trkpt>
      <trkpt lat="43.96697" lon="7.26789">
        <ele>717.28</ele>
        <time>2014-03-02T07:34:19Z</time>
      </trkpt>
      <trkpt lat="43.96699" lon="7.26785">
        <ele>718.24</ele>
        <time>2014-03-02T07:34:22Z</time>
      </trkpt>
      <trkpt lat="43.96702" lon="7.2678">
        <ele>720.65</ele>
        <time>2014-03-02T07:34:26Z</time>
      </trkpt>
      <trkpt lat="43.96711" lon="7.2677">
        <ele>726.41</ele>
        <time>2014-03-02T07:34:37Z</time>
      </trkpt>
      <trkpt lat="43.96716" lon="7.26767">
        <ele>728.82</ele>
        <time>2014-03-02T07:34:42Z</time>
      </trkpt>
      <trkpt lat="43.96719" lon="7.26764">
        <ele>731.7</ele>
        <time>2014-03-02T07:34:47Z</time>
      </trkpt>
      <trkpt lat="43.96728" lon="7.26757">
        <ele>736.99</ele>
        <time>2014-03-02T07:34:58Z</time>
      </trkpt>
      <trkpt lat="43.96741" lon="7.26755">
        <ele>741.31</ele>
        <time>2014-03-02T07:35:11Z</time>
      </trkpt>
      <trkpt lat="43.96743" lon="7.26752">
        <ele>742.28</ele>
        <time>2014-03-02T07:35:14Z</time>
      </trkpt>
      <trkpt lat="43.96753" lon="7.26746">
        <ele>744.68</ele>
        <time>2014-03-02T07:35:26Z</time>
      </trkpt>
      <trkpt lat="43.96754" lon="7.26745">
        <ele>745.16</ele>
        <time>2014-03-02T07:35:28Z</time>
      </trkpt>
      <trkpt lat="43.96757" lon="7.26734">
        <ele>747.08</ele>
        <time>2014-03-02T07:35:35Z</time>
      </trkpt>
      <trkpt lat="43.96761" lon="7.26719">
        <ele>748.04</ele>
        <time>2014-03-02T07:35:44Z</time>
      </trkpt>
      <trkpt lat="43.96762" lon="7.26715">
        <ele>748.52</ele>
        <time>2014-03-02T07:35:47Z</time>
      </trkpt>
      <trkpt lat="43.96764" lon="7.26714">
        <ele>748.52</ele>
        <time>2014-03-02T07:35:49Z</time>
      </trkpt>
      <trkpt lat="43.96768" lon="7.26704">
        <ele>750.45</ele>
        <time>2014-03-02T07:35:56Z</time>
      </trkpt>
      <trkpt lat="43.96772" lon="7.26698">
        <ele>752.85</ele>
        <time>2014-03-02T07:36:11Z</time>
      </trkpt>
      <trkpt lat="43.96775" lon="7.267">
        <ele>754.77</ele>
        <time>2014-03-02T07:36:31Z</time>
      </trkpt>
      <trkpt lat="43.96778" lon="7.26697">
        <ele>757.18</ele>
        <time>2014-03-02T07:36:44Z</time>
      </trkpt>
      <trkpt lat="43.96783" lon="7.26698">
        <ele>757.66</ele>
        <time>2014-03-02T07:36:54Z</time>
      </trkpt>
      <trkpt lat="43.96792" lon="7.26699">
        <ele>758.14</ele>
        <time>2014-03-02T07:37:03Z</time>
      </trkpt>
      <trkpt lat="43.96795" lon="7.267">
        <ele>758.14</ele>
        <time>2014-03-02T07:37:06Z</time>
      </trkpt>
      <trkpt lat="43.96799" lon="7.26701">
        <ele>759.1</ele>
        <time>2014-03-02T07:37:10Z</time>
      </trkpt>
      <trkpt lat="43.96804" lon="7.26703">
        <ele>758.62</ele>
        <time>2014-03-02T07:37:15Z</time>
      </trkpt>
      <trkpt lat="43.96812" lon="7.26704">
        <ele>760.06</ele>
        <time>2014-03-02T07:37:22Z</time>
      </trkpt>
      <trkpt lat="43.96815" lon="7.26701">
        <ele>759.58</ele>
        <time>2014-03-02T07:37:26Z</time>
      </trkpt>
      <trkpt lat="43.96827" lon="7.26699">
        <ele>760.54</ele>
        <time>2014-03-02T07:37:39Z</time>
      </trkpt>
      <trkpt lat="43.96833" lon="7.26699">
        <ele>760.54</ele>
        <time>2014-03-02T07:37:45Z</time>
      </trkpt>
      <trkpt lat="43.96837" lon="7.267">
        <ele>760.06</ele>
        <time>2014-03-02T07:37:49Z</time>
      </trkpt>
      <trkpt lat="43.9685" lon="7.267">
        <ele>761.98</ele>
        <time>2014-03-02T07:38:02Z</time>
      </trkpt>
      <trkpt lat="43.96866" lon="7.26694">
        <ele>765.35</ele>
        <time>2014-03-02T07:38:17Z</time>
      </trkpt>
      <trkpt lat="43.96869" lon="7.2669">
        <ele>767.27</ele>
        <time>2014-03-02T07:38:30Z</time>
      </trkpt>
      <trkpt lat="43.96872" lon="7.26688">
        <ele>769.19</ele>
        <time>2014-03-02T07:38:42Z</time>
      </trkpt>
      <trkpt lat="43.96871" lon="7.26686">
        <ele>770.63</ele>
        <time>2014-03-02T07:38:59Z</time>
      </trkpt>
      <trkpt lat="43.96869" lon="7.26687">
        <ele>772.56</ele>
        <time>2014-03-02T07:39:26Z</time>
      </trkpt>
      <trkpt lat="43.9687" lon="7.26687">
        <ele>773.04</ele>
        <time>2014-03-02T07:39:39Z</time>
      </trkpt>
      <trkpt lat="43.96871" lon="7.26688">
        <ele>773.04</ele>
        <time>2014-03-02T07:39:41Z</time>
      </trkpt>
      <trkpt lat="43.96873" lon="7.2669">
        <ele>773.04</ele>
        <time>2014-03-02T07:39:43Z</time>
      </trkpt>
      <trkpt lat="43.96875" lon="7.26696">
        <ele>774</ele>
        <time>2014-03-02T07:39:47Z</time>
      </trkpt>
      <trkpt lat="43.96876" lon="7.267">
        <ele>774</ele>
        <time>2014-03-02T07:39:50Z</time>
      </trkpt>
      <trkpt lat="43.9688" lon="7.26715">
        <ele>774</ele>
        <time>2014-03-02T07:40:01Z</time>
      </trkpt>
      <trkpt lat="43.9688" lon="7.26716">
        <ele>774</ele>
        <time>2014-03-02T07:40:12Z</time>
      </trkpt>
      <trkpt lat="43.96881" lon="7.26719">
        <ele>774.48</ele>
        <time>2014-03-02T07:40:14Z</time>
      </trkpt>
      <trkpt lat="43.96886" lon="7.26731">
        <ele>774.96</ele>
        <time>2014-03-02T07:40:23Z</time>
      </trkpt>
      <trkpt lat="43.96887" lon="7.26734">
        <ele>774.96</ele>
        <time>2014-03-02T07:40:25Z</time>
      </trkpt>
      <trkpt lat="43.9689" lon="7.26737">
        <ele>774.48</ele>
        <time>2014-03-02T07:40:28Z</time>
      </trkpt>
      <trkpt lat="43.96892" lon="7.2674">
        <ele>774.48</ele>
        <time>2014-03-02T07:40:30Z</time>
      </trkpt>
      <trkpt lat="43.96899" lon="7.26753">
        <ele>775.44</ele>
        <time>2014-03-02T07:40:41Z</time>
      </trkpt>
      <trkpt lat="43.96902" lon="7.26758">
        <ele>776.4</ele>
        <time>2014-03-02T07:40:46Z</time>
      </trkpt>
      <trkpt lat="43.96911" lon="7.26769">
        <ele>778.81</ele>
        <time>2014-03-02T07:40:58Z</time>
      </trkpt>
      <trkpt lat="43.96915" lon="7.26777">
        <ele>780.73</ele>
        <time>2014-03-02T07:41:07Z</time>
      </trkpt>
      <trkpt lat="43.96918" lon="7.26782">
        <ele>781.21</ele>
        <time>2014-03-02T07:41:10Z</time>
      </trkpt>
      <trkpt lat="43.96921" lon="7.26787">
        <ele>782.17</ele>
        <time>2014-03-02T07:41:13Z</time>
      </trkpt>
      <trkpt lat="43.96927" lon="7.26799">
        <ele>784.57</ele>
        <time>2014-03-02T07:41:25Z</time>
      </trkpt>
      <trkpt lat="43.96939" lon="7.26817">
        <ele>782.65</ele>
        <time>2014-03-02T07:41:41Z</time>
      </trkpt>
      <trkpt lat="43.96945" lon="7.2681">
        <ele>781.69</ele>
        <time>2014-03-02T07:41:53Z</time>
      </trkpt>
      <trkpt lat="43.96951" lon="7.26807">
        <ele>780.25</ele>
        <time>2014-03-02T07:42:03Z</time>
      </trkpt>
      <trkpt lat="43.96961" lon="7.26806">
        <ele>780.73</ele>
        <time>2014-03-02T07:42:14Z</time>
      </trkpt>
      <trkpt lat="43.96975" lon="7.26808">
        <ele>780.25</ele>
        <time>2014-03-02T07:42:26Z</time>
      </trkpt>
      <trkpt lat="43.96987" lon="7.26807">
        <ele>780.73</ele>
        <time>2014-03-02T07:42:36Z</time>
      </trkpt>
      <trkpt lat="43.96992" lon="7.26802">
        <ele>780.73</ele>
        <time>2014-03-02T07:42:44Z</time>
      </trkpt>
      <trkpt lat="43.96995" lon="7.26799">
        <ele>780.73</ele>
        <time>2014-03-02T07:42:48Z</time>
      </trkpt>
      <trkpt lat="43.97009" lon="7.26806">
        <ele>782.65</ele>
        <time>2014-03-02T07:43:02Z</time>
      </trkpt>
      <trkpt lat="43.97024" lon="7.26807">
        <ele>784.57</ele>
        <time>2014-03-02T07:43:16Z</time>
      </trkpt>
      <trkpt lat="43.97028" lon="7.26807">
        <ele>784.57</ele>
        <time>2014-03-02T07:43:21Z</time>
      </trkpt>
      <trkpt lat="43.97043" lon="7.26806">
        <ele>785.53</ele>
        <time>2014-03-02T07:43:35Z</time>
      </trkpt>
      <trkpt lat="43.97056" lon="7.26807">
        <ele>788.9</ele>
        <time>2014-03-02T07:43:48Z</time>
      </trkpt>
      <trkpt lat="43.97066" lon="7.26814">
        <ele>787.94</ele>
        <time>2014-03-02T07:43:59Z</time>
      </trkpt>
      <trkpt lat="43.97073" lon="7.26821">
        <ele>787.46</ele>
        <time>2014-03-02T07:44:06Z</time>
      </trkpt>
      <trkpt lat="43.97083" lon="7.26833">
        <ele>785.05</ele>
        <time>2014-03-02T07:44:18Z</time>
      </trkpt>
      <trkpt lat="43.97088" lon="7.26833">
        <ele>785.05</ele>
        <time>2014-03-02T07:44:22Z</time>
      </trkpt>
      <trkpt lat="43.97095" lon="7.26835">
        <ele>784.09</ele>
        <time>2014-03-02T07:44:29Z</time>
      </trkpt>
      <trkpt lat="43.97097" lon="7.26836">
        <ele>783.61</ele>
        <time>2014-03-02T07:44:31Z</time>
      </trkpt>
      <trkpt lat="43.97115" lon="7.26844">
        <ele>783.13</ele>
        <time>2014-03-02T07:44:46Z</time>
      </trkpt>
      <trkpt lat="43.97127" lon="7.2685">
        <ele>784.09</ele>
        <time>2014-03-02T07:44:58Z</time>
      </trkpt>
      <trkpt lat="43.9714" lon="7.26852">
        <ele>785.53</ele>
        <time>2014-03-02T07:45:09Z</time>
      </trkpt>
      <trkpt lat="43.97148" lon="7.2685">
        <ele>786.5</ele>
        <time>2014-03-02T07:45:17Z</time>
      </trkpt>
      <trkpt lat="43.97159" lon="7.26851">
        <ele>789.38</ele>
        <time>2014-03-02T07:45:27Z</time>
      </trkpt>
      <trkpt lat="43.97168" lon="7.26856">
        <ele>789.86</ele>
        <time>2014-03-02T07:45:36Z</time>
      </trkpt>
      <trkpt lat="43.97173" lon="7.26873">
        <ele>789.38</ele>
        <time>2014-03-02T07:45:46Z</time>
      </trkpt>
      <trkpt lat="43.97174" lon="7.26881">
        <ele>789.86</ele>
        <time>2014-03-02T07:45:50Z</time>
      </trkpt>
      <trkpt lat="43.97181" lon="7.26885">
        <ele>790.34</ele>
        <time>2014-03-02T07:46:00Z</time>
      </trkpt>
      <trkpt lat="43.97182" lon="7.26884">
        <ele>790.34</ele>
        <time>2014-03-02T07:46:02Z</time>
      </trkpt>
      <trkpt lat="43.97187" lon="7.2688">
        <ele>789.86</ele>
        <time>2014-03-02T07:46:08Z</time>
      </trkpt>
      <trkpt lat="43.97198" lon="7.26883">
        <ele>787.46</ele>
        <time>2014-03-02T07:46:21Z</time>
      </trkpt>
      <trkpt lat="43.9721" lon="7.26902">
        <ele>784.09</ele>
        <time>2014-03-02T07:46:35Z</time>
      </trkpt>
      <trkpt lat="43.97213" lon="7.2691">
        <ele>784.09</ele>
        <time>2014-03-02T07:46:41Z</time>
      </trkpt>
      <trkpt lat="43.97221" lon="7.26919">
        <ele>784.57</ele>
        <time>2014-03-02T07:46:49Z</time>
      </trkpt>
      <trkpt lat="43.97223" lon="7.26921">
        <ele>784.57</ele>
        <time>2014-03-02T07:46:51Z</time>
      </trkpt>
      <trkpt lat="43.97228" lon="7.26928">
        <ele>785.05</ele>
        <time>2014-03-02T07:47:01Z</time>
      </trkpt>
      <trkpt lat="43.97231" lon="7.26935">
        <ele>784.09</ele>
        <time>2014-03-02T07:47:05Z</time>
      </trkpt>
      <trkpt lat="43.97234" lon="7.26952">
        <ele>778.32</ele>
        <time>2014-03-02T07:47:19Z</time>
      </trkpt>
      <trkpt lat="43.97238" lon="7.26962">
        <ele>775.44</ele>
        <time>2014-03-02T07:47:27Z</time>
      </trkpt>
      <trkpt lat="43.97238" lon="7.26968">
        <ele>774.48</ele>
        <time>2014-03-02T07:47:31Z</time>
      </trkpt>
      <trkpt lat="43.97249" lon="7.26981">
        <ele>776.88</ele>
        <time>2014-03-02T07:47:45Z</time>
      </trkpt>
      <trkpt lat="43.97257" lon="7.26978">
        <ele>777.36</ele>
        <time>2014-03-02T07:47:54Z</time>
      </trkpt>
      <trkpt lat="43.9726" lon="7.26969">
        <ele>779.77</ele>
        <time>2014-03-02T07:48:07Z</time>
      </trkpt>
      <trkpt lat="43.97263" lon="7.26954">
        <ele>784.57</ele>
        <time>2014-03-02T07:48:15Z</time>
      </trkpt>
      <trkpt lat="43.97266" lon="7.26943">
        <ele>785.53</ele>
        <time>2014-03-02T07:48:23Z</time>
      </trkpt>
      <trkpt lat="43.97272" lon="7.26917">
        <ele>788.9</ele>
        <time>2014-03-02T07:48:38Z</time>
      </trkpt>
      <trkpt lat="43.97274" lon="7.26915">
        <ele>788.42</ele>
        <time>2014-03-02T07:48:40Z</time>
      </trkpt>
      <trkpt lat="43.97278" lon="7.2691">
        <ele>788.9</ele>
        <time>2014-03-02T07:48:45Z</time>
      </trkpt>
      <trkpt lat="43.97282" lon="7.26899">
        <ele>793.71</ele>
        <time>2014-03-02T07:48:55Z</time>
      </trkpt>
      <trkpt lat="43.97287" lon="7.26897">
        <ele>792.74</ele>
        <time>2014-03-02T07:49:00Z</time>
      </trkpt>
      <trkpt lat="43.97288" lon="7.26895">
        <ele>792.26</ele>
        <time>2014-03-02T07:49:02Z</time>
      </trkpt>
      <trkpt lat="43.97292" lon="7.26887">
        <ele>792.26</ele>
        <time>2014-03-02T07:49:15Z</time>
      </trkpt>
      <trkpt lat="43.97291" lon="7.26887">
        <ele>793.71</ele>
        <time>2014-03-02T07:49:32Z</time>
      </trkpt>
      <trkpt lat="43.97292" lon="7.26884">
        <ele>797.07</ele>
        <time>2014-03-02T07:49:54Z</time>
      </trkpt>
      <trkpt lat="43.97294" lon="7.26885">
        <ele>797.07</ele>
        <time>2014-03-02T07:50:07Z</time>
      </trkpt>
      <trkpt lat="43.97302" lon="7.26887">
        <ele>798.03</ele>
        <time>2014-03-02T07:50:20Z</time>
      </trkpt>
      <trkpt lat="43.97302" lon="7.26888">
        <ele>798.99</ele>
        <time>2014-03-02T07:50:42Z</time>
      </trkpt>
      <trkpt lat="43.97302" lon="7.26887">
        <ele>799.95</ele>
        <time>2014-03-02T07:51:09Z</time>
      </trkpt>
      <trkpt lat="43.97301" lon="7.26886">
        <ele>800.92</ele>
        <time>2014-03-02T07:51:42Z</time>
      </trkpt>
      <trkpt lat="43.973" lon="7.26885">
        <ele>804.28</ele>
        <time>2014-03-02T07:52:15Z</time>
      </trkpt>
      <trkpt lat="43.97299" lon="7.26886">
        <ele>806.2</ele>
        <time>2014-03-02T07:52:53Z</time>
      </trkpt>
      <trkpt lat="43.97305" lon="7.26887">
        <ele>806.2</ele>
        <time>2014-03-02T07:53:21Z</time>
      </trkpt>
      <trkpt lat="43.97309" lon="7.26887">
        <ele>806.68</ele>
        <time>2014-03-02T07:53:35Z</time>
      </trkpt>
      <trkpt lat="43.97309" lon="7.26887">
        <ele>807.16</ele>
        <time>2014-03-02T07:53:38Z</time>
      </trkpt>
      <trkpt lat="43.97313" lon="7.2689">
        <ele>808.13</ele>
        <time>2014-03-02T07:53:42Z</time>
      </trkpt>
      <trkpt lat="43.97319" lon="7.26893">
        <ele>811.49</ele>
        <time>2014-03-02T07:53:49Z</time>
      </trkpt>
      <trkpt lat="43.97333" lon="7.26904">
        <ele>815.82</ele>
        <time>2014-03-02T07:54:03Z</time>
      </trkpt>
      <trkpt lat="43.97346" lon="7.26912">
        <ele>817.74</ele>
        <time>2014-03-02T07:54:16Z</time>
      </trkpt>
      <trkpt lat="43.97355" lon="7.26913">
        <ele>819.18</ele>
        <time>2014-03-02T07:54:24Z</time>
      </trkpt>
      <trkpt lat="43.97358" lon="7.26913">
        <ele>819.18</ele>
        <time>2014-03-02T07:54:26Z</time>
      </trkpt>
      <trkpt lat="43.97366" lon="7.26911">
        <ele>819.18</ele>
        <time>2014-03-02T07:54:33Z</time>
      </trkpt>
      <trkpt lat="43.97372" lon="7.26909">
        <ele>819.66</ele>
        <time>2014-03-02T07:54:40Z</time>
      </trkpt>
      <trkpt lat="43.97374" lon="7.26909">
        <ele>819.66</ele>
        <time>2014-03-02T07:54:42Z</time>
      </trkpt>
      <trkpt lat="43.97377" lon="7.26908">
        <ele>818.7</ele>
        <time>2014-03-02T07:54:45Z</time>
      </trkpt>
      <trkpt lat="43.97382" lon="7.2691">
        <ele>816.78</ele>
        <time>2014-03-02T07:54:48Z</time>
      </trkpt>
      <trkpt lat="43.97393" lon="7.26914">
        <ele>812.45</ele>
        <time>2014-03-02T07:54:56Z</time>
      </trkpt>
      <trkpt lat="43.97407" lon="7.2691">
        <ele>807.16</ele>
        <time>2014-03-02T07:55:09Z</time>
      </trkpt>
      <trkpt lat="43.97409" lon="7.26902">
        <ele>807.16</ele>
        <time>2014-03-02T07:55:22Z</time>
      </trkpt>
      <trkpt lat="43.97407" lon="7.26901">
        <ele>807.64</ele>
        <time>2014-03-02T07:55:24Z</time>
      </trkpt>
      <trkpt lat="43.97399" lon="7.269">
        <ele>808.61</ele>
        <time>2014-03-02T07:55:32Z</time>
      </trkpt>
      <trkpt lat="43.97397" lon="7.26898">
        <ele>808.61</ele>
        <time>2014-03-02T07:55:34Z</time>
      </trkpt>
      <trkpt lat="43.97386" lon="7.26892">
        <ele>813.41</ele>
        <time>2014-03-02T07:55:45Z</time>
      </trkpt>
      <trkpt lat="43.9738" lon="7.26871">
        <ele>816.3</ele>
        <time>2014-03-02T07:55:59Z</time>
      </trkpt>
      <trkpt lat="43.97382" lon="7.26845">
        <ele>817.26</ele>
        <time>2014-03-02T07:56:13Z</time>
      </trkpt>
      <trkpt lat="43.97384" lon="7.2684">
        <ele>816.78</ele>
        <time>2014-03-02T07:56:17Z</time>
      </trkpt>
      <trkpt lat="43.97382" lon="7.26831">
        <ele>817.26</ele>
        <time>2014-03-02T07:56:25Z</time>
      </trkpt>
      <trkpt lat="43.97382" lon="7.26828">
        <ele>817.74</ele>
        <time>2014-03-02T07:56:27Z</time>
      </trkpt>
      <trkpt lat="43.97381" lon="7.26823">
        <ele>819.18</ele>
        <time>2014-03-02T07:56:30Z</time>
      </trkpt>
      <trkpt lat="43.97374" lon="7.26813">
        <ele>819.18</ele>
        <time>2014-03-02T07:56:38Z</time>
      </trkpt>
      <trkpt lat="43.9737" lon="7.26804">
        <ele>818.22</ele>
        <time>2014-03-02T07:56:46Z</time>
      </trkpt>
      <trkpt lat="43.97371" lon="7.26799">
        <ele>817.26</ele>
        <time>2014-03-02T07:56:49Z</time>
      </trkpt>
      <trkpt lat="43.97374" lon="7.26783">
        <ele>817.26</ele>
        <time>2014-03-02T07:57:02Z</time>
      </trkpt>
      <trkpt lat="43.97373" lon="7.26769">
        <ele>819.66</ele>
        <time>2014-03-02T07:57:15Z</time>
      </trkpt>
      <trkpt lat="43.97373" lon="7.26767">
        <ele>819.66</ele>
        <time>2014-03-02T07:57:18Z</time>
      </trkpt>
      <trkpt lat="43.97369" lon="7.26761">
        <ele>820.62</ele>
        <time>2014-03-02T07:57:22Z</time>
      </trkpt>
      <trkpt lat="43.97364" lon="7.26761">
        <ele>821.58</ele>
        <time>2014-03-02T07:57:26Z</time>
      </trkpt>
      <trkpt lat="43.97358" lon="7.26759">
        <ele>823.51</ele>
        <time>2014-03-02T07:57:31Z</time>
      </trkpt>
      <trkpt lat="43.97355" lon="7.26758">
        <ele>823.51</ele>
        <time>2014-03-02T07:57:34Z</time>
      </trkpt>
      <trkpt lat="43.9735" lon="7.26757">
        <ele>823.99</ele>
        <time>2014-03-02T07:57:38Z</time>
      </trkpt>
      <trkpt lat="43.97343" lon="7.26752">
        <ele>824.47</ele>
        <time>2014-03-02T07:57:45Z</time>
      </trkpt>
      <trkpt lat="43.97342" lon="7.2675">
        <ele>824.95</ele>
        <time>2014-03-02T07:57:47Z</time>
      </trkpt>
      <trkpt lat="43.97336" lon="7.26744">
        <ele>825.91</ele>
        <time>2014-03-02T07:57:54Z</time>
      </trkpt>
      <trkpt lat="43.97337" lon="7.26729">
        <ele>824.95</ele>
        <time>2014-03-02T07:58:05Z</time>
      </trkpt>
      <trkpt lat="43.97329" lon="7.2672">
        <ele>828.79</ele>
        <time>2014-03-02T07:58:16Z</time>
      </trkpt>
      <trkpt lat="43.97322" lon="7.26717">
        <ele>831.2</ele>
        <time>2014-03-02T07:58:23Z</time>
      </trkpt>
      <trkpt lat="43.97319" lon="7.26715">
        <ele>832.16</ele>
        <time>2014-03-02T07:58:26Z</time>
      </trkpt>
      <trkpt lat="43.97318" lon="7.26714">
        <ele>832.16</ele>
        <time>2014-03-02T07:58:28Z</time>
      </trkpt>
      <trkpt lat="43.97312" lon="7.2671">
        <ele>833.12</ele>
        <time>2014-03-02T07:58:35Z</time>
      </trkpt>
      <trkpt lat="43.9731" lon="7.26709">
        <ele>833.6</ele>
        <time>2014-03-02T07:58:37Z</time>
      </trkpt>
      <trkpt lat="43.97308" lon="7.26706">
        <ele>834.56</ele>
        <time>2014-03-02T07:58:40Z</time>
      </trkpt>
      <trkpt lat="43.97305" lon="7.26704">
        <ele>834.56</ele>
        <time>2014-03-02T07:58:45Z</time>
      </trkpt>
      <trkpt lat="43.97304" lon="7.26701">
        <ele>834.56</ele>
        <time>2014-03-02T07:58:47Z</time>
      </trkpt>
      <trkpt lat="43.973" lon="7.26692">
        <ele>836.96</ele>
        <time>2014-03-02T07:58:54Z</time>
      </trkpt>
      <trkpt lat="43.97298" lon="7.26676">
        <ele>836.96</ele>
        <time>2014-03-02T07:59:07Z</time>
      </trkpt>
      <trkpt lat="43.97298" lon="7.26675">
        <ele>836.96</ele>
        <time>2014-03-02T07:59:08Z</time>
      </trkpt>
      <trkpt lat="43.97299" lon="7.2666">
        <ele>836.48</ele>
        <time>2014-03-02T07:59:20Z</time>
      </trkpt>
      <trkpt lat="43.973" lon="7.26659">
        <ele>836.48</ele>
        <time>2014-03-02T07:59:21Z</time>
      </trkpt>
      <trkpt lat="43.97303" lon="7.26645">
        <ele>837.93</ele>
        <time>2014-03-02T07:59:33Z</time>
      </trkpt>
      <trkpt lat="43.97299" lon="7.26638">
        <ele>838.41</ele>
        <time>2014-03-02T07:59:40Z</time>
      </trkpt>
      <trkpt lat="43.97296" lon="7.26635">
        <ele>838.41</ele>
        <time>2014-03-02T07:59:45Z</time>
      </trkpt>
      <trkpt lat="43.97291" lon="7.26634">
        <ele>838.41</ele>
        <time>2014-03-02T07:59:50Z</time>
      </trkpt>
      <trkpt lat="43.97288" lon="7.26634">
        <ele>837.45</ele>
        <time>2014-03-02T07:59:54Z</time>
      </trkpt>
      <trkpt lat="43.97285" lon="7.26631">
        <ele>837.45</ele>
        <time>2014-03-02T07:59:58Z</time>
      </trkpt>
      <trkpt lat="43.97282" lon="7.2663">
        <ele>838.41</ele>
        <time>2014-03-02T08:00:02Z</time>
      </trkpt>
      <trkpt lat="43.97272" lon="7.26623">
        <ele>843.21</ele>
        <time>2014-03-02T08:00:12Z</time>
      </trkpt>
      <trkpt lat="43.97268" lon="7.26621">
        <ele>844.18</ele>
        <time>2014-03-02T08:00:16Z</time>
      </trkpt>
      <trkpt lat="43.97266" lon="7.26619">
        <ele>844.66</ele>
        <time>2014-03-02T08:00:18Z</time>
      </trkpt>
      <trkpt lat="43.97264" lon="7.26619">
        <ele>845.14</ele>
        <time>2014-03-02T08:00:20Z</time>
      </trkpt>
      <trkpt lat="43.97265" lon="7.26608">
        <ele>845.62</ele>
        <time>2014-03-02T08:00:33Z</time>
      </trkpt>
      <trkpt lat="43.97265" lon="7.26606">
        <ele>846.1</ele>
        <time>2014-03-02T08:00:44Z</time>
      </trkpt>
      <trkpt lat="43.97265" lon="7.26604">
        <ele>847.06</ele>
        <time>2014-03-02T08:01:18Z</time>
      </trkpt>
      <trkpt lat="43.97265" lon="7.26603">
        <ele>847.54</ele>
        <time>2014-03-02T08:02:00Z</time>
      </trkpt>
      <trkpt lat="43.97265" lon="7.26603">
        <ele>848.02</ele>
        <time>2014-03-02T08:02:35Z</time>
      </trkpt>
      <trkpt lat="43.97265" lon="7.26604">
        <ele>848.98</ele>
        <time>2014-03-02T08:02:51Z</time>
      </trkpt>
      <trkpt lat="43.97265" lon="7.26604">
        <ele>849.46</ele>
        <time>2014-03-02T08:03:14Z</time>
      </trkpt>
      <trkpt lat="43.97264" lon="7.26604">
        <ele>849.46</ele>
        <time>2014-03-02T08:03:41Z</time>
      </trkpt>
      <trkpt lat="43.9727" lon="7.26591">
        <ele>848.5</ele>
        <time>2014-03-02T08:03:55Z</time>
      </trkpt>
      <trkpt lat="43.97274" lon="7.26585">
        <ele>848.02</ele>
        <time>2014-03-02T08:04:01Z</time>
      </trkpt>
      <trkpt lat="43.97275" lon="7.26577">
        <ele>848.5</ele>
        <time>2014-03-02T08:04:07Z</time>
      </trkpt>
      <trkpt lat="43.97275" lon="7.26574">
        <ele>848.5</ele>
        <time>2014-03-02T08:04:10Z</time>
      </trkpt>
      <trkpt lat="43.97277" lon="7.26557">
        <ele>848.5</ele>
        <time>2014-03-02T08:04:25Z</time>
      </trkpt>
      <trkpt lat="43.9728" lon="7.26539">
        <ele>849.94</ele>
        <time>2014-03-02T08:04:39Z</time>
      </trkpt>
      <trkpt lat="43.97283" lon="7.2653">
        <ele>852.35</ele>
        <time>2014-03-02T08:04:48Z</time>
      </trkpt>
      <trkpt lat="43.97288" lon="7.26516">
        <ele>855.71</ele>
        <time>2014-03-02T08:05:02Z</time>
      </trkpt>
      <trkpt lat="43.97288" lon="7.2651">
        <ele>857.15</ele>
        <time>2014-03-02T08:05:07Z</time>
      </trkpt>
      <trkpt lat="43.97287" lon="7.26499">
        <ele>858.59</ele>
        <time>2014-03-02T08:05:15Z</time>
      </trkpt>
      <trkpt lat="43.97286" lon="7.26497">
        <ele>859.56</ele>
        <time>2014-03-02T08:05:17Z</time>
      </trkpt>
      <trkpt lat="43.97279" lon="7.26486">
        <ele>864.84</ele>
        <time>2014-03-02T08:05:30Z</time>
      </trkpt>
      <trkpt lat="43.97275" lon="7.26483">
        <ele>864.84</ele>
        <time>2014-03-02T08:05:35Z</time>
      </trkpt>
      <trkpt lat="43.97269" lon="7.26474">
        <ele>865.8</ele>
        <time>2014-03-02T08:05:45Z</time>
      </trkpt>
      <trkpt lat="43.97264" lon="7.26458">
        <ele>866.29</ele>
        <time>2014-03-02T08:05:58Z</time>
      </trkpt>
      <trkpt lat="43.97264" lon="7.26454">
        <ele>866.77</ele>
        <time>2014-03-02T08:06:00Z</time>
      </trkpt>
      <trkpt lat="43.97264" lon="7.26436">
        <ele>868.21</ele>
        <time>2014-03-02T08:06:13Z</time>
      </trkpt>
      <trkpt lat="43.97274" lon="7.26439">
        <ele>867.73</ele>
        <time>2014-03-02T08:06:26Z</time>
      </trkpt>
      <trkpt lat="43.97279" lon="7.26444">
        <ele>866.77</ele>
        <time>2014-03-02T08:06:31Z</time>
      </trkpt>
      <trkpt lat="43.97286" lon="7.26449">
        <ele>866.29</ele>
        <time>2014-03-02T08:06:38Z</time>
      </trkpt>
      <trkpt lat="43.97292" lon="7.26446">
        <ele>866.77</ele>
        <time>2014-03-02T08:06:44Z</time>
      </trkpt>
      <trkpt lat="43.97299" lon="7.2644">
        <ele>867.25</ele>
        <time>2014-03-02T08:06:53Z</time>
      </trkpt>
      <trkpt lat="43.97308" lon="7.26428">
        <ele>867.73</ele>
        <time>2014-03-02T08:07:04Z</time>
      </trkpt>
      <trkpt lat="43.97312" lon="7.26421">
        <ele>867.25</ele>
        <time>2014-03-02T08:07:09Z</time>
      </trkpt>
      <trkpt lat="43.97313" lon="7.26412">
        <ele>867.73</ele>
        <time>2014-03-02T08:07:15Z</time>
      </trkpt>
      <trkpt lat="43.97319" lon="7.26396">
        <ele>867.73</ele>
        <time>2014-03-02T08:07:29Z</time>
      </trkpt>
      <trkpt lat="43.97321" lon="7.2639">
        <ele>868.21</ele>
        <time>2014-03-02T08:07:34Z</time>
      </trkpt>
      <trkpt lat="43.97322" lon="7.26388">
        <ele>868.69</ele>
        <time>2014-03-02T08:07:36Z</time>
      </trkpt>
      <trkpt lat="43.97324" lon="7.26379">
        <ele>868.21</ele>
        <time>2014-03-02T08:07:42Z</time>
      </trkpt>
      <trkpt lat="43.97326" lon="7.26363">
        <ele>868.21</ele>
        <time>2014-03-02T08:07:53Z</time>
      </trkpt>
      <trkpt lat="43.97328" lon="7.26347">
        <ele>868.21</ele>
        <time>2014-03-02T08:08:04Z</time>
      </trkpt>
      <trkpt lat="43.97332" lon="7.26325">
        <ele>870.13</ele>
        <time>2014-03-02T08:08:18Z</time>
      </trkpt>
      <trkpt lat="43.97339" lon="7.26318">
        <ele>871.09</ele>
        <time>2014-03-02T08:08:27Z</time>
      </trkpt>
      <trkpt lat="43.97353" lon="7.26326">
        <ele>873.98</ele>
        <time>2014-03-02T08:08:41Z</time>
      </trkpt>
      <trkpt lat="43.97364" lon="7.26329">
        <ele>877.34</ele>
        <time>2014-03-02T08:08:53Z</time>
      </trkpt>
      <trkpt lat="43.97377" lon="7.26341">
        <ele>878.78</ele>
        <time>2014-03-02T08:09:07Z</time>
      </trkpt>
      <trkpt lat="43.9739" lon="7.26357">
        <ele>883.59</ele>
        <time>2014-03-02T08:09:21Z</time>
      </trkpt>
      <trkpt lat="43.97402" lon="7.26366">
        <ele>886.95</ele>
        <time>2014-03-02T08:09:36Z</time>
      </trkpt>
      <trkpt lat="43.97411" lon="7.26364">
        <ele>889.36</ele>
        <time>2014-03-02T08:09:43Z</time>
      </trkpt>
      <trkpt lat="43.97427" lon="7.26361">
        <ele>889.36</ele>
        <time>2014-03-02T08:09:57Z</time>
      </trkpt>
      <trkpt lat="43.97444" lon="7.26363">
        <ele>884.07</ele>
        <time>2014-03-02T08:10:11Z</time>
      </trkpt>
      <trkpt lat="43.97446" lon="7.26365">
        <ele>883.59</ele>
        <time>2014-03-02T08:10:13Z</time>
      </trkpt>
      <trkpt lat="43.97458" lon="7.26376">
        <ele>880.22</ele>
        <time>2014-03-02T08:10:24Z</time>
      </trkpt>
      <trkpt lat="43.97474" lon="7.26374">
        <ele>878.78</ele>
        <time>2014-03-02T08:10:37Z</time>
      </trkpt>
      <trkpt lat="43.97485" lon="7.26379">
        <ele>878.3</ele>
        <time>2014-03-02T08:10:49Z</time>
      </trkpt>
      <trkpt lat="43.97496" lon="7.26384">
        <ele>878.3</ele>
        <time>2014-03-02T08:10:58Z</time>
      </trkpt>
      <trkpt lat="43.97503" lon="7.2639">
        <ele>877.82</ele>
        <time>2014-03-02T08:11:04Z</time>
      </trkpt>
      <trkpt lat="43.97507" lon="7.26401">
        <ele>877.82</ele>
        <time>2014-03-02T08:11:12Z</time>
      </trkpt>
      <trkpt lat="43.97513" lon="7.26424">
        <ele>876.86</ele>
        <time>2014-03-02T08:11:28Z</time>
      </trkpt>
      <trkpt lat="43.97522" lon="7.26435">
        <ele>878.3</ele>
        <time>2014-03-02T08:11:40Z</time>
      </trkpt>
      <trkpt lat="43.97533" lon="7.2645">
        <ele>877.34</ele>
        <time>2014-03-02T08:11:55Z</time>
      </trkpt>
      <trkpt lat="43.97549" lon="7.2646">
        <ele>878.78</ele>
        <time>2014-03-02T08:12:10Z</time>
      </trkpt>
      <trkpt lat="43.97562" lon="7.26475">
        <ele>879.74</ele>
        <time>2014-03-02T08:12:22Z</time>
      </trkpt>
      <trkpt lat="43.97576" lon="7.26483">
        <ele>881.67</ele>
        <time>2014-03-02T08:12:37Z</time>
      </trkpt>
      <trkpt lat="43.97582" lon="7.26482">
        <ele>882.15</ele>
        <time>2014-03-02T08:12:41Z</time>
      </trkpt>
      <trkpt lat="43.97587" lon="7.26481">
        <ele>882.63</ele>
        <time>2014-03-02T08:12:46Z</time>
      </trkpt>
      <trkpt lat="43.97597" lon="7.26475">
        <ele>883.11</ele>
        <time>2014-03-02T08:12:55Z</time>
      </trkpt>
      <trkpt lat="43.97614" lon="7.2648">
        <ele>880.71</ele>
        <time>2014-03-02T08:13:08Z</time>
      </trkpt>
      <trkpt lat="43.97627" lon="7.26495">
        <ele>877.82</ele>
        <time>2014-03-02T08:13:22Z</time>
      </trkpt>
      <trkpt lat="43.97628" lon="7.26496">
        <ele>878.3</ele>
        <time>2014-03-02T08:13:23Z</time>
      </trkpt>
      <trkpt lat="43.97636" lon="7.26522">
        <ele>880.22</ele>
        <time>2014-03-02T08:13:38Z</time>
      </trkpt>
      <trkpt lat="43.97642" lon="7.2654">
        <ele>882.15</ele>
        <time>2014-03-02T08:13:51Z</time>
      </trkpt>
      <trkpt lat="43.97646" lon="7.26549">
        <ele>882.15</ele>
        <time>2014-03-02T08:13:56Z</time>
      </trkpt>
      <trkpt lat="43.97648" lon="7.26561">
        <ele>879.26</ele>
        <time>2014-03-02T08:14:03Z</time>
      </trkpt>
      <trkpt lat="43.97651" lon="7.26571">
        <ele>879.26</ele>
        <time>2014-03-02T08:14:11Z</time>
      </trkpt>
      <trkpt lat="43.97655" lon="7.26591">
        <ele>879.26</ele>
        <time>2014-03-02T08:14:23Z</time>
      </trkpt>
      <trkpt lat="43.97656" lon="7.26618">
        <ele>880.22</ele>
        <time>2014-03-02T08:14:39Z</time>
      </trkpt>
      <trkpt lat="43.97656" lon="7.2662">
        <ele>879.74</ele>
        <time>2014-03-02T08:14:41Z</time>
      </trkpt>
      <trkpt lat="43.97661" lon="7.26639">
        <ele>876.86</ele>
        <time>2014-03-02T08:14:59Z</time>
      </trkpt>
      <trkpt lat="43.97668" lon="7.2664">
        <ele>874.94</ele>
        <time>2014-03-02T08:15:14Z</time>
      </trkpt>
      <trkpt lat="43.9767" lon="7.26638">
        <ele>874.46</ele>
        <time>2014-03-02T08:15:16Z</time>
      </trkpt>
      <trkpt lat="43.97682" lon="7.26621">
        <ele>874.94</ele>
        <time>2014-03-02T08:15:30Z</time>
      </trkpt>
      <trkpt lat="43.97693" lon="7.26616">
        <ele>876.38</ele>
        <time>2014-03-02T08:15:37Z</time>
      </trkpt>
      <trkpt lat="43.97695" lon="7.26613">
        <ele>875.9</ele>
        <time>2014-03-02T08:15:39Z</time>
      </trkpt>
      <trkpt lat="43.97697" lon="7.26611">
        <ele>875.42</ele>
        <time>2014-03-02T08:15:41Z</time>
      </trkpt>
      <trkpt lat="43.97705" lon="7.266">
        <ele>872.53</ele>
        <time>2014-03-02T08:15:51Z</time>
      </trkpt>
      <trkpt lat="43.97718" lon="7.26609">
        <ele>875.9</ele>
        <time>2014-03-02T08:16:05Z</time>
      </trkpt>
      <trkpt lat="43.97727" lon="7.2662">
        <ele>877.82</ele>
        <time>2014-03-02T08:16:17Z</time>
      </trkpt>
      <trkpt lat="43.97731" lon="7.26623">
        <ele>878.78</ele>
        <time>2014-03-02T08:16:20Z</time>
      </trkpt>
      <trkpt lat="43.97744" lon="7.26634">
        <ele>882.63</ele>
        <time>2014-03-02T08:16:34Z</time>
      </trkpt>
      <trkpt lat="43.9775" lon="7.26633">
        <ele>885.03</ele>
        <time>2014-03-02T08:16:41Z</time>
      </trkpt>
      <trkpt lat="43.97755" lon="7.26635">
        <ele>887.91</ele>
        <time>2014-03-02T08:16:47Z</time>
      </trkpt>
      <trkpt lat="43.97757" lon="7.26637">
        <ele>888.4</ele>
        <time>2014-03-02T08:16:49Z</time>
      </trkpt>
      <trkpt lat="43.97766" lon="7.26646">
        <ele>891.28</ele>
        <time>2014-03-02T08:17:03Z</time>
      </trkpt>
      <trkpt lat="43.97766" lon="7.26645">
        <ele>889.84</ele>
        <time>2014-03-02T08:17:26Z</time>
      </trkpt>
      <trkpt lat="43.97773" lon="7.26648">
        <ele>891.76</ele>
        <time>2014-03-02T08:17:39Z</time>
      </trkpt>
      <trkpt lat="43.97778" lon="7.26652">
        <ele>891.76</ele>
        <time>2014-03-02T08:17:43Z</time>
      </trkpt>
      <trkpt lat="43.97786" lon="7.26663">
        <ele>891.76</ele>
        <time>2014-03-02T08:17:51Z</time>
      </trkpt>
      <trkpt lat="43.97798" lon="7.26677">
        <ele>894.16</ele>
        <time>2014-03-02T08:18:04Z</time>
      </trkpt>
      <trkpt lat="43.97801" lon="7.26678">
        <ele>897.53</ele>
        <time>2014-03-02T08:18:16Z</time>
      </trkpt>
      <trkpt lat="43.97802" lon="7.26675">
        <ele>897.53</ele>
        <time>2014-03-02T08:18:30Z</time>
      </trkpt>
      <trkpt lat="43.97811" lon="7.2667">
        <ele>895.12</ele>
        <time>2014-03-02T08:18:42Z</time>
      </trkpt>
      <trkpt lat="43.97819" lon="7.26668">
        <ele>893.68</ele>
        <time>2014-03-02T08:18:49Z</time>
      </trkpt>
      <trkpt lat="43.97826" lon="7.2667">
        <ele>893.2</ele>
        <time>2014-03-02T08:18:54Z</time>
      </trkpt>
      <trkpt lat="43.97828" lon="7.2667">
        <ele>892.72</ele>
        <time>2014-03-02T08:18:56Z</time>
      </trkpt>
      <trkpt lat="43.97839" lon="7.26669">
        <ele>893.2</ele>
        <time>2014-03-02T08:19:07Z</time>
      </trkpt>
      <trkpt lat="43.97853" lon="7.2667">
        <ele>891.76</ele>
        <time>2014-03-02T08:19:20Z</time>
      </trkpt>
      <trkpt lat="43.97857" lon="7.2667">
        <ele>891.76</ele>
        <time>2014-03-02T08:19:24Z</time>
      </trkpt>
      <trkpt lat="43.97868" lon="7.26669">
        <ele>892.72</ele>
        <time>2014-03-02T08:19:35Z</time>
      </trkpt>
      <trkpt lat="43.97872" lon="7.26669">
        <ele>892.72</ele>
        <time>2014-03-02T08:19:39Z</time>
      </trkpt>
      <trkpt lat="43.97886" lon="7.26666">
        <ele>892.72</ele>
        <time>2014-03-02T08:19:54Z</time>
      </trkpt>
      <trkpt lat="43.97888" lon="7.26667">
        <ele>893.68</ele>
        <time>2014-03-02T08:20:09Z</time>
      </trkpt>
      <trkpt lat="43.97889" lon="7.26665">
        <ele>893.68</ele>
        <time>2014-03-02T08:20:18Z</time>
      </trkpt>
      <trkpt lat="43.97886" lon="7.26666">
        <ele>892.72</ele>
        <time>2014-03-02T08:20:33Z</time>
      </trkpt>
      <trkpt lat="43.97883" lon="7.26669">
        <ele>892.72</ele>
        <time>2014-03-02T08:20:52Z</time>
      </trkpt>
      <trkpt lat="43.97879" lon="7.26665">
        <ele>895.61</ele>
        <time>2014-03-02T08:21:02Z</time>
      </trkpt>
      <trkpt lat="43.97876" lon="7.26653">
        <ele>895.61</ele>
        <time>2014-03-02T08:21:14Z</time>
      </trkpt>
      <trkpt lat="43.97876" lon="7.26643">
        <ele>893.68</ele>
        <time>2014-03-02T08:21:24Z</time>
      </trkpt>
      <trkpt lat="43.97869" lon="7.26637">
        <ele>892.72</ele>
        <time>2014-03-02T08:21:33Z</time>
      </trkpt>
      <trkpt lat="43.97863" lon="7.26623">
        <ele>892.24</ele>
        <time>2014-03-02T08:21:44Z</time>
      </trkpt>
      <trkpt lat="43.97855" lon="7.26611">
        <ele>890.8</ele>
        <time>2014-03-02T08:21:56Z</time>
      </trkpt>
      <trkpt lat="43.9785" lon="7.26601">
        <ele>888.88</ele>
        <time>2014-03-02T08:22:05Z</time>
      </trkpt>
      <trkpt lat="43.97846" lon="7.26592">
        <ele>886.47</ele>
        <time>2014-03-02T08:22:12Z</time>
      </trkpt>
      <trkpt lat="43.97845" lon="7.26587">
        <ele>886.47</ele>
        <time>2014-03-02T08:22:15Z</time>
      </trkpt>
      <trkpt lat="43.97834" lon="7.26572">
        <ele>889.36</ele>
        <time>2014-03-02T08:22:29Z</time>
      </trkpt>
      <trkpt lat="43.97828" lon="7.26554">
        <ele>890.32</ele>
        <time>2014-03-02T08:22:41Z</time>
      </trkpt>
      <trkpt lat="43.97823" lon="7.26543">
        <ele>891.28</ele>
        <time>2014-03-02T08:22:49Z</time>
      </trkpt>
      <trkpt lat="43.9782" lon="7.26519">
        <ele>893.2</ele>
        <time>2014-03-02T08:23:04Z</time>
      </trkpt>
      <trkpt lat="43.97819" lon="7.26513">
        <ele>894.16</ele>
        <time>2014-03-02T08:23:08Z</time>
      </trkpt>
      <trkpt lat="43.97815" lon="7.2649">
        <ele>893.68</ele>
        <time>2014-03-02T08:23:23Z</time>
      </trkpt>
      <trkpt lat="43.97814" lon="7.26481">
        <ele>893.68</ele>
        <time>2014-03-02T08:23:29Z</time>
      </trkpt>
      <trkpt lat="43.97813" lon="7.26466">
        <ele>894.64</ele>
        <time>2014-03-02T08:23:39Z</time>
      </trkpt>
      <trkpt lat="43.9781" lon="7.26445">
        <ele>896.57</ele>
        <time>2014-03-02T08:23:53Z</time>
      </trkpt>
      <trkpt lat="43.97805" lon="7.26426">
        <ele>898.49</ele>
        <time>2014-03-02T08:24:06Z</time>
      </trkpt>
      <trkpt lat="43.97803" lon="7.2641">
        <ele>898.97</ele>
        <time>2014-03-02T08:24:17Z</time>
      </trkpt>
      <trkpt lat="43.97804" lon="7.26403">
        <ele>899.45</ele>
        <time>2014-03-02T08:24:21Z</time>
      </trkpt>
      <trkpt lat="43.97799" lon="7.26382">
        <ele>898.49</ele>
        <time>2014-03-02T08:24:35Z</time>
      </trkpt>
      <trkpt lat="43.97791" lon="7.2636">
        <ele>900.41</ele>
        <time>2014-03-02T08:24:51Z</time>
      </trkpt>
      <trkpt lat="43.97788" lon="7.26354">
        <ele>901.37</ele>
        <time>2014-03-02T08:24:56Z</time>
      </trkpt>
      <trkpt lat="43.97783" lon="7.26332">
        <ele>899.93</ele>
        <time>2014-03-02T08:25:10Z</time>
      </trkpt>
      <trkpt lat="43.97785" lon="7.26327">
        <ele>900.89</ele>
        <time>2014-03-02T08:25:14Z</time>
      </trkpt>
      <trkpt lat="43.97797" lon="7.26319">
        <ele>901.85</ele>
        <time>2014-03-02T08:25:26Z</time>
      </trkpt>
      <trkpt lat="43.97806" lon="7.26312">
        <ele>901.85</ele>
        <time>2014-03-02T08:25:36Z</time>
      </trkpt>
      <trkpt lat="43.97816" lon="7.26301">
        <ele>903.3</ele>
        <time>2014-03-02T08:25:48Z</time>
      </trkpt>
      <trkpt lat="43.97829" lon="7.26293">
        <ele>905.22</ele>
        <time>2014-03-02T08:26:03Z</time>
      </trkpt>
      <trkpt lat="43.97836" lon="7.26296">
        <ele>905.22</ele>
        <time>2014-03-02T08:26:10Z</time>
      </trkpt>
      <trkpt lat="43.97843" lon="7.26296">
        <ele>907.14</ele>
        <time>2014-03-02T08:26:21Z</time>
      </trkpt>
      <trkpt lat="43.97851" lon="7.26297">
        <ele>908.58</ele>
        <time>2014-03-02T08:26:29Z</time>
      </trkpt>
      <trkpt lat="43.97857" lon="7.26296">
        <ele>909.54</ele>
        <time>2014-03-02T08:26:34Z</time>
      </trkpt>
      <trkpt lat="43.97869" lon="7.26289">
        <ele>909.54</ele>
        <time>2014-03-02T08:26:47Z</time>
      </trkpt>
      <trkpt lat="43.9787" lon="7.26288">
        <ele>909.54</ele>
        <time>2014-03-02T08:26:48Z</time>
      </trkpt>
      <trkpt lat="43.97874" lon="7.26288">
        <ele>909.54</ele>
        <time>2014-03-02T08:26:52Z</time>
      </trkpt>
      <trkpt lat="43.97883" lon="7.2628">
        <ele>908.1</ele>
        <time>2014-03-02T08:27:06Z</time>
      </trkpt>
      <trkpt lat="43.97883" lon="7.26277">
        <ele>908.1</ele>
        <time>2014-03-02T08:27:26Z</time>
      </trkpt>
      <trkpt lat="43.97882" lon="7.26274">
        <ele>908.58</ele>
        <time>2014-03-02T08:27:51Z</time>
      </trkpt>
      <trkpt lat="43.97883" lon="7.26275">
        <ele>908.58</ele>
        <time>2014-03-02T08:28:14Z</time>
      </trkpt>
      <trkpt lat="43.97884" lon="7.26276">
        <ele>909.06</ele>
        <time>2014-03-02T08:28:41Z</time>
      </trkpt>
      <trkpt lat="43.97885" lon="7.26274">
        <ele>908.58</ele>
        <time>2014-03-02T08:28:52Z</time>
      </trkpt>
      <trkpt lat="43.9789" lon="7.26263">
        <ele>908.1</ele>
        <time>2014-03-02T08:29:02Z</time>
      </trkpt>
      <trkpt lat="43.9789" lon="7.26257">
        <ele>908.1</ele>
        <time>2014-03-02T08:29:06Z</time>
      </trkpt>
      <trkpt lat="43.97893" lon="7.26247">
        <ele>907.14</ele>
        <time>2014-03-02T08:29:12Z</time>
      </trkpt>
      <trkpt lat="43.97895" lon="7.26236">
        <ele>907.62</ele>
        <time>2014-03-02T08:29:20Z</time>
      </trkpt>
      <trkpt lat="43.97901" lon="7.26217">
        <ele>910.99</ele>
        <time>2014-03-02T08:29:33Z</time>
      </trkpt>
      <trkpt lat="43.97908" lon="7.26207">
        <ele>912.91</ele>
        <time>2014-03-02T08:29:43Z</time>
      </trkpt>
      <trkpt lat="43.97911" lon="7.26206">
        <ele>913.39</ele>
        <time>2014-03-02T08:29:45Z</time>
      </trkpt>
      <trkpt lat="43.97914" lon="7.26205">
        <ele>913.87</ele>
        <time>2014-03-02T08:29:49Z</time>
      </trkpt>
      <trkpt lat="43.97924" lon="7.26204">
        <ele>915.31</ele>
        <time>2014-03-02T08:29:58Z</time>
      </trkpt>
      <trkpt lat="43.97935" lon="7.26202">
        <ele>915.79</ele>
        <time>2014-03-02T08:30:10Z</time>
      </trkpt>
      <trkpt lat="43.97947" lon="7.26198">
        <ele>916.27</ele>
        <time>2014-03-02T08:30:22Z</time>
      </trkpt>
      <trkpt lat="43.9795" lon="7.26196">
        <ele>916.75</ele>
        <time>2014-03-02T08:30:27Z</time>
      </trkpt>
      <trkpt lat="43.97954" lon="7.26195">
        <ele>917.24</ele>
        <time>2014-03-02T08:30:31Z</time>
      </trkpt>
      <trkpt lat="43.97965" lon="7.26193">
        <ele>917.72</ele>
        <time>2014-03-02T08:30:41Z</time>
      </trkpt>
      <trkpt lat="43.9798" lon="7.26188">
        <ele>919.64</ele>
        <time>2014-03-02T08:30:56Z</time>
      </trkpt>
      <trkpt lat="43.97992" lon="7.26182">
        <ele>922.52</ele>
        <time>2014-03-02T08:31:08Z</time>
      </trkpt>
      <trkpt lat="43.97994" lon="7.2618">
        <ele>922.52</ele>
        <time>2014-03-02T08:31:11Z</time>
      </trkpt>
      <trkpt lat="43.98005" lon="7.26178">
        <ele>922.52</ele>
        <time>2014-03-02T08:31:21Z</time>
      </trkpt>
      <trkpt lat="43.98007" lon="7.26177">
        <ele>922.52</ele>
        <time>2014-03-02T08:31:23Z</time>
      </trkpt>
      <trkpt lat="43.98019" lon="7.2619">
        <ele>923</ele>
        <time>2014-03-02T08:31:38Z</time>
      </trkpt>
      <trkpt lat="43.98019" lon="7.26191">
        <ele>923</ele>
        <time>2014-03-02T08:31:39Z</time>
      </trkpt>
      <trkpt lat="43.98022" lon="7.26197">
        <ele>923</ele>
        <time>2014-03-02T08:31:46Z</time>
      </trkpt>
      <trkpt lat="43.98025" lon="7.262">
        <ele>923</ele>
        <time>2014-03-02T08:31:50Z</time>
      </trkpt>
      <trkpt lat="43.98027" lon="7.26216">
        <ele>923.48</ele>
        <time>2014-03-02T08:32:03Z</time>
      </trkpt>
      <trkpt lat="43.98028" lon="7.26223">
        <ele>923.48</ele>
        <time>2014-03-02T08:32:08Z</time>
      </trkpt>
      <trkpt lat="43.98032" lon="7.26242">
        <ele>923.96</ele>
        <time>2014-03-02T08:32:23Z</time>
      </trkpt>
      <trkpt lat="43.98043" lon="7.26251">
        <ele>925.89</ele>
        <time>2014-03-02T08:32:37Z</time>
      </trkpt>
      <trkpt lat="43.98056" lon="7.26253">
        <ele>927.81</ele>
        <time>2014-03-02T08:32:43Z</time>
      </trkpt>
      <trkpt lat="43.98067" lon="7.26267">
        <ele>927.81</ele>
        <time>2014-03-02T08:32:56Z</time>
      </trkpt>
      <trkpt lat="43.9807" lon="7.26274">
        <ele>927.33</ele>
        <time>2014-03-02T08:33:02Z</time>
      </trkpt>
      <trkpt lat="43.98083" lon="7.26299">
        <ele>925.89</ele>
        <time>2014-03-02T08:33:18Z</time>
      </trkpt>
      <trkpt lat="43.98088" lon="7.26308">
        <ele>925.41</ele>
        <time>2014-03-02T08:33:25Z</time>
      </trkpt>
      <trkpt lat="43.98092" lon="7.26309">
        <ele>925.89</ele>
        <time>2014-03-02T08:33:27Z</time>
      </trkpt>
      <trkpt lat="43.98097" lon="7.26309">
        <ele>925.89</ele>
        <time>2014-03-02T08:33:31Z</time>
      </trkpt>
      <trkpt lat="43.98102" lon="7.26303">
        <ele>926.37</ele>
        <time>2014-03-02T08:33:35Z</time>
      </trkpt>
      <trkpt lat="43.98108" lon="7.26299">
        <ele>927.33</ele>
        <time>2014-03-02T08:33:40Z</time>
      </trkpt>
      <trkpt lat="43.98117" lon="7.2629">
        <ele>928.77</ele>
        <time>2014-03-02T08:33:48Z</time>
      </trkpt>
      <trkpt lat="43.98126" lon="7.26273">
        <ele>929.25</ele>
        <time>2014-03-02T08:34:01Z</time>
      </trkpt>
      <trkpt lat="43.98127" lon="7.26272">
        <ele>929.73</ele>
        <time>2014-03-02T08:34:03Z</time>
      </trkpt>
      <trkpt lat="43.98144" lon="7.26265">
        <ele>929.73</ele>
        <time>2014-03-02T08:34:17Z</time>
      </trkpt>
      <trkpt lat="43.98163" lon="7.26269">
        <ele>928.77</ele>
        <time>2014-03-02T08:34:32Z</time>
      </trkpt>
      <trkpt lat="43.98164" lon="7.2627">
        <ele>928.77</ele>
        <time>2014-03-02T08:34:34Z</time>
      </trkpt>
      <trkpt lat="43.9817" lon="7.26279">
        <ele>927.81</ele>
        <time>2014-03-02T08:34:45Z</time>
      </trkpt>
      <trkpt lat="43.98177" lon="7.26289">
        <ele>927.33</ele>
        <time>2014-03-02T08:34:58Z</time>
      </trkpt>
      <trkpt lat="43.98186" lon="7.26299">
        <ele>926.37</ele>
        <time>2014-03-02T08:35:07Z</time>
      </trkpt>
      <trkpt lat="43.98196" lon="7.26304">
        <ele>926.37</ele>
        <time>2014-03-02T08:35:16Z</time>
      </trkpt>
      <trkpt lat="43.98213" lon="7.2629">
        <ele>927.81</ele>
        <time>2014-03-02T08:35:29Z</time>
      </trkpt>
      <trkpt lat="43.98229" lon="7.26288">
        <ele>932.14</ele>
        <time>2014-03-02T08:35:43Z</time>
      </trkpt>
      <trkpt lat="43.9823" lon="7.26289">
        <ele>932.14</ele>
        <time>2014-03-02T08:35:44Z</time>
      </trkpt>
      <trkpt lat="43.98238" lon="7.26277">
        <ele>934.06</ele>
        <time>2014-03-02T08:35:54Z</time>
      </trkpt>
      <trkpt lat="43.98252" lon="7.26278">
        <ele>938.38</ele>
        <time>2014-03-02T08:36:08Z</time>
      </trkpt>
      <trkpt lat="43.98258" lon="7.26284">
        <ele>939.35</ele>
        <time>2014-03-02T08:36:14Z</time>
      </trkpt>
      <trkpt lat="43.98265" lon="7.26289">
        <ele>941.75</ele>
        <time>2014-03-02T08:36:21Z</time>
      </trkpt>
      <trkpt lat="43.98267" lon="7.26289">
        <ele>942.23</ele>
        <time>2014-03-02T08:36:23Z</time>
      </trkpt>
      <trkpt lat="43.9828" lon="7.26289">
        <ele>945.11</ele>
        <time>2014-03-02T08:36:34Z</time>
      </trkpt>
      <trkpt lat="43.98282" lon="7.26291">
        <ele>946.07</ele>
        <time>2014-03-02T08:36:36Z</time>
      </trkpt>
      <trkpt lat="43.98284" lon="7.26293">
        <ele>946.56</ele>
        <time>2014-03-02T08:36:38Z</time>
      </trkpt>
      <trkpt lat="43.98289" lon="7.26297">
        <ele>947.52</ele>
        <time>2014-03-02T08:36:43Z</time>
      </trkpt>
      <trkpt lat="43.98305" lon="7.26304">
        <ele>951.36</ele>
        <time>2014-03-02T08:36:57Z</time>
      </trkpt>
      <trkpt lat="43.98316" lon="7.26306">
        <ele>955.21</ele>
        <time>2014-03-02T08:37:08Z</time>
      </trkpt>
      <trkpt lat="43.98318" lon="7.26307">
        <ele>955.69</ele>
        <time>2014-03-02T08:37:10Z</time>
      </trkpt>
      <trkpt lat="43.98326" lon="7.26311">
        <ele>956.17</ele>
        <time>2014-03-02T08:37:18Z</time>
      </trkpt>
      <trkpt lat="43.98333" lon="7.26318">
        <ele>955.21</ele>
        <time>2014-03-02T08:37:24Z</time>
      </trkpt>
      <trkpt lat="43.98337" lon="7.26318">
        <ele>955.21</ele>
        <time>2014-03-02T08:37:28Z</time>
      </trkpt>
      <trkpt lat="43.98349" lon="7.26315">
        <ele>953.28</ele>
        <time>2014-03-02T08:37:40Z</time>
      </trkpt>
      <trkpt lat="43.98351" lon="7.26314">
        <ele>952.32</ele>
        <time>2014-03-02T08:37:42Z</time>
      </trkpt>
      <trkpt lat="43.9836" lon="7.26319">
        <ele>951.84</ele>
        <time>2014-03-02T08:37:52Z</time>
      </trkpt>
      <trkpt lat="43.98364" lon="7.26322">
        <ele>951.36</ele>
        <time>2014-03-02T08:37:56Z</time>
      </trkpt>
      <trkpt lat="43.9838" lon="7.26324">
        <ele>951.84</ele>
        <time>2014-03-02T08:38:09Z</time>
      </trkpt>
      <trkpt lat="43.98381" lon="7.26324">
        <ele>951.84</ele>
        <time>2014-03-02T08:38:10Z</time>
      </trkpt>
      <trkpt lat="43.98384" lon="7.26322">
        <ele>952.32</ele>
        <time>2014-03-02T08:38:13Z</time>
      </trkpt>
      <trkpt lat="43.98389" lon="7.26316">
        <ele>952.32</ele>
        <time>2014-03-02T08:38:19Z</time>
      </trkpt>
      <trkpt lat="43.98393" lon="7.26313">
        <ele>952.32</ele>
        <time>2014-03-02T08:38:24Z</time>
      </trkpt>
      <trkpt lat="43.98397" lon="7.26311">
        <ele>952.32</ele>
        <time>2014-03-02T08:38:28Z</time>
      </trkpt>
      <trkpt lat="43.98411" lon="7.26303">
        <ele>955.69</ele>
        <time>2014-03-02T08:38:40Z</time>
      </trkpt>
      <trkpt lat="43.98422" lon="7.26289">
        <ele>959.53</ele>
        <time>2014-03-02T08:38:54Z</time>
      </trkpt>
      <trkpt lat="43.98429" lon="7.26275">
        <ele>959.53</ele>
        <time>2014-03-02T08:39:05Z</time>
      </trkpt>
      <trkpt lat="43.9843" lon="7.26274">
        <ele>959.53</ele>
        <time>2014-03-02T08:39:06Z</time>
      </trkpt>
      <trkpt lat="43.98434" lon="7.26273">
        <ele>958.09</ele>
        <time>2014-03-02T08:39:14Z</time>
      </trkpt>
      <trkpt lat="43.98436" lon="7.26273">
        <ele>957.13</ele>
        <time>2014-03-02T08:39:16Z</time>
      </trkpt>
      <trkpt lat="43.98442" lon="7.26275">
        <ele>956.17</ele>
        <time>2014-03-02T08:39:23Z</time>
      </trkpt>
      <trkpt lat="43.98451" lon="7.2628">
        <ele>956.17</ele>
        <time>2014-03-02T08:39:34Z</time>
      </trkpt>
      <trkpt lat="43.98465" lon="7.26292">
        <ele>959.53</ele>
        <time>2014-03-02T08:39:47Z</time>
      </trkpt>
      <trkpt lat="43.98478" lon="7.26291">
        <ele>964.34</ele>
        <time>2014-03-02T08:40:01Z</time>
      </trkpt>
      <trkpt lat="43.9848" lon="7.26291">
        <ele>965.78</ele>
        <time>2014-03-02T08:40:09Z</time>
      </trkpt>
      <trkpt lat="43.98482" lon="7.26287">
        <ele>965.78</ele>
        <time>2014-03-02T08:40:15Z</time>
      </trkpt>
      <trkpt lat="43.98485" lon="7.26274">
        <ele>964.34</ele>
        <time>2014-03-02T08:40:26Z</time>
      </trkpt>
      <trkpt lat="43.98487" lon="7.26266">
        <ele>961.46</ele>
        <time>2014-03-02T08:40:32Z</time>
      </trkpt>
      <trkpt lat="43.98491" lon="7.26258">
        <ele>956.17</ele>
        <time>2014-03-02T08:40:39Z</time>
      </trkpt>
      <trkpt lat="43.98508" lon="7.26259">
        <ele>954.25</ele>
        <time>2014-03-02T08:40:55Z</time>
      </trkpt>
      <trkpt lat="43.98513" lon="7.26267">
        <ele>953.77</ele>
        <time>2014-03-02T08:41:01Z</time>
      </trkpt>
      <trkpt lat="43.98518" lon="7.26277">
        <ele>953.28</ele>
        <time>2014-03-02T08:41:11Z</time>
      </trkpt>
      <trkpt lat="43.98531" lon="7.26289">
        <ele>952.32</ele>
        <time>2014-03-02T08:41:25Z</time>
      </trkpt>
      <trkpt lat="43.98536" lon="7.26294">
        <ele>953.28</ele>
        <time>2014-03-02T08:41:31Z</time>
      </trkpt>
      <trkpt lat="43.98541" lon="7.26295">
        <ele>953.77</ele>
        <time>2014-03-02T08:41:36Z</time>
      </trkpt>
      <trkpt lat="43.98545" lon="7.26295">
        <ele>955.69</ele>
        <time>2014-03-02T08:41:40Z</time>
      </trkpt>
      <trkpt lat="43.98555" lon="7.26296">
        <ele>960.49</ele>
        <time>2014-03-02T08:41:48Z</time>
      </trkpt>
      <trkpt lat="43.98561" lon="7.26296">
        <ele>964.34</ele>
        <time>2014-03-02T08:41:54Z</time>
      </trkpt>
      <trkpt lat="43.98563" lon="7.26296">
        <ele>964.82</ele>
        <time>2014-03-02T08:41:56Z</time>
      </trkpt>
      <trkpt lat="43.98575" lon="7.26303">
        <ele>972.03</ele>
        <time>2014-03-02T08:42:10Z</time>
      </trkpt>
      <trkpt lat="43.98579" lon="7.26302">
        <ele>975.88</ele>
        <time>2014-03-02T08:42:16Z</time>
      </trkpt>
      <trkpt lat="43.98583" lon="7.26302">
        <ele>978.28</ele>
        <time>2014-03-02T08:42:21Z</time>
      </trkpt>
      <trkpt lat="43.98596" lon="7.26305">
        <ele>983.57</ele>
        <time>2014-03-02T08:42:33Z</time>
      </trkpt>
      <trkpt lat="43.98599" lon="7.26306">
        <ele>983.57</ele>
        <time>2014-03-02T08:42:37Z</time>
      </trkpt>
      <trkpt lat="43.98603" lon="7.26301">
        <ele>984.53</ele>
        <time>2014-03-02T08:42:49Z</time>
      </trkpt>
      <trkpt lat="43.98606" lon="7.26296">
        <ele>988.37</ele>
        <time>2014-03-02T08:42:58Z</time>
      </trkpt>
      <trkpt lat="43.98612" lon="7.26297">
        <ele>985.01</ele>
        <time>2014-03-02T08:43:04Z</time>
      </trkpt>
      <trkpt lat="43.98612" lon="7.26295">
        <ele>977.8</ele>
        <time>2014-03-02T08:43:10Z</time>
      </trkpt>
      <trkpt lat="43.98611" lon="7.2629">
        <ele>973.95</ele>
        <time>2014-03-02T08:43:16Z</time>
      </trkpt>
      <trkpt lat="43.986" lon="7.26277">
        <ele>968.67</ele>
        <time>2014-03-02T08:43:29Z</time>
      </trkpt>
      <trkpt lat="43.98592" lon="7.26262">
        <ele>964.34</ele>
        <time>2014-03-02T08:43:41Z</time>
      </trkpt>
      <trkpt lat="43.98591" lon="7.26257">
        <ele>963.38</ele>
        <time>2014-03-02T08:43:44Z</time>
      </trkpt>
      <trkpt lat="43.98585" lon="7.26249">
        <ele>963.86</ele>
        <time>2014-03-02T08:43:51Z</time>
      </trkpt>
      <trkpt lat="43.98588" lon="7.2623">
        <ele>962.9</ele>
        <time>2014-03-02T08:44:02Z</time>
      </trkpt>
      <trkpt lat="43.9859" lon="7.26222">
        <ele>962.42</ele>
        <time>2014-03-02T08:44:07Z</time>
      </trkpt>
      <trkpt lat="43.98593" lon="7.26215">
        <ele>961.46</ele>
        <time>2014-03-02T08:44:12Z</time>
      </trkpt>
      <trkpt lat="43.98595" lon="7.26208">
        <ele>961.46</ele>
        <time>2014-03-02T08:44:17Z</time>
      </trkpt>
      <trkpt lat="43.98594" lon="7.26195">
        <ele>963.38</ele>
        <time>2014-03-02T08:44:27Z</time>
      </trkpt>
      <trkpt lat="43.98594" lon="7.26192">
        <ele>963.38</ele>
        <time>2014-03-02T08:44:29Z</time>
      </trkpt>
      <trkpt lat="43.98593" lon="7.26185">
        <ele>963.38</ele>
        <time>2014-03-02T08:44:34Z</time>
      </trkpt>
      <trkpt lat="43.98591" lon="7.26175">
        <ele>963.38</ele>
        <time>2014-03-02T08:44:40Z</time>
      </trkpt>
      <trkpt lat="43.9859" lon="7.2617">
        <ele>963.38</ele>
        <time>2014-03-02T08:44:43Z</time>
      </trkpt>
      <trkpt lat="43.98586" lon="7.26157">
        <ele>962.42</ele>
        <time>2014-03-02T08:44:52Z</time>
      </trkpt>
      <trkpt lat="43.98581" lon="7.26147">
        <ele>961.94</ele>
        <time>2014-03-02T08:44:59Z</time>
      </trkpt>
      <trkpt lat="43.98578" lon="7.2614">
        <ele>961.94</ele>
        <time>2014-03-02T08:45:04Z</time>
      </trkpt>
      <trkpt lat="43.98583" lon="7.26132">
        <ele>963.38</ele>
        <time>2014-03-02T08:45:12Z</time>
      </trkpt>
      <trkpt lat="43.98591" lon="7.26129">
        <ele>964.34</ele>
        <time>2014-03-02T08:45:19Z</time>
      </trkpt>
      <trkpt lat="43.98594" lon="7.26127">
        <ele>964.82</ele>
        <time>2014-03-02T08:45:22Z</time>
      </trkpt>
      <trkpt lat="43.98597" lon="7.26125">
        <ele>964.82</ele>
        <time>2014-03-02T08:45:26Z</time>
      </trkpt>
      <trkpt lat="43.98609" lon="7.26116">
        <ele>965.78</ele>
        <time>2014-03-02T08:45:38Z</time>
      </trkpt>
      <trkpt lat="43.9861" lon="7.26116">
        <ele>965.78</ele>
        <time>2014-03-02T08:45:43Z</time>
      </trkpt>
      <trkpt lat="43.98615" lon="7.26114">
        <ele>965.78</ele>
        <time>2014-03-02T08:45:47Z</time>
      </trkpt>
      <trkpt lat="43.98618" lon="7.26113">
        <ele>966.26</ele>
        <time>2014-03-02T08:45:49Z</time>
      </trkpt>
      <trkpt lat="43.98624" lon="7.2611">
        <ele>967.22</ele>
        <time>2014-03-02T08:45:57Z</time>
      </trkpt>
      <trkpt lat="43.98635" lon="7.26107">
        <ele>968.67</ele>
        <time>2014-03-02T08:46:06Z</time>
      </trkpt>
      <trkpt lat="43.98636" lon="7.26092">
        <ele>969.15</ele>
        <time>2014-03-02T08:46:17Z</time>
      </trkpt>
      <trkpt lat="43.98646" lon="7.2608">
        <ele>969.63</ele>
        <time>2014-03-02T08:46:28Z</time>
      </trkpt>
      <trkpt lat="43.98653" lon="7.26072">
        <ele>969.63</ele>
        <time>2014-03-02T08:46:35Z</time>
      </trkpt>
      <trkpt lat="43.98656" lon="7.26068">
        <ele>969.15</ele>
        <time>2014-03-02T08:46:38Z</time>
      </trkpt>
      <trkpt lat="43.98658" lon="7.26067">
        <ele>968.67</ele>
        <time>2014-03-02T08:46:40Z</time>
      </trkpt>
      <trkpt lat="43.9866" lon="7.26063">
        <ele>968.67</ele>
        <time>2014-03-02T08:46:43Z</time>
      </trkpt>
      <trkpt lat="43.98667" lon="7.26056">
        <ele>970.59</ele>
        <time>2014-03-02T08:46:52Z</time>
      </trkpt>
      <trkpt lat="43.98667" lon="7.26043">
        <ele>971.55</ele>
        <time>2014-03-02T08:46:58Z</time>
      </trkpt>
      <trkpt lat="43.98667" lon="7.26034">
        <ele>972.03</ele>
        <time>2014-03-02T08:47:02Z</time>
      </trkpt>
      <trkpt lat="43.98672" lon="7.26012">
        <ele>971.07</ele>
        <time>2014-03-02T08:47:16Z</time>
      </trkpt>
      <trkpt lat="43.98673" lon="7.26009">
        <ele>971.07</ele>
        <time>2014-03-02T08:47:18Z</time>
      </trkpt>
      <trkpt lat="43.98674" lon="7.26">
        <ele>971.55</ele>
        <time>2014-03-02T08:47:24Z</time>
      </trkpt>
      <trkpt lat="43.98677" lon="7.25993">
        <ele>971.55</ele>
        <time>2014-03-02T08:47:30Z</time>
      </trkpt>
      <trkpt lat="43.98679" lon="7.2599">
        <ele>971.55</ele>
        <time>2014-03-02T08:47:33Z</time>
      </trkpt>
      <trkpt lat="43.98685" lon="7.25984">
        <ele>972.03</ele>
        <time>2014-03-02T08:47:41Z</time>
      </trkpt>
      <trkpt lat="43.98691" lon="7.25977">
        <ele>972.99</ele>
        <time>2014-03-02T08:47:50Z</time>
      </trkpt>
      <trkpt lat="43.98693" lon="7.25974">
        <ele>973.47</ele>
        <time>2014-03-02T08:47:53Z</time>
      </trkpt>
      <trkpt lat="43.98695" lon="7.25972">
        <ele>973.95</ele>
        <time>2014-03-02T08:47:55Z</time>
      </trkpt>
      <trkpt lat="43.98704" lon="7.2596">
        <ele>975.39</ele>
        <time>2014-03-02T08:48:07Z</time>
      </trkpt>
      <trkpt lat="43.98706" lon="7.25959">
        <ele>975.39</ele>
        <time>2014-03-02T08:48:09Z</time>
      </trkpt>
      <trkpt lat="43.98709" lon="7.25962">
        <ele>974.91</ele>
        <time>2014-03-02T08:48:13Z</time>
      </trkpt>
      <trkpt lat="43.98718" lon="7.25966">
        <ele>973.47</ele>
        <time>2014-03-02T08:48:21Z</time>
      </trkpt>
      <trkpt lat="43.98722" lon="7.2597">
        <ele>972.99</ele>
        <time>2014-03-02T08:48:27Z</time>
      </trkpt>
      <trkpt lat="43.98729" lon="7.25978">
        <ele>972.51</ele>
        <time>2014-03-02T08:48:36Z</time>
      </trkpt>
      <trkpt lat="43.9874" lon="7.25988">
        <ele>971.07</ele>
        <time>2014-03-02T08:48:49Z</time>
      </trkpt>
      <trkpt lat="43.98749" lon="7.25995">
        <ele>971.07</ele>
        <time>2014-03-02T08:49:01Z</time>
      </trkpt>
      <trkpt lat="43.98758" lon="7.26003">
        <ele>970.11</ele>
        <time>2014-03-02T08:49:14Z</time>
      </trkpt>
      <trkpt lat="43.98767" lon="7.26011">
        <ele>969.63</ele>
        <time>2014-03-02T08:49:23Z</time>
      </trkpt>
      <trkpt lat="43.98779" lon="7.26019">
        <ele>969.63</ele>
        <time>2014-03-02T08:49:35Z</time>
      </trkpt>
      <trkpt lat="43.98785" lon="7.26025">
        <ele>971.07</ele>
        <time>2014-03-02T08:49:43Z</time>
      </trkpt>
      <trkpt lat="43.98787" lon="7.26029">
        <ele>972.03</ele>
        <time>2014-03-02T08:49:47Z</time>
      </trkpt>
      <trkpt lat="43.98795" lon="7.2604">
        <ele>969.15</ele>
        <time>2014-03-02T08:50:00Z</time>
      </trkpt>
      <trkpt lat="43.98807" lon="7.26047">
        <ele>966.74</ele>
        <time>2014-03-02T08:50:13Z</time>
      </trkpt>
      <trkpt lat="43.98814" lon="7.2606">
        <ele>966.26</ele>
        <time>2014-03-02T08:50:23Z</time>
      </trkpt>
      <trkpt lat="43.98817" lon="7.2607">
        <ele>965.3</ele>
        <time>2014-03-02T08:50:32Z</time>
      </trkpt>
      <trkpt lat="43.98828" lon="7.26082">
        <ele>967.22</ele>
        <time>2014-03-02T08:50:45Z</time>
      </trkpt>
      <trkpt lat="43.98831" lon="7.26082">
        <ele>968.18</ele>
        <time>2014-03-02T08:50:47Z</time>
      </trkpt>
      <trkpt lat="43.9885" lon="7.26088">
        <ele>978.28</ele>
        <time>2014-03-02T08:51:03Z</time>
      </trkpt>
      <trkpt lat="43.98863" lon="7.26091">
        <ele>978.28</ele>
        <time>2014-03-02T08:51:16Z</time>
      </trkpt>
      <trkpt lat="43.98867" lon="7.26092">
        <ele>979.24</ele>
        <time>2014-03-02T08:51:21Z</time>
      </trkpt>
      <trkpt lat="43.98875" lon="7.26093">
        <ele>980.2</ele>
        <time>2014-03-02T08:51:31Z</time>
      </trkpt>
      <trkpt lat="43.98884" lon="7.26098">
        <ele>983.09</ele>
        <time>2014-03-02T08:51:40Z</time>
      </trkpt>
      <trkpt lat="43.98899" lon="7.26096">
        <ele>985.01</ele>
        <time>2014-03-02T08:51:54Z</time>
      </trkpt>
      <trkpt lat="43.9891" lon="7.26102">
        <ele>985.97</ele>
        <time>2014-03-02T08:52:07Z</time>
      </trkpt>
      <trkpt lat="43.98911" lon="7.26102">
        <ele>985.97</ele>
        <time>2014-03-02T08:52:08Z</time>
      </trkpt>
      <trkpt lat="43.98921" lon="7.26099">
        <ele>986.45</ele>
        <time>2014-03-02T08:52:17Z</time>
      </trkpt>
      <trkpt lat="43.98927" lon="7.26095">
        <ele>987.89</ele>
        <time>2014-03-02T08:52:23Z</time>
      </trkpt>
      <trkpt lat="43.98939" lon="7.26083">
        <ele>995.1</ele>
        <time>2014-03-02T08:52:35Z</time>
      </trkpt>
      <trkpt lat="43.98943" lon="7.26081">
        <ele>995.1</ele>
        <time>2014-03-02T08:52:40Z</time>
      </trkpt>
      <trkpt lat="43.98946" lon="7.26081">
        <ele>996.06</ele>
        <time>2014-03-02T08:52:43Z</time>
      </trkpt>
      <trkpt lat="43.98951" lon="7.26079">
        <ele>995.58</ele>
        <time>2014-03-02T08:52:48Z</time>
      </trkpt>
      <trkpt lat="43.98954" lon="7.26079">
        <ele>996.06</ele>
        <time>2014-03-02T08:52:51Z</time>
      </trkpt>
      <trkpt lat="43.98964" lon="7.2608">
        <ele>998.95</ele>
        <time>2014-03-02T08:53:01Z</time>
      </trkpt>
      <trkpt lat="43.98969" lon="7.26089">
        <ele>1000.39</ele>
        <time>2014-03-02T08:53:08Z</time>
      </trkpt>
      <trkpt lat="43.98975" lon="7.26095">
        <ele>1000.87</ele>
        <time>2014-03-02T08:53:15Z</time>
      </trkpt>
      <trkpt lat="43.98978" lon="7.26096">
        <ele>1000.87</ele>
        <time>2014-03-02T08:53:20Z</time>
      </trkpt>
      <trkpt lat="43.98986" lon="7.26095">
        <ele>1001.83</ele>
        <time>2014-03-02T08:53:26Z</time>
      </trkpt>
      <trkpt lat="43.98991" lon="7.26093">
        <ele>1001.83</ele>
        <time>2014-03-02T08:53:30Z</time>
      </trkpt>
      <trkpt lat="43.98998" lon="7.26083">
        <ele>1002.79</ele>
        <time>2014-03-02T08:53:37Z</time>
      </trkpt>
      <trkpt lat="43.99006" lon="7.26081">
        <ele>1003.27</ele>
        <time>2014-03-02T08:53:43Z</time>
      </trkpt>
      <trkpt lat="43.9901" lon="7.2608">
        <ele>1003.27</ele>
        <time>2014-03-02T08:53:47Z</time>
      </trkpt>
      <trkpt lat="43.99017" lon="7.26082">
        <ele>1004.72</ele>
        <time>2014-03-02T08:53:54Z</time>
      </trkpt>
      <trkpt lat="43.99027" lon="7.26087">
        <ele>1008.08</ele>
        <time>2014-03-02T08:54:05Z</time>
      </trkpt>
      <trkpt lat="43.99034" lon="7.26081">
        <ele>1011.44</ele>
        <time>2014-03-02T08:54:16Z</time>
      </trkpt>
      <trkpt lat="43.99038" lon="7.26072">
        <ele>1010</ele>
        <time>2014-03-02T08:54:23Z</time>
      </trkpt>
      <trkpt lat="43.99036" lon="7.26053">
        <ele>1008.08</ele>
        <time>2014-03-02T08:54:35Z</time>
      </trkpt>
      <trkpt lat="43.99036" lon="7.26048">
        <ele>1007.6</ele>
        <time>2014-03-02T08:54:37Z</time>
      </trkpt>
      <trkpt lat="43.99035" lon="7.26038">
        <ele>1005.68</ele>
        <time>2014-03-02T08:54:42Z</time>
      </trkpt>
      <trkpt lat="43.99028" lon="7.26022">
        <ele>1003.27</ele>
        <time>2014-03-02T08:54:55Z</time>
      </trkpt>
      <trkpt lat="43.99027" lon="7.26019">
        <ele>1002.79</ele>
        <time>2014-03-02T08:54:57Z</time>
      </trkpt>
      <trkpt lat="43.99026" lon="7.26017">
        <ele>1001.83</ele>
        <time>2014-03-02T08:54:59Z</time>
      </trkpt>
      <trkpt lat="43.99022" lon="7.25997">
        <ele>1001.35</ele>
        <time>2014-03-02T08:55:13Z</time>
      </trkpt>
      <trkpt lat="43.99022" lon="7.25995">
        <ele>1000.87</ele>
        <time>2014-03-02T08:55:15Z</time>
      </trkpt>
      <trkpt lat="43.99023" lon="7.25985">
        <ele>1001.35</ele>
        <time>2014-03-02T08:55:21Z</time>
      </trkpt>
      <trkpt lat="43.99024" lon="7.25979">
        <ele>1002.79</ele>
        <time>2014-03-02T08:55:25Z</time>
      </trkpt>
      <trkpt lat="43.99025" lon="7.25976">
        <ele>1003.27</ele>
        <time>2014-03-02T08:55:27Z</time>
      </trkpt>
      <trkpt lat="43.99027" lon="7.25971">
        <ele>1005.2</ele>
        <time>2014-03-02T08:55:31Z</time>
      </trkpt>
      <trkpt lat="43.99033" lon="7.25952">
        <ele>1007.12</ele>
        <time>2014-03-02T08:55:44Z</time>
      </trkpt>
      <trkpt lat="43.99034" lon="7.25948">
        <ele>1008.08</ele>
        <time>2014-03-02T08:55:48Z</time>
      </trkpt>
      <trkpt lat="43.99035" lon="7.25945">
        <ele>1008.08</ele>
        <time>2014-03-02T08:55:50Z</time>
      </trkpt>
      <trkpt lat="43.99036" lon="7.25941">
        <ele>1009.52</ele>
        <time>2014-03-02T08:55:54Z</time>
      </trkpt>
      <trkpt lat="43.99037" lon="7.25936">
        <ele>1010</ele>
        <time>2014-03-02T08:55:57Z</time>
      </trkpt>
      <trkpt lat="43.99038" lon="7.25934">
        <ele>1010</ele>
        <time>2014-03-02T08:55:59Z</time>
      </trkpt>
      <trkpt lat="43.99039" lon="7.25925">
        <ele>1010.96</ele>
        <time>2014-03-02T08:56:12Z</time>
      </trkpt>
      <trkpt lat="43.99041" lon="7.25919">
        <ele>1012.41</ele>
        <time>2014-03-02T08:56:19Z</time>
      </trkpt>
      <trkpt lat="43.99041" lon="7.25905">
        <ele>1013.85</ele>
        <time>2014-03-02T08:56:30Z</time>
      </trkpt>
      <trkpt lat="43.99041" lon="7.25902">
        <ele>1013.85</ele>
        <time>2014-03-02T08:56:32Z</time>
      </trkpt>
      <trkpt lat="43.99039" lon="7.25888">
        <ele>1013.85</ele>
        <time>2014-03-02T08:56:42Z</time>
      </trkpt>
      <trkpt lat="43.99035" lon="7.25872">
        <ele>1016.73</ele>
        <time>2014-03-02T08:56:53Z</time>
      </trkpt>
      <trkpt lat="43.99034" lon="7.25863">
        <ele>1018.17</ele>
        <time>2014-03-02T08:57:00Z</time>
      </trkpt>
      <trkpt lat="43.99035" lon="7.25854">
        <ele>1020.1</ele>
        <time>2014-03-02T08:57:07Z</time>
      </trkpt>
      <trkpt lat="43.99038" lon="7.25844">
        <ele>1021.54</ele>
        <time>2014-03-02T08:57:16Z</time>
      </trkpt>
      <trkpt lat="43.99038" lon="7.25841">
        <ele>1022.02</ele>
        <time>2014-03-02T08:57:18Z</time>
      </trkpt>
      <trkpt lat="43.99042" lon="7.25825">
        <ele>1024.9</ele>
        <time>2014-03-02T08:57:30Z</time>
      </trkpt>
      <trkpt lat="43.99042" lon="7.25824">
        <ele>1024.9</ele>
        <time>2014-03-02T08:57:31Z</time>
      </trkpt>
      <trkpt lat="43.99042" lon="7.2582">
        <ele>1024.9</ele>
        <time>2014-03-02T08:57:34Z</time>
      </trkpt>
      <trkpt lat="43.99039" lon="7.25808">
        <ele>1025.86</ele>
        <time>2014-03-02T08:57:43Z</time>
      </trkpt>
      <trkpt lat="43.99038" lon="7.25803">
        <ele>1026.83</ele>
        <time>2014-03-02T08:57:48Z</time>
      </trkpt>
      <trkpt lat="43.99036" lon="7.25794">
        <ele>1026.34</ele>
        <time>2014-03-02T08:57:55Z</time>
      </trkpt>
      <trkpt lat="43.99036" lon="7.25778">
        <ele>1027.31</ele>
        <time>2014-03-02T08:58:09Z</time>
      </trkpt>
      <trkpt lat="43.99036" lon="7.25771">
        <ele>1028.27</ele>
        <time>2014-03-02T08:58:16Z</time>
      </trkpt>
      <trkpt lat="43.99037" lon="7.25762">
        <ele>1028.75</ele>
        <time>2014-03-02T08:58:22Z</time>
      </trkpt>
      <trkpt lat="43.99038" lon="7.25755">
        <ele>1028.75</ele>
        <time>2014-03-02T08:58:27Z</time>
      </trkpt>
      <trkpt lat="43.99039" lon="7.25741">
        <ele>1031.15</ele>
        <time>2014-03-02T08:58:38Z</time>
      </trkpt>
      <trkpt lat="43.99038" lon="7.25731">
        <ele>1032.59</ele>
        <time>2014-03-02T08:58:45Z</time>
      </trkpt>
      <trkpt lat="43.99038" lon="7.25727">
        <ele>1033.55</ele>
        <time>2014-03-02T08:58:48Z</time>
      </trkpt>
      <trkpt lat="43.99038" lon="7.2572">
        <ele>1034.04</ele>
        <time>2014-03-02T08:58:52Z</time>
      </trkpt>
      <trkpt lat="43.99037" lon="7.25708">
        <ele>1035</ele>
        <time>2014-03-02T08:59:01Z</time>
      </trkpt>
      <trkpt lat="43.99041" lon="7.2569">
        <ele>1035.48</ele>
        <time>2014-03-02T08:59:15Z</time>
      </trkpt>
      <trkpt lat="43.99041" lon="7.25688">
        <ele>1035.96</ele>
        <time>2014-03-02T08:59:17Z</time>
      </trkpt>
      <trkpt lat="43.99043" lon="7.25686">
        <ele>1036.44</ele>
        <time>2014-03-02T08:59:19Z</time>
      </trkpt>
      <trkpt lat="43.99051" lon="7.25673">
        <ele>1038.36</ele>
        <time>2014-03-02T08:59:31Z</time>
      </trkpt>
      <trkpt lat="43.99053" lon="7.2567">
        <ele>1038.36</ele>
        <time>2014-03-02T08:59:34Z</time>
      </trkpt>
      <trkpt lat="43.99054" lon="7.25668">
        <ele>1038.36</ele>
        <time>2014-03-02T08:59:36Z</time>
      </trkpt>
      <trkpt lat="43.99058" lon="7.25664">
        <ele>1038.84</ele>
        <time>2014-03-02T08:59:41Z</time>
      </trkpt>
      <trkpt lat="43.99069" lon="7.25656">
        <ele>1040.28</ele>
        <time>2014-03-02T08:59:54Z</time>
      </trkpt>
      <trkpt lat="43.99075" lon="7.25654">
        <ele>1039.8</ele>
        <time>2014-03-02T08:59:59Z</time>
      </trkpt>
      <trkpt lat="43.99089" lon="7.25661">
        <ele>1039.8</ele>
        <time>2014-03-02T09:00:13Z</time>
      </trkpt>
      <trkpt lat="43.99093" lon="7.25663">
        <ele>1039.8</ele>
        <time>2014-03-02T09:00:17Z</time>
      </trkpt>
      <trkpt lat="43.99102" lon="7.25664">
        <ele>1039.8</ele>
        <time>2014-03-02T09:00:24Z</time>
      </trkpt>
      <trkpt lat="43.99105" lon="7.25666">
        <ele>1039.8</ele>
        <time>2014-03-02T09:00:27Z</time>
      </trkpt>
      <trkpt lat="43.9911" lon="7.25669">
        <ele>1039.8</ele>
        <time>2014-03-02T09:00:32Z</time>
      </trkpt>
      <trkpt lat="43.99116" lon="7.25672">
        <ele>1039.8</ele>
        <time>2014-03-02T09:00:41Z</time>
      </trkpt>
      <trkpt lat="43.99125" lon="7.2567">
        <ele>1040.76</ele>
        <time>2014-03-02T09:00:48Z</time>
      </trkpt>
      <trkpt lat="43.99131" lon="7.25668">
        <ele>1041.25</ele>
        <time>2014-03-02T09:00:53Z</time>
      </trkpt>
      <trkpt lat="43.99135" lon="7.25667">
        <ele>1041.73</ele>
        <time>2014-03-02T09:00:56Z</time>
      </trkpt>
      <trkpt lat="43.99141" lon="7.25667">
        <ele>1042.21</ele>
        <time>2014-03-02T09:01:01Z</time>
      </trkpt>
      <trkpt lat="43.99151" lon="7.25668">
        <ele>1043.17</ele>
        <time>2014-03-02T09:01:09Z</time>
      </trkpt>
      <trkpt lat="43.99165" lon="7.25668">
        <ele>1044.61</ele>
        <time>2014-03-02T09:01:20Z</time>
      </trkpt>
      <trkpt lat="43.99178" lon="7.25665">
        <ele>1044.61</ele>
        <time>2014-03-02T09:01:33Z</time>
      </trkpt>
      <trkpt lat="43.99189" lon="7.25655">
        <ele>1043.65</ele>
        <time>2014-03-02T09:01:43Z</time>
      </trkpt>
      <trkpt lat="43.99192" lon="7.25653">
        <ele>1044.13</ele>
        <time>2014-03-02T09:01:45Z</time>
      </trkpt>
      <trkpt lat="43.99202" lon="7.25648">
        <ele>1045.09</ele>
        <time>2014-03-02T09:01:55Z</time>
      </trkpt>
      <trkpt lat="43.99218" lon="7.25642">
        <ele>1042.69</ele>
        <time>2014-03-02T09:02:08Z</time>
      </trkpt>
      <trkpt lat="43.99229" lon="7.25639">
        <ele>1040.28</ele>
        <time>2014-03-02T09:02:19Z</time>
      </trkpt>
      <trkpt lat="43.99231" lon="7.2564">
        <ele>1040.28</ele>
        <time>2014-03-02T09:02:21Z</time>
      </trkpt>
      <trkpt lat="43.99236" lon="7.25638">
        <ele>1039.8</ele>
        <time>2014-03-02T09:02:27Z</time>
      </trkpt>
      <trkpt lat="43.99242" lon="7.25634">
        <ele>1037.88</ele>
        <time>2014-03-02T09:02:36Z</time>
      </trkpt>
      <trkpt lat="43.99249" lon="7.2563">
        <ele>1037.88</ele>
        <time>2014-03-02T09:02:45Z</time>
      </trkpt>
      <trkpt lat="43.99253" lon="7.25628">
        <ele>1037.88</ele>
        <time>2014-03-02T09:02:48Z</time>
      </trkpt>
      <trkpt lat="43.99262" lon="7.25618">
        <ele>1039.32</ele>
        <time>2014-03-02T09:02:55Z</time>
      </trkpt>
      <trkpt lat="43.99266" lon="7.25614">
        <ele>1041.25</ele>
        <time>2014-03-02T09:02:59Z</time>
      </trkpt>
      <trkpt lat="43.99272" lon="7.25614">
        <ele>1043.17</ele>
        <time>2014-03-02T09:03:05Z</time>
      </trkpt>
      <trkpt lat="43.99278" lon="7.25608">
        <ele>1041.25</ele>
        <time>2014-03-02T09:03:13Z</time>
      </trkpt>
      <trkpt lat="43.99286" lon="7.25593">
        <ele>1042.21</ele>
        <time>2014-03-02T09:03:23Z</time>
      </trkpt>
      <trkpt lat="43.99289" lon="7.2559">
        <ele>1043.65</ele>
        <time>2014-03-02T09:03:39Z</time>
      </trkpt>
      <trkpt lat="43.99289" lon="7.25589">
        <ele>1044.61</ele>
        <time>2014-03-02T09:04:04Z</time>
      </trkpt>
      <trkpt lat="43.9929" lon="7.25589">
        <ele>1047.01</ele>
        <time>2014-03-02T09:04:27Z</time>
      </trkpt>
      <trkpt lat="43.99292" lon="7.25589">
        <ele>1047.97</ele>
        <time>2014-03-02T09:04:55Z</time>
      </trkpt>
      <trkpt lat="43.99299" lon="7.25589">
        <ele>1047.01</ele>
        <time>2014-03-02T09:05:06Z</time>
      </trkpt>
      <trkpt lat="43.99304" lon="7.25594">
        <ele>1047.97</ele>
        <time>2014-03-02T09:05:17Z</time>
      </trkpt>
      <trkpt lat="43.99311" lon="7.25595">
        <ele>1048.94</ele>
        <time>2014-03-02T09:05:28Z</time>
      </trkpt>
      <trkpt lat="43.99318" lon="7.25588">
        <ele>1055.67</ele>
        <time>2014-03-02T09:05:39Z</time>
      </trkpt>
      <trkpt lat="43.99323" lon="7.25577">
        <ele>1060.47</ele>
        <time>2014-03-02T09:05:52Z</time>
      </trkpt>
      <trkpt lat="43.9933" lon="7.25564">
        <ele>1061.91</ele>
        <time>2014-03-02T09:06:05Z</time>
      </trkpt>
      <trkpt lat="43.99335" lon="7.25557">
        <ele>1063.36</ele>
        <time>2014-03-02T09:06:16Z</time>
      </trkpt>
      <trkpt lat="43.99338" lon="7.25553">
        <ele>1063.84</ele>
        <time>2014-03-02T09:06:21Z</time>
      </trkpt>
      <trkpt lat="43.99345" lon="7.25546">
        <ele>1066.24</ele>
        <time>2014-03-02T09:06:33Z</time>
      </trkpt>
      <trkpt lat="43.9935" lon="7.25544">
        <ele>1067.2</ele>
        <time>2014-03-02T09:06:44Z</time>
      </trkpt>
      <trkpt lat="43.99356" lon="7.25543">
        <ele>1068.64</ele>
        <time>2014-03-02T09:06:55Z</time>
      </trkpt>
      <trkpt lat="43.99361" lon="7.25544">
        <ele>1069.12</ele>
        <time>2014-03-02T09:07:01Z</time>
      </trkpt>
      <trkpt lat="43.9937" lon="7.25551">
        <ele>1072.49</ele>
        <time>2014-03-02T09:07:15Z</time>
      </trkpt>
      <trkpt lat="43.99364" lon="7.25558">
        <ele>1075.85</ele>
        <time>2014-03-02T09:07:27Z</time>
      </trkpt>
      <trkpt lat="43.99363" lon="7.25562">
        <ele>1078.74</ele>
        <time>2014-03-02T09:07:39Z</time>
      </trkpt>
      <trkpt lat="43.99371" lon="7.25562">
        <ele>1079.7</ele>
        <time>2014-03-02T09:07:54Z</time>
      </trkpt>
      <trkpt lat="43.99379" lon="7.25564">
        <ele>1082.58</ele>
        <time>2014-03-02T09:08:07Z</time>
      </trkpt>
      <trkpt lat="43.99383" lon="7.2557">
        <ele>1083.54</ele>
        <time>2014-03-02T09:08:20Z</time>
      </trkpt>
      <trkpt lat="43.99392" lon="7.25576">
        <ele>1084.5</ele>
        <time>2014-03-02T09:08:31Z</time>
      </trkpt>
      <trkpt lat="43.99394" lon="7.25578">
        <ele>1086.43</ele>
        <time>2014-03-02T09:08:46Z</time>
      </trkpt>
      <trkpt lat="43.99397" lon="7.2558">
        <ele>1086.91</ele>
        <time>2014-03-02T09:09:05Z</time>
      </trkpt>
      <trkpt lat="43.99402" lon="7.25584">
        <ele>1088.83</ele>
        <time>2014-03-02T09:09:25Z</time>
      </trkpt>
      <trkpt lat="43.99406" lon="7.25588">
        <ele>1089.79</ele>
        <time>2014-03-02T09:09:32Z</time>
      </trkpt>
      <trkpt lat="43.99412" lon="7.25575">
        <ele>1093.16</ele>
        <time>2014-03-02T09:09:42Z</time>
      </trkpt>
      <trkpt lat="43.99414" lon="7.25566">
        <ele>1093.64</ele>
        <time>2014-03-02T09:09:51Z</time>
      </trkpt>
      <trkpt lat="43.99413" lon="7.25552">
        <ele>1097.48</ele>
        <time>2014-03-02T09:10:04Z</time>
      </trkpt>
      <trkpt lat="43.99412" lon="7.2554">
        <ele>1100.37</ele>
        <time>2014-03-02T09:10:15Z</time>
      </trkpt>
      <trkpt lat="43.99412" lon="7.25539">
        <ele>1100.85</ele>
        <time>2014-03-02T09:10:16Z</time>
      </trkpt>
      <trkpt lat="43.99412" lon="7.25533">
        <ele>1101.81</ele>
        <time>2014-03-02T09:10:20Z</time>
      </trkpt>
      <trkpt lat="43.99415" lon="7.25519">
        <ele>1103.25</ele>
        <time>2014-03-02T09:10:34Z</time>
      </trkpt>
      <trkpt lat="43.99416" lon="7.25516">
        <ele>1103.73</ele>
        <time>2014-03-02T09:10:37Z</time>
      </trkpt>
      <trkpt lat="43.99419" lon="7.25504">
        <ele>1105.17</ele>
        <time>2014-03-02T09:10:50Z</time>
      </trkpt>
      <trkpt lat="43.99423" lon="7.25497">
        <ele>1108.06</ele>
        <time>2014-03-02T09:11:02Z</time>
      </trkpt>
      <trkpt lat="43.99424" lon="7.25507">
        <ele>1109.98</ele>
        <time>2014-03-02T09:11:14Z</time>
      </trkpt>
      <trkpt lat="43.99428" lon="7.255">
        <ele>1111.42</ele>
        <time>2014-03-02T09:11:25Z</time>
      </trkpt>
      <trkpt lat="43.99434" lon="7.25493">
        <ele>1113.82</ele>
        <time>2014-03-02T09:11:37Z</time>
      </trkpt>
      <trkpt lat="43.99439" lon="7.25487">
        <ele>1116.23</ele>
        <time>2014-03-02T09:11:50Z</time>
      </trkpt>
      <trkpt lat="43.99444" lon="7.25488">
        <ele>1118.15</ele>
        <time>2014-03-02T09:12:02Z</time>
      </trkpt>
      <trkpt lat="43.99444" lon="7.25496">
        <ele>1120.07</ele>
        <time>2014-03-02T09:12:13Z</time>
      </trkpt>
      <trkpt lat="43.99445" lon="7.25507">
        <ele>1122.96</ele>
        <time>2014-03-02T09:12:27Z</time>
      </trkpt>
      <trkpt lat="43.99446" lon="7.25514">
        <ele>1124.88</ele>
        <time>2014-03-02T09:12:39Z</time>
      </trkpt>
      <trkpt lat="43.99448" lon="7.25508">
        <ele>1125.84</ele>
        <time>2014-03-02T09:12:48Z</time>
      </trkpt>
      <trkpt lat="43.99452" lon="7.25496">
        <ele>1124.4</ele>
        <time>2014-03-02T09:13:01Z</time>
      </trkpt>
      <trkpt lat="43.99455" lon="7.25494">
        <ele>1124.88</ele>
        <time>2014-03-02T09:13:19Z</time>
      </trkpt>
      <trkpt lat="43.99455" lon="7.25492">
        <ele>1124.88</ele>
        <time>2014-03-02T09:13:47Z</time>
      </trkpt>
      <trkpt lat="43.99454" lon="7.25492">
        <ele>1124.88</ele>
        <time>2014-03-02T09:14:08Z</time>
      </trkpt>
      <trkpt lat="43.99455" lon="7.25491">
        <ele>1128.24</ele>
        <time>2014-03-02T09:14:43Z</time>
      </trkpt>
      <trkpt lat="43.99456" lon="7.25491">
        <ele>1129.69</ele>
        <time>2014-03-02T09:15:13Z</time>
      </trkpt>
      <trkpt lat="43.99458" lon="7.2549">
        <ele>1129.21</ele>
        <time>2014-03-02T09:15:29Z</time>
      </trkpt>
      <trkpt lat="43.99463" lon="7.25485">
        <ele>1129.21</ele>
        <time>2014-03-02T09:15:40Z</time>
      </trkpt>
      <trkpt lat="43.99464" lon="7.25495">
        <ele>1131.61</ele>
        <time>2014-03-02T09:15:53Z</time>
      </trkpt>
      <trkpt lat="43.99464" lon="7.25506">
        <ele>1133.53</ele>
        <time>2014-03-02T09:16:07Z</time>
      </trkpt>
      <trkpt lat="43.99466" lon="7.25506">
        <ele>1134.01</ele>
        <time>2014-03-02T09:16:21Z</time>
      </trkpt>
      <trkpt lat="43.99465" lon="7.25505">
        <ele>1135.45</ele>
        <time>2014-03-02T09:16:50Z</time>
      </trkpt>
      <trkpt lat="43.99465" lon="7.25505">
        <ele>1136.42</ele>
        <time>2014-03-02T09:17:21Z</time>
      </trkpt>
      <trkpt lat="43.99466" lon="7.25504">
        <ele>1136.42</ele>
        <time>2014-03-02T09:17:53Z</time>
      </trkpt>
      <trkpt lat="43.99466" lon="7.25504">
        <ele>1137.38</ele>
        <time>2014-03-02T09:18:28Z</time>
      </trkpt>
      <trkpt lat="43.99465" lon="7.25505">
        <ele>1137.86</ele>
        <time>2014-03-02T09:18:51Z</time>
      </trkpt>
      <trkpt lat="43.99465" lon="7.25505">
        <ele>1137.86</ele>
        <time>2014-03-02T09:19:17Z</time>
      </trkpt>
      <trkpt lat="43.99467" lon="7.25503">
        <ele>1137.38</ele>
        <time>2014-03-02T09:19:35Z</time>
      </trkpt>
      <trkpt lat="43.99472" lon="7.25492">
        <ele>1139.3</ele>
        <time>2014-03-02T09:19:47Z</time>
      </trkpt>
      <trkpt lat="43.99478" lon="7.25482">
        <ele>1142.18</ele>
        <time>2014-03-02T09:20:02Z</time>
      </trkpt>
      <trkpt lat="43.99483" lon="7.25481">
        <ele>1144.59</ele>
        <time>2014-03-02T09:20:16Z</time>
      </trkpt>
      <trkpt lat="43.99484" lon="7.25488">
        <ele>1147.47</ele>
        <time>2014-03-02T09:20:30Z</time>
      </trkpt>
      <trkpt lat="43.99491" lon="7.2548">
        <ele>1148.91</ele>
        <time>2014-03-02T09:20:44Z</time>
      </trkpt>
      <trkpt lat="43.99495" lon="7.25476">
        <ele>1148.43</ele>
        <time>2014-03-02T09:20:50Z</time>
      </trkpt>
      <trkpt lat="43.99497" lon="7.25473">
        <ele>1147.95</ele>
        <time>2014-03-02T09:20:53Z</time>
      </trkpt>
      <trkpt lat="43.99497" lon="7.25471">
        <ele>1147.47</ele>
        <time>2014-03-02T09:20:55Z</time>
      </trkpt>
      <trkpt lat="43.99498" lon="7.25467">
        <ele>1147.47</ele>
        <time>2014-03-02T09:20:58Z</time>
      </trkpt>
      <trkpt lat="43.99504" lon="7.25456">
        <ele>1148.91</ele>
        <time>2014-03-02T09:21:08Z</time>
      </trkpt>
      <trkpt lat="43.99507" lon="7.25452">
        <ele>1148.91</ele>
        <time>2014-03-02T09:21:11Z</time>
      </trkpt>
      <trkpt lat="43.99509" lon="7.25449">
        <ele>1148.43</ele>
        <time>2014-03-02T09:21:14Z</time>
      </trkpt>
      <trkpt lat="43.99519" lon="7.25443">
        <ele>1148.43</ele>
        <time>2014-03-02T09:21:26Z</time>
      </trkpt>
      <trkpt lat="43.99529" lon="7.25438">
        <ele>1148.91</ele>
        <time>2014-03-02T09:21:36Z</time>
      </trkpt>
      <trkpt lat="43.99541" lon="7.25427">
        <ele>1148.43</ele>
        <time>2014-03-02T09:21:49Z</time>
      </trkpt>
      <trkpt lat="43.99548" lon="7.25423">
        <ele>1148.43</ele>
        <time>2014-03-02T09:21:56Z</time>
      </trkpt>
      <trkpt lat="43.99551" lon="7.25419">
        <ele>1149.39</ele>
        <time>2014-03-02T09:22:00Z</time>
      </trkpt>
      <trkpt lat="43.99561" lon="7.2541">
        <ele>1151.32</ele>
        <time>2014-03-02T09:22:12Z</time>
      </trkpt>
      <trkpt lat="43.99562" lon="7.25408">
        <ele>1151.8</ele>
        <time>2014-03-02T09:22:19Z</time>
      </trkpt>
      <trkpt lat="43.99564" lon="7.25407">
        <ele>1152.28</ele>
        <time>2014-03-02T09:22:22Z</time>
      </trkpt>
      <trkpt lat="43.99566" lon="7.25406">
        <ele>1152.28</ele>
        <time>2014-03-02T09:22:24Z</time>
      </trkpt>
      <trkpt lat="43.99577" lon="7.25397">
        <ele>1154.2</ele>
        <time>2014-03-02T09:22:35Z</time>
      </trkpt>
      <trkpt lat="43.99583" lon="7.25396">
        <ele>1154.68</ele>
        <time>2014-03-02T09:22:42Z</time>
      </trkpt>
      <trkpt lat="43.99591" lon="7.25397">
        <ele>1155.16</ele>
        <time>2014-03-02T09:22:52Z</time>
      </trkpt>
      <trkpt lat="43.99601" lon="7.25396">
        <ele>1156.6</ele>
        <time>2014-03-02T09:23:01Z</time>
      </trkpt>
      <trkpt lat="43.99614" lon="7.25395">
        <ele>1160.93</ele>
        <time>2014-03-02T09:23:14Z</time>
      </trkpt>
      <trkpt lat="43.9962" lon="7.25396">
        <ele>1164.29</ele>
        <time>2014-03-02T09:23:25Z</time>
      </trkpt>
      <trkpt lat="43.9963" lon="7.25399">
        <ele>1167.18</ele>
        <time>2014-03-02T09:23:38Z</time>
      </trkpt>
      <trkpt lat="43.99635" lon="7.25398">
        <ele>1168.62</ele>
        <time>2014-03-02T09:23:50Z</time>
      </trkpt>
      <trkpt lat="43.99638" lon="7.25395">
        <ele>1170.06</ele>
        <time>2014-03-02T09:24:02Z</time>
      </trkpt>
      <trkpt lat="43.99641" lon="7.25388">
        <ele>1168.62</ele>
        <time>2014-03-02T09:24:14Z</time>
      </trkpt>
      <trkpt lat="43.99643" lon="7.25384">
        <ele>1168.14</ele>
        <time>2014-03-02T09:24:30Z</time>
      </trkpt>
      <trkpt lat="43.99647" lon="7.2538">
        <ele>1168.14</ele>
        <time>2014-03-02T09:24:44Z</time>
      </trkpt>
      <trkpt lat="43.99645" lon="7.25373">
        <ele>1170.06</ele>
        <time>2014-03-02T09:24:58Z</time>
      </trkpt>
      <trkpt lat="43.99643" lon="7.25361">
        <ele>1170.06</ele>
        <time>2014-03-02T09:25:12Z</time>
      </trkpt>
      <trkpt lat="43.99644" lon="7.2535">
        <ele>1171.98</ele>
        <time>2014-03-02T09:25:27Z</time>
      </trkpt>
      <trkpt lat="43.99644" lon="7.25343">
        <ele>1174.87</ele>
        <time>2014-03-02T09:25:41Z</time>
      </trkpt>
      <trkpt lat="43.99644" lon="7.25332">
        <ele>1177.75</ele>
        <time>2014-03-02T09:25:55Z</time>
      </trkpt>
      <trkpt lat="43.9964" lon="7.25322">
        <ele>1183.52</ele>
        <time>2014-03-02T09:26:10Z</time>
      </trkpt>
      <trkpt lat="43.99639" lon="7.25315">
        <ele>1184</ele>
        <time>2014-03-02T09:26:21Z</time>
      </trkpt>
      <trkpt lat="43.99638" lon="7.2531">
        <ele>1184.96</ele>
        <time>2014-03-02T09:26:33Z</time>
      </trkpt>
      <trkpt lat="43.99637" lon="7.25307">
        <ele>1185.44</ele>
        <time>2014-03-02T09:26:35Z</time>
      </trkpt>
      <trkpt lat="43.99629" lon="7.25297">
        <ele>1191.69</ele>
        <time>2014-03-02T09:26:48Z</time>
      </trkpt>
      <trkpt lat="43.99628" lon="7.25297">
        <ele>1192.17</ele>
        <time>2014-03-02T09:26:49Z</time>
      </trkpt>
      <trkpt lat="43.9962" lon="7.2529">
        <ele>1196.98</ele>
        <time>2014-03-02T09:26:59Z</time>
      </trkpt>
      <trkpt lat="43.99614" lon="7.25284">
        <ele>1197.46</ele>
        <time>2014-03-02T09:27:09Z</time>
      </trkpt>
      <trkpt lat="43.9961" lon="7.25283">
        <ele>1198.42</ele>
        <time>2014-03-02T09:27:14Z</time>
      </trkpt>
      <trkpt lat="43.99602" lon="7.25279">
        <ele>1202.75</ele>
        <time>2014-03-02T09:27:27Z</time>
      </trkpt>
      <trkpt lat="43.99598" lon="7.25274">
        <ele>1204.19</ele>
        <time>2014-03-02T09:27:39Z</time>
      </trkpt>
      <trkpt lat="43.99598" lon="7.25273">
        <ele>1203.71</ele>
        <time>2014-03-02T09:27:59Z</time>
      </trkpt>
      <trkpt lat="43.99599" lon="7.25274">
        <ele>1201.3</ele>
        <time>2014-03-02T09:28:26Z</time>
      </trkpt>
      <trkpt lat="43.99598" lon="7.25271">
        <ele>1197.94</ele>
        <time>2014-03-02T09:28:43Z</time>
      </trkpt>
      <trkpt lat="43.99595" lon="7.2526">
        <ele>1196.02</ele>
        <time>2014-03-02T09:28:53Z</time>
      </trkpt>
      <trkpt lat="43.99591" lon="7.25247">
        <ele>1195.06</ele>
        <time>2014-03-02T09:29:04Z</time>
      </trkpt>
      <trkpt lat="43.99583" lon="7.25227">
        <ele>1194.09</ele>
        <time>2014-03-02T09:29:21Z</time>
      </trkpt>
      <trkpt lat="43.99582" lon="7.25226">
        <ele>1194.09</ele>
        <time>2014-03-02T09:29:22Z</time>
      </trkpt>
      <trkpt lat="43.9958" lon="7.2522">
        <ele>1194.58</ele>
        <time>2014-03-02T09:29:26Z</time>
      </trkpt>
      <trkpt lat="43.99575" lon="7.25215">
        <ele>1196.02</ele>
        <time>2014-03-02T09:29:34Z</time>
      </trkpt>
      <trkpt lat="43.99566" lon="7.25209">
        <ele>1198.42</ele>
        <time>2014-03-02T09:29:46Z</time>
      </trkpt>
      <trkpt lat="43.99561" lon="7.25204">
        <ele>1200.82</ele>
        <time>2014-03-02T09:29:58Z</time>
      </trkpt>
      <trkpt lat="43.99561" lon="7.25196">
        <ele>1203.71</ele>
        <time>2014-03-02T09:30:11Z</time>
      </trkpt>
      <trkpt lat="43.99567" lon="7.25198">
        <ele>1205.15</ele>
        <time>2014-03-02T09:30:25Z</time>
      </trkpt>
      <trkpt lat="43.99566" lon="7.25193">
        <ele>1207.07</ele>
        <time>2014-03-02T09:30:36Z</time>
      </trkpt>
      <trkpt lat="43.99565" lon="7.25188">
        <ele>1207.07</ele>
        <time>2014-03-02T09:30:48Z</time>
      </trkpt>
      <trkpt lat="43.99569" lon="7.25188">
        <ele>1209.48</ele>
        <time>2014-03-02T09:31:02Z</time>
      </trkpt>
      <trkpt lat="43.99577" lon="7.2519">
        <ele>1213.8</ele>
        <time>2014-03-02T09:31:17Z</time>
      </trkpt>
      <trkpt lat="43.99583" lon="7.25192">
        <ele>1215.72</ele>
        <time>2014-03-02T09:31:29Z</time>
      </trkpt>
      <trkpt lat="43.99579" lon="7.2519">
        <ele>1218.13</ele>
        <time>2014-03-02T09:31:39Z</time>
      </trkpt>
      <trkpt lat="43.99577" lon="7.25187">
        <ele>1220.05</ele>
        <time>2014-03-02T09:31:51Z</time>
      </trkpt>
      <trkpt lat="43.99582" lon="7.25182">
        <ele>1221.01</ele>
        <time>2014-03-02T09:32:04Z</time>
      </trkpt>
      <trkpt lat="43.99589" lon="7.25184">
        <ele>1222.93</ele>
        <time>2014-03-02T09:32:16Z</time>
      </trkpt>
      <trkpt lat="43.99591" lon="7.25184">
        <ele>1222.93</ele>
        <time>2014-03-02T09:32:19Z</time>
      </trkpt>
      <trkpt lat="43.99598" lon="7.2519">
        <ele>1224.38</ele>
        <time>2014-03-02T09:32:33Z</time>
      </trkpt>
      <trkpt lat="43.99603" lon="7.25191">
        <ele>1228.22</ele>
        <time>2014-03-02T09:32:46Z</time>
      </trkpt>
      <trkpt lat="43.9961" lon="7.25195">
        <ele>1230.62</ele>
        <time>2014-03-02T09:33:00Z</time>
      </trkpt>
      <trkpt lat="43.99615" lon="7.25198">
        <ele>1232.07</ele>
        <time>2014-03-02T09:33:13Z</time>
      </trkpt>
      <trkpt lat="43.9962" lon="7.25202">
        <ele>1233.03</ele>
        <time>2014-03-02T09:33:26Z</time>
      </trkpt>
      <trkpt lat="43.99623" lon="7.25204">
        <ele>1233.51</ele>
        <time>2014-03-02T09:33:38Z</time>
      </trkpt>
      <trkpt lat="43.99628" lon="7.25207">
        <ele>1234.95</ele>
        <time>2014-03-02T09:33:50Z</time>
      </trkpt>
      <trkpt lat="43.99631" lon="7.25206">
        <ele>1237.35</ele>
        <time>2014-03-02T09:33:58Z</time>
      </trkpt>
      <trkpt lat="43.99635" lon="7.25206">
        <ele>1238.32</ele>
        <time>2014-03-02T09:34:04Z</time>
      </trkpt>
      <trkpt lat="43.99642" lon="7.25206">
        <ele>1241.2</ele>
        <time>2014-03-02T09:34:18Z</time>
      </trkpt>
      <trkpt lat="43.99639" lon="7.25204">
        <ele>1243.12</ele>
        <time>2014-03-02T09:34:31Z</time>
      </trkpt>
      <trkpt lat="43.99637" lon="7.25198">
        <ele>1244.08</ele>
        <time>2014-03-02T09:34:44Z</time>
      </trkpt>
      <trkpt lat="43.99642" lon="7.25198">
        <ele>1246.01</ele>
        <time>2014-03-02T09:34:57Z</time>
      </trkpt>
      <trkpt lat="43.99644" lon="7.25197">
        <ele>1247.93</ele>
        <time>2014-03-02T09:35:11Z</time>
      </trkpt>
      <trkpt lat="43.99644" lon="7.25196">
        <ele>1248.89</ele>
        <time>2014-03-02T09:35:35Z</time>
      </trkpt>
      <trkpt lat="43.99644" lon="7.25196">
        <ele>1249.37</ele>
        <time>2014-03-02T09:35:59Z</time>
      </trkpt>
      <trkpt lat="43.99644" lon="7.25196">
        <ele>1250.33</ele>
        <time>2014-03-02T09:36:22Z</time>
      </trkpt>
      <trkpt lat="43.99644" lon="7.25197">
        <ele>1250.81</ele>
        <time>2014-03-02T09:36:37Z</time>
      </trkpt>
      <trkpt lat="43.99644" lon="7.25197">
        <ele>1250.81</ele>
        <time>2014-03-02T09:36:53Z</time>
      </trkpt>
      <trkpt lat="43.99644" lon="7.25197">
        <ele>1250.81</ele>
        <time>2014-03-02T09:37:10Z</time>
      </trkpt>
      <trkpt lat="43.99645" lon="7.25196">
        <ele>1249.37</ele>
        <time>2014-03-02T09:37:41Z</time>
      </trkpt>
      <trkpt lat="43.99645" lon="7.25196">
        <ele>1248.89</ele>
        <time>2014-03-02T09:38:12Z</time>
      </trkpt>
      <trkpt lat="43.99644" lon="7.25196">
        <ele>1249.37</ele>
        <time>2014-03-02T09:38:41Z</time>
      </trkpt>
      <trkpt lat="43.99651" lon="7.25194">
        <ele>1251.77</ele>
        <time>2014-03-02T09:38:54Z</time>
      </trkpt>
      <trkpt lat="43.99659" lon="7.25193">
        <ele>1253.7</ele>
        <time>2014-03-02T09:39:06Z</time>
      </trkpt>
      <trkpt lat="43.99667" lon="7.25192">
        <ele>1255.14</ele>
        <time>2014-03-02T09:39:19Z</time>
      </trkpt>
      <trkpt lat="43.99673" lon="7.25188">
        <ele>1256.58</ele>
        <time>2014-03-02T09:39:33Z</time>
      </trkpt>
      <trkpt lat="43.99677" lon="7.25185">
        <ele>1258.98</ele>
        <time>2014-03-02T09:39:46Z</time>
      </trkpt>
      <trkpt lat="43.99682" lon="7.25185">
        <ele>1262.35</ele>
        <time>2014-03-02T09:39:59Z</time>
      </trkpt>
      <trkpt lat="43.99693" lon="7.25183">
        <ele>1264.27</ele>
        <time>2014-03-02T09:40:12Z</time>
      </trkpt>
      <trkpt lat="43.997" lon="7.25187">
        <ele>1266.19</ele>
        <time>2014-03-02T09:40:24Z</time>
      </trkpt>
      <trkpt lat="43.99708" lon="7.25185">
        <ele>1268.12</ele>
        <time>2014-03-02T09:40:37Z</time>
      </trkpt>
      <trkpt lat="43.99719" lon="7.25186">
        <ele>1270.52</ele>
        <time>2014-03-02T09:40:49Z</time>
      </trkpt>
      <trkpt lat="43.99726" lon="7.25183">
        <ele>1273.88</ele>
        <time>2014-03-02T09:41:05Z</time>
      </trkpt>
      <trkpt lat="43.99728" lon="7.25191">
        <ele>1274.85</ele>
        <time>2014-03-02T09:41:16Z</time>
      </trkpt>
      <trkpt lat="43.99723" lon="7.25204">
        <ele>1274.85</ele>
        <time>2014-03-02T09:41:32Z</time>
      </trkpt>
      <trkpt lat="43.99717" lon="7.25212">
        <ele>1273.88</ele>
        <time>2014-03-02T09:41:49Z</time>
      </trkpt>
      <trkpt lat="43.9971" lon="7.25216">
        <ele>1273.88</ele>
        <time>2014-03-02T09:42:00Z</time>
      </trkpt>
      <trkpt lat="43.99703" lon="7.25222">
        <ele>1275.81</ele>
        <time>2014-03-02T09:42:14Z</time>
      </trkpt>
      <trkpt lat="43.99699" lon="7.25228">
        <ele>1277.73</ele>
        <time>2014-03-02T09:42:25Z</time>
      </trkpt>
      <trkpt lat="43.99699" lon="7.25228">
        <ele>1277.73</ele>
        <time>2014-03-02T09:42:26Z</time>
      </trkpt>
      <trkpt lat="43.99695" lon="7.25231">
        <ele>1280.13</ele>
        <time>2014-03-02T09:42:38Z</time>
      </trkpt>
      <trkpt lat="43.99697" lon="7.25231">
        <ele>1282.06</ele>
        <time>2014-03-02T09:42:54Z</time>
      </trkpt>
      <trkpt lat="43.99702" lon="7.25229">
        <ele>1283.02</ele>
        <time>2014-03-02T09:43:06Z</time>
      </trkpt>
      <trkpt lat="43.99707" lon="7.2523">
        <ele>1283.98</ele>
        <time>2014-03-02T09:43:16Z</time>
      </trkpt>
      <trkpt lat="43.99715" lon="7.25231">
        <ele>1288.3</ele>
        <time>2014-03-02T09:43:31Z</time>
      </trkpt>
      <trkpt lat="43.99719" lon="7.25234">
        <ele>1291.19</ele>
        <time>2014-03-02T09:43:44Z</time>
      </trkpt>
      <trkpt lat="43.99724" lon="7.25237">
        <ele>1293.59</ele>
        <time>2014-03-02T09:43:58Z</time>
      </trkpt>
      <trkpt lat="43.99731" lon="7.25237">
        <ele>1295.99</ele>
        <time>2014-03-02T09:44:12Z</time>
      </trkpt>
      <trkpt lat="43.99738" lon="7.25239">
        <ele>1298.4</ele>
        <time>2014-03-02T09:44:26Z</time>
      </trkpt>
      <trkpt lat="43.99742" lon="7.2524">
        <ele>1299.84</ele>
        <time>2014-03-02T09:44:38Z</time>
      </trkpt>
      <trkpt lat="43.99746" lon="7.25239">
        <ele>1302.24</ele>
        <time>2014-03-02T09:44:50Z</time>
      </trkpt>
      <trkpt lat="43.99752" lon="7.2524">
        <ele>1303.2</ele>
        <time>2014-03-02T09:45:01Z</time>
      </trkpt>
      <trkpt lat="43.99759" lon="7.25242">
        <ele>1306.09</ele>
        <time>2014-03-02T09:45:16Z</time>
      </trkpt>
      <trkpt lat="43.99761" lon="7.25244">
        <ele>1305.61</ele>
        <time>2014-03-02T09:45:41Z</time>
      </trkpt>
      <trkpt lat="43.99762" lon="7.25245">
        <ele>1305.13</ele>
        <time>2014-03-02T09:45:57Z</time>
      </trkpt>
      <trkpt lat="43.99756" lon="7.25253">
        <ele>1305.13</ele>
        <time>2014-03-02T09:46:12Z</time>
      </trkpt>
      <trkpt lat="43.99751" lon="7.25261">
        <ele>1305.61</ele>
        <time>2014-03-02T09:46:26Z</time>
      </trkpt>
      <trkpt lat="43.99754" lon="7.2526">
        <ele>1307.53</ele>
        <time>2014-03-02T09:46:37Z</time>
      </trkpt>
      <trkpt lat="43.99761" lon="7.25261">
        <ele>1308.49</ele>
        <time>2014-03-02T09:46:50Z</time>
      </trkpt>
      <trkpt lat="43.99765" lon="7.25262">
        <ele>1308.97</ele>
        <time>2014-03-02T09:46:56Z</time>
      </trkpt>
      <trkpt lat="43.99773" lon="7.25262">
        <ele>1309.93</ele>
        <time>2014-03-02T09:47:09Z</time>
      </trkpt>
      <trkpt lat="43.99778" lon="7.25263">
        <ele>1310.9</ele>
        <time>2014-03-02T09:47:21Z</time>
      </trkpt>
      <trkpt lat="43.99782" lon="7.25262">
        <ele>1312.34</ele>
        <time>2014-03-02T09:47:32Z</time>
      </trkpt>
      <trkpt lat="43.99787" lon="7.25257">
        <ele>1314.74</ele>
        <time>2014-03-02T09:47:44Z</time>
      </trkpt>
      <trkpt lat="43.99792" lon="7.25255">
        <ele>1316.18</ele>
        <time>2014-03-02T09:48:02Z</time>
      </trkpt>
      <trkpt lat="43.99799" lon="7.25249">
        <ele>1319.07</ele>
        <time>2014-03-02T09:48:15Z</time>
      </trkpt>
      <trkpt lat="43.99804" lon="7.25246">
        <ele>1320.51</ele>
        <time>2014-03-02T09:48:27Z</time>
      </trkpt>
      <trkpt lat="43.99809" lon="7.25236">
        <ele>1321.47</ele>
        <time>2014-03-02T09:48:37Z</time>
      </trkpt>
      <trkpt lat="43.99814" lon="7.25223">
        <ele>1321.95</ele>
        <time>2014-03-02T09:48:50Z</time>
      </trkpt>
      <trkpt lat="43.99818" lon="7.25209">
        <ele>1322.43</ele>
        <time>2014-03-02T09:49:02Z</time>
      </trkpt>
      <trkpt lat="43.99825" lon="7.25198">
        <ele>1321.95</ele>
        <time>2014-03-02T09:49:14Z</time>
      </trkpt>
      <trkpt lat="43.9983" lon="7.2519">
        <ele>1323.39</ele>
        <time>2014-03-02T09:49:23Z</time>
      </trkpt>
      <trkpt lat="43.99834" lon="7.25181">
        <ele>1325.31</ele>
        <time>2014-03-02T09:49:35Z</time>
      </trkpt>
      <trkpt lat="43.99838" lon="7.25174">
        <ele>1326.76</ele>
        <time>2014-03-02T09:49:48Z</time>
      </trkpt>
      <trkpt lat="43.99839" lon="7.2516">
        <ele>1327.24</ele>
        <time>2014-03-02T09:50:02Z</time>
      </trkpt>
      <trkpt lat="43.99837" lon="7.25153">
        <ele>1327.72</ele>
        <time>2014-03-02T09:50:14Z</time>
      </trkpt>
      <trkpt lat="43.99838" lon="7.25149">
        <ele>1329.16</ele>
        <time>2014-03-02T09:50:39Z</time>
      </trkpt>
      <trkpt lat="43.99837" lon="7.25149">
        <ele>1329.16</ele>
        <time>2014-03-02T09:51:13Z</time>
      </trkpt>
      <trkpt lat="43.99836" lon="7.25142">
        <ele>1329.64</ele>
        <time>2014-03-02T09:51:34Z</time>
      </trkpt>
      <trkpt lat="43.99835" lon="7.25132">
        <ele>1330.6</ele>
        <time>2014-03-02T09:51:46Z</time>
      </trkpt>
      <trkpt lat="43.99834" lon="7.25124">
        <ele>1329.16</ele>
        <time>2014-03-02T09:51:58Z</time>
      </trkpt>
      <trkpt lat="43.99838" lon="7.25116">
        <ele>1326.76</ele>
        <time>2014-03-02T09:52:09Z</time>
      </trkpt>
      <trkpt lat="43.99839" lon="7.25108">
        <ele>1326.76</ele>
        <time>2014-03-02T09:52:21Z</time>
      </trkpt>
      <trkpt lat="43.99838" lon="7.25095">
        <ele>1325.8</ele>
        <time>2014-03-02T09:52:30Z</time>
      </trkpt>
      <trkpt lat="43.99839" lon="7.25089">
        <ele>1325.31</ele>
        <time>2014-03-02T09:52:35Z</time>
      </trkpt>
      <trkpt lat="43.9984" lon="7.25085">
        <ele>1324.83</ele>
        <time>2014-03-02T09:52:38Z</time>
      </trkpt>
      <trkpt lat="43.99841" lon="7.25079">
        <ele>1324.35</ele>
        <time>2014-03-02T09:52:43Z</time>
      </trkpt>
      <trkpt lat="43.99842" lon="7.25075">
        <ele>1324.35</ele>
        <time>2014-03-02T09:52:46Z</time>
      </trkpt>
      <trkpt lat="43.9985" lon="7.25056">
        <ele>1323.39</ele>
        <time>2014-03-02T09:53:02Z</time>
      </trkpt>
      <trkpt lat="43.99852" lon="7.25052">
        <ele>1323.87</ele>
        <time>2014-03-02T09:53:05Z</time>
      </trkpt>
      <trkpt lat="43.99857" lon="7.25038">
        <ele>1323.39</ele>
        <time>2014-03-02T09:53:18Z</time>
      </trkpt>
      <trkpt lat="43.99857" lon="7.25037">
        <ele>1323.39</ele>
        <time>2014-03-02T09:53:19Z</time>
      </trkpt>
      <trkpt lat="43.99862" lon="7.25024">
        <ele>1320.99</ele>
        <time>2014-03-02T09:53:29Z</time>
      </trkpt>
      <trkpt lat="43.99863" lon="7.2501">
        <ele>1320.99</ele>
        <time>2014-03-02T09:53:39Z</time>
      </trkpt>
      <trkpt lat="43.99866" lon="7.24994">
        <ele>1324.83</ele>
        <time>2014-03-02T09:53:52Z</time>
      </trkpt>
      <trkpt lat="43.99868" lon="7.24991">
        <ele>1325.31</ele>
        <time>2014-03-02T09:53:56Z</time>
      </trkpt>
      <trkpt lat="43.99872" lon="7.24976">
        <ele>1325.31</ele>
        <time>2014-03-02T09:54:08Z</time>
      </trkpt>
      <trkpt lat="43.99872" lon="7.24974">
        <ele>1325.31</ele>
        <time>2014-03-02T09:54:09Z</time>
      </trkpt>
      <trkpt lat="43.9988" lon="7.24957">
        <ele>1324.83</ele>
        <time>2014-03-02T09:54:22Z</time>
      </trkpt>
      <trkpt lat="43.99882" lon="7.24957">
        <ele>1325.31</ele>
        <time>2014-03-02T09:54:29Z</time>
      </trkpt>
      <trkpt lat="43.99884" lon="7.24951">
        <ele>1325.8</ele>
        <time>2014-03-02T09:54:33Z</time>
      </trkpt>
      <trkpt lat="43.99892" lon="7.2494">
        <ele>1330.12</ele>
        <time>2014-03-02T09:54:45Z</time>
      </trkpt>
      <trkpt lat="43.99895" lon="7.24938">
        <ele>1330.6</ele>
        <time>2014-03-02T09:54:49Z</time>
      </trkpt>
      <trkpt lat="43.99901" lon="7.24926">
        <ele>1333.49</ele>
        <time>2014-03-02T09:55:03Z</time>
      </trkpt>
      <trkpt lat="43.99912" lon="7.24921">
        <ele>1333.97</ele>
        <time>2014-03-02T09:55:19Z</time>
      </trkpt>
      <trkpt lat="43.99921" lon="7.24922">
        <ele>1338.29</ele>
        <time>2014-03-02T09:55:33Z</time>
      </trkpt>
      <trkpt lat="43.99926" lon="7.24921">
        <ele>1341.66</ele>
        <time>2014-03-02T09:55:49Z</time>
      </trkpt>
      <trkpt lat="43.99932" lon="7.24926">
        <ele>1341.66</ele>
        <time>2014-03-02T09:56:03Z</time>
      </trkpt>
      <trkpt lat="43.99937" lon="7.24928">
        <ele>1344.06</ele>
        <time>2014-03-02T09:56:17Z</time>
      </trkpt>
      <trkpt lat="43.99948" lon="7.24934">
        <ele>1345.98</ele>
        <time>2014-03-02T09:56:30Z</time>
      </trkpt>
      <trkpt lat="43.99957" lon="7.24936">
        <ele>1346.94</ele>
        <time>2014-03-02T09:56:43Z</time>
      </trkpt>
      <trkpt lat="43.9996" lon="7.24937">
        <ele>1346.94</ele>
        <time>2014-03-02T09:56:49Z</time>
      </trkpt>
      <trkpt lat="43.99965" lon="7.24938">
        <ele>1345.98</ele>
        <time>2014-03-02T09:57:02Z</time>
      </trkpt>
      <trkpt lat="43.99964" lon="7.24941">
        <ele>1346.94</ele>
        <time>2014-03-02T09:57:20Z</time>
      </trkpt>
      <trkpt lat="43.99966" lon="7.24943">
        <ele>1346.94</ele>
        <time>2014-03-02T09:57:28Z</time>
      </trkpt>
      <trkpt lat="43.99978" lon="7.24945">
        <ele>1347.43</ele>
        <time>2014-03-02T09:57:37Z</time>
      </trkpt>
      <trkpt lat="43.99982" lon="7.24945">
        <ele>1350.31</ele>
        <time>2014-03-02T09:57:47Z</time>
      </trkpt>
      <trkpt lat="43.99986" lon="7.24948">
        <ele>1352.23</ele>
        <time>2014-03-02T09:57:59Z</time>
      </trkpt>
      <trkpt lat="43.99992" lon="7.2495">
        <ele>1354.63</ele>
        <time>2014-03-02T09:58:12Z</time>
      </trkpt>
      <trkpt lat="43.99994" lon="7.24949">
        <ele>1355.12</ele>
        <time>2014-03-02T09:58:14Z</time>
      </trkpt>
      <trkpt lat="44.00005" lon="7.24949">
        <ele>1357.52</ele>
        <time>2014-03-02T09:58:26Z</time>
      </trkpt>
      <trkpt lat="44.00013" lon="7.24955">
        <ele>1357.04</ele>
        <time>2014-03-02T09:58:38Z</time>
      </trkpt>
      <trkpt lat="44.00019" lon="7.2496">
        <ele>1356.56</ele>
        <time>2014-03-02T09:58:45Z</time>
      </trkpt>
      <trkpt lat="44.0003" lon="7.24971">
        <ele>1357.04</ele>
        <time>2014-03-02T09:58:59Z</time>
      </trkpt>
      <trkpt lat="44.00035" lon="7.24973">
        <ele>1357.52</ele>
        <time>2014-03-02T09:59:03Z</time>
      </trkpt>
      <trkpt lat="44.00047" lon="7.24976">
        <ele>1359.92</ele>
        <time>2014-03-02T09:59:17Z</time>
      </trkpt>
      <trkpt lat="44.00055" lon="7.24977">
        <ele>1363.77</ele>
        <time>2014-03-02T09:59:28Z</time>
      </trkpt>
      <trkpt lat="44.00055" lon="7.24979">
        <ele>1364.25</ele>
        <time>2014-03-02T09:59:41Z</time>
      </trkpt>
      <trkpt lat="44.00056" lon="7.24981">
        <ele>1363.29</ele>
        <time>2014-03-02T09:59:55Z</time>
      </trkpt>
      <trkpt lat="44.00055" lon="7.24982">
        <ele>1361.84</ele>
        <time>2014-03-02T10:00:12Z</time>
      </trkpt>
      <trkpt lat="44.00054" lon="7.2498">
        <ele>1359.92</ele>
        <time>2014-03-02T10:00:31Z</time>
      </trkpt>
      <trkpt lat="44.00054" lon="7.2498">
        <ele>1360.4</ele>
        <time>2014-03-02T10:00:56Z</time>
      </trkpt>
      <trkpt lat="44.00054" lon="7.24979">
        <ele>1359.92</ele>
        <time>2014-03-02T10:01:20Z</time>
      </trkpt>
      <trkpt lat="44.00058" lon="7.24982">
        <ele>1358.48</ele>
        <time>2014-03-02T10:01:36Z</time>
      </trkpt>
      <trkpt lat="44.00062" lon="7.24984">
        <ele>1359.92</ele>
        <time>2014-03-02T10:01:50Z</time>
      </trkpt>
      <trkpt lat="44.00065" lon="7.24985">
        <ele>1361.84</ele>
        <time>2014-03-02T10:02:03Z</time>
      </trkpt>
      <trkpt lat="44.00069" lon="7.2499">
        <ele>1363.77</ele>
        <time>2014-03-02T10:02:19Z</time>
      </trkpt>
      <trkpt lat="44.00075" lon="7.24993">
        <ele>1365.21</ele>
        <time>2014-03-02T10:02:32Z</time>
      </trkpt>
      <trkpt lat="44.00079" lon="7.24997">
        <ele>1365.21</ele>
        <time>2014-03-02T10:02:46Z</time>
      </trkpt>
      <trkpt lat="44.00085" lon="7.25">
        <ele>1365.69</ele>
        <time>2014-03-02T10:02:58Z</time>
      </trkpt>
      <trkpt lat="44.0009" lon="7.25">
        <ele>1366.17</ele>
        <time>2014-03-02T10:03:12Z</time>
      </trkpt>
      <trkpt lat="44.00094" lon="7.25002">
        <ele>1366.65</ele>
        <time>2014-03-02T10:03:24Z</time>
      </trkpt>
      <trkpt lat="44.001" lon="7.25004">
        <ele>1368.57</ele>
        <time>2014-03-02T10:03:34Z</time>
      </trkpt>
      <trkpt lat="44.00107" lon="7.25008">
        <ele>1370.02</ele>
        <time>2014-03-02T10:03:47Z</time>
      </trkpt>
      <trkpt lat="44.00116" lon="7.25013">
        <ele>1370.02</ele>
        <time>2014-03-02T10:04:03Z</time>
      </trkpt>
      <trkpt lat="44.00116" lon="7.25013">
        <ele>1370.98</ele>
        <time>2014-03-02T10:04:26Z</time>
      </trkpt>
      <trkpt lat="44.00116" lon="7.25013">
        <ele>1370.98</ele>
        <time>2014-03-02T10:04:50Z</time>
      </trkpt>
      <trkpt lat="44.00121" lon="7.25013">
        <ele>1371.46</ele>
        <time>2014-03-02T10:05:07Z</time>
      </trkpt>
      <trkpt lat="44.00125" lon="7.25012">
        <ele>1372.42</ele>
        <time>2014-03-02T10:05:21Z</time>
      </trkpt>
      <trkpt lat="44.00132" lon="7.25013">
        <ele>1372.9</ele>
        <time>2014-03-02T10:05:35Z</time>
      </trkpt>
      <trkpt lat="44.00133" lon="7.25016">
        <ele>1370.98</ele>
        <time>2014-03-02T10:05:50Z</time>
      </trkpt>
      <trkpt lat="44.00132" lon="7.25015">
        <ele>1370.02</ele>
        <time>2014-03-02T10:06:07Z</time>
      </trkpt>
      <trkpt lat="44.00132" lon="7.25014">
        <ele>1370.98</ele>
        <time>2014-03-02T10:06:24Z</time>
      </trkpt>
      <trkpt lat="44.00132" lon="7.25014">
        <ele>1370.5</ele>
        <time>2014-03-02T10:06:40Z</time>
      </trkpt>
      <trkpt lat="44.00132" lon="7.25014">
        <ele>1370.98</ele>
        <time>2014-03-02T10:07:05Z</time>
      </trkpt>
      <trkpt lat="44.00132" lon="7.25014">
        <ele>1370.98</ele>
        <time>2014-03-02T10:07:18Z</time>
      </trkpt>
      <trkpt lat="44.00132" lon="7.25013">
        <ele>1372.42</ele>
        <time>2014-03-02T10:07:47Z</time>
      </trkpt>
      <trkpt lat="44.00133" lon="7.25013">
        <ele>1371.46</ele>
        <time>2014-03-02T10:08:13Z</time>
      </trkpt>
      <trkpt lat="44.00133" lon="7.25013">
        <ele>1370.5</ele>
        <time>2014-03-02T10:08:35Z</time>
      </trkpt>
      <trkpt lat="44.00134" lon="7.25012">
        <ele>1370.02</ele>
        <time>2014-03-02T10:09:06Z</time>
      </trkpt>
      <trkpt lat="44.00135" lon="7.25012">
        <ele>1370.5</ele>
        <time>2014-03-02T10:09:28Z</time>
      </trkpt>
      <trkpt lat="44.00137" lon="7.25014">
        <ele>1370.02</ele>
        <time>2014-03-02T10:09:41Z</time>
      </trkpt>
      <trkpt lat="44.00139" lon="7.25011">
        <ele>1370.98</ele>
        <time>2014-03-02T10:09:52Z</time>
      </trkpt>
      <trkpt lat="44.00141" lon="7.25009">
        <ele>1370.5</ele>
        <time>2014-03-02T10:09:57Z</time>
      </trkpt>
      <trkpt lat="44.00143" lon="7.25007">
        <ele>1369.54</ele>
        <time>2014-03-02T10:10:14Z</time>
      </trkpt>
      <trkpt lat="44.00143" lon="7.25007">
        <ele>1370.02</ele>
        <time>2014-03-02T10:10:34Z</time>
      </trkpt>
      <trkpt lat="44.00145" lon="7.25006">
        <ele>1370.5</ele>
        <time>2014-03-02T10:10:54Z</time>
      </trkpt>
      <trkpt lat="44.00148" lon="7.24995">
        <ele>1369.05</ele>
        <time>2014-03-02T10:11:08Z</time>
      </trkpt>
      <trkpt lat="44.0015" lon="7.24995">
        <ele>1369.05</ele>
        <time>2014-03-02T10:11:21Z</time>
      </trkpt>
      <trkpt lat="44.00152" lon="7.24992">
        <ele>1368.57</ele>
        <time>2014-03-02T10:11:35Z</time>
      </trkpt>
      <trkpt lat="44.00153" lon="7.24993">
        <ele>1366.65</ele>
        <time>2014-03-02T10:11:56Z</time>
      </trkpt>
      <trkpt lat="44.00153" lon="7.24993">
        <ele>1369.54</ele>
        <time>2014-03-02T10:12:13Z</time>
      </trkpt>
      <trkpt lat="44.00153" lon="7.24991">
        <ele>1369.05</ele>
        <time>2014-03-02T10:12:26Z</time>
      </trkpt>
      <trkpt lat="44.00153" lon="7.24993">
        <ele>1369.54</ele>
        <time>2014-03-02T10:12:50Z</time>
      </trkpt>
      <trkpt lat="44.00152" lon="7.24993">
        <ele>1370.02</ele>
        <time>2014-03-02T10:13:10Z</time>
      </trkpt>
      <trkpt lat="44.00155" lon="7.2499">
        <ele>1370.02</ele>
        <time>2014-03-02T10:13:28Z</time>
      </trkpt>
      <trkpt lat="44.00158" lon="7.24981">
        <ele>1369.54</ele>
        <time>2014-03-02T10:13:40Z</time>
      </trkpt>
      <trkpt lat="44.00161" lon="7.2498">
        <ele>1370.98</ele>
        <time>2014-03-02T10:13:50Z</time>
      </trkpt>
      <trkpt lat="44.00164" lon="7.24978">
        <ele>1369.54</ele>
        <time>2014-03-02T10:14:07Z</time>
      </trkpt>
      <trkpt lat="44.00171" lon="7.24971">
        <ele>1369.54</ele>
        <time>2014-03-02T10:14:18Z</time>
      </trkpt>
      <trkpt lat="44.00173" lon="7.24965">
        <ele>1369.54</ele>
        <time>2014-03-02T10:14:26Z</time>
      </trkpt>
      <trkpt lat="44.0018" lon="7.24958">
        <ele>1370.5</ele>
        <time>2014-03-02T10:14:37Z</time>
      </trkpt>
      <trkpt lat="44.00184" lon="7.24949">
        <ele>1371.46</ele>
        <time>2014-03-02T10:14:50Z</time>
      </trkpt>
      <trkpt lat="44.00185" lon="7.24944">
        <ele>1370.5</ele>
        <time>2014-03-02T10:15:01Z</time>
      </trkpt>
      <trkpt lat="44.00186" lon="7.24943">
        <ele>1369.54</ele>
        <time>2014-03-02T10:15:22Z</time>
      </trkpt>
      <trkpt lat="44.00188" lon="7.2494">
        <ele>1370.02</ele>
        <time>2014-03-02T10:15:43Z</time>
      </trkpt>
      <trkpt lat="44.00191" lon="7.24935">
        <ele>1370.98</ele>
        <time>2014-03-02T10:15:58Z</time>
      </trkpt>
      <trkpt lat="44.00197" lon="7.24928">
        <ele>1370.98</ele>
        <time>2014-03-02T10:16:12Z</time>
      </trkpt>
      <trkpt lat="44.00202" lon="7.24923">
        <ele>1371.94</ele>
        <time>2014-03-02T10:16:21Z</time>
      </trkpt>
      <trkpt lat="44.00206" lon="7.24915">
        <ele>1375.78</ele>
        <time>2014-03-02T10:16:34Z</time>
      </trkpt>
      <trkpt lat="44.00211" lon="7.24918">
        <ele>1377.71</ele>
        <time>2014-03-02T10:16:47Z</time>
      </trkpt>
      <trkpt lat="44.00214" lon="7.24913">
        <ele>1376.26</ele>
        <time>2014-03-02T10:17:05Z</time>
      </trkpt>
      <trkpt lat="44.00218" lon="7.24902">
        <ele>1379.63</ele>
        <time>2014-03-02T10:17:19Z</time>
      </trkpt>
      <trkpt lat="44.0022" lon="7.24895">
        <ele>1381.07</ele>
        <time>2014-03-02T10:17:29Z</time>
      </trkpt>
      <trkpt lat="44.00223" lon="7.2489">
        <ele>1383.96</ele>
        <time>2014-03-02T10:17:41Z</time>
      </trkpt>
      <trkpt lat="44.00229" lon="7.24884">
        <ele>1383.96</ele>
        <time>2014-03-02T10:17:55Z</time>
      </trkpt>
      <trkpt lat="44.00233" lon="7.24879">
        <ele>1384.92</ele>
        <time>2014-03-02T10:18:06Z</time>
      </trkpt>
      <trkpt lat="44.00234" lon="7.24876">
        <ele>1384.92</ele>
        <time>2014-03-02T10:18:11Z</time>
      </trkpt>
      <trkpt lat="44.00237" lon="7.2487">
        <ele>1385.88</ele>
        <time>2014-03-02T10:18:24Z</time>
      </trkpt>
      <trkpt lat="44.00236" lon="7.24868">
        <ele>1387.32</ele>
        <time>2014-03-02T10:18:47Z</time>
      </trkpt>
      <trkpt lat="44.00238" lon="7.24864">
        <ele>1388.76</ele>
        <time>2014-03-02T10:19:02Z</time>
      </trkpt>
      <trkpt lat="44.00242" lon="7.24855">
        <ele>1391.65</ele>
        <time>2014-03-02T10:19:15Z</time>
      </trkpt>
      <trkpt lat="44.00244" lon="7.24853">
        <ele>1391.17</ele>
        <time>2014-03-02T10:19:29Z</time>
      </trkpt>
      <trkpt lat="44.00245" lon="7.24851">
        <ele>1391.17</ele>
        <time>2014-03-02T10:19:56Z</time>
      </trkpt>
      <trkpt lat="44.00249" lon="7.24846">
        <ele>1392.61</ele>
        <time>2014-03-02T10:20:07Z</time>
      </trkpt>
      <trkpt lat="44.0025" lon="7.24843">
        <ele>1393.57</ele>
        <time>2014-03-02T10:20:17Z</time>
      </trkpt>
      <trkpt lat="44.00252" lon="7.24842">
        <ele>1394.53</ele>
        <time>2014-03-02T10:20:28Z</time>
      </trkpt>
      <trkpt lat="44.00257" lon="7.24845">
        <ele>1397.89</ele>
        <time>2014-03-02T10:20:40Z</time>
      </trkpt>
      <trkpt lat="44.00265" lon="7.24845">
        <ele>1399.34</ele>
        <time>2014-03-02T10:20:52Z</time>
      </trkpt>
      <trkpt lat="44.00267" lon="7.24847">
        <ele>1400.3</ele>
        <time>2014-03-02T10:21:05Z</time>
      </trkpt>
      <trkpt lat="44.00272" lon="7.24853">
        <ele>1403.66</ele>
        <time>2014-03-02T10:21:18Z</time>
      </trkpt>
      <trkpt lat="44.00274" lon="7.24857">
        <ele>1403.66</ele>
        <time>2014-03-02T10:21:32Z</time>
      </trkpt>
      <trkpt lat="44.00275" lon="7.24857">
        <ele>1402.7</ele>
        <time>2014-03-02T10:22:01Z</time>
      </trkpt>
      <trkpt lat="44.00275" lon="7.24858">
        <ele>1402.22</ele>
        <time>2014-03-02T10:22:24Z</time>
      </trkpt>
      <trkpt lat="44.00274" lon="7.24857">
        <ele>1403.18</ele>
        <time>2014-03-02T10:22:42Z</time>
      </trkpt>
      <trkpt lat="44.00278" lon="7.24862">
        <ele>1403.66</ele>
        <time>2014-03-02T10:22:54Z</time>
      </trkpt>
      <trkpt lat="44.0028" lon="7.24863">
        <ele>1404.14</ele>
        <time>2014-03-02T10:22:56Z</time>
      </trkpt>
      <trkpt lat="44.00285" lon="7.24872">
        <ele>1406.07</ele>
        <time>2014-03-02T10:23:09Z</time>
      </trkpt>
      <trkpt lat="44.00288" lon="7.2487">
        <ele>1409.43</ele>
        <time>2014-03-02T10:23:21Z</time>
      </trkpt>
      <trkpt lat="44.00292" lon="7.24863">
        <ele>1409.91</ele>
        <time>2014-03-02T10:23:33Z</time>
      </trkpt>
      <trkpt lat="44.00296" lon="7.24856">
        <ele>1414.24</ele>
        <time>2014-03-02T10:23:46Z</time>
      </trkpt>
      <trkpt lat="44.003" lon="7.24854">
        <ele>1417.6</ele>
        <time>2014-03-02T10:24:00Z</time>
      </trkpt>
      <trkpt lat="44.00304" lon="7.24857">
        <ele>1418.56</ele>
        <time>2014-03-02T10:24:12Z</time>
      </trkpt>
      <trkpt lat="44.0031" lon="7.24863">
        <ele>1420.49</ele>
        <time>2014-03-02T10:24:27Z</time>
      </trkpt>
      <trkpt lat="44.00313" lon="7.24864">
        <ele>1419.04</ele>
        <time>2014-03-02T10:24:44Z</time>
      </trkpt>
      <trkpt lat="44.00316" lon="7.24867">
        <ele>1419.04</ele>
        <time>2014-03-02T10:24:59Z</time>
      </trkpt>
      <trkpt lat="44.00318" lon="7.24868">
        <ele>1417.12</ele>
        <time>2014-03-02T10:25:22Z</time>
      </trkpt>
      <trkpt lat="44.00324" lon="7.24872">
        <ele>1418.08</ele>
        <time>2014-03-02T10:25:35Z</time>
      </trkpt>
      <trkpt lat="44.00328" lon="7.24868">
        <ele>1421.93</ele>
        <time>2014-03-02T10:25:49Z</time>
      </trkpt>
      <trkpt lat="44.00332" lon="7.24867">
        <ele>1424.33</ele>
        <time>2014-03-02T10:26:02Z</time>
      </trkpt>
      <trkpt lat="44.00336" lon="7.24865">
        <ele>1425.77</ele>
        <time>2014-03-02T10:26:13Z</time>
      </trkpt>
      <trkpt lat="44.0034" lon="7.2486">
        <ele>1430.1</ele>
        <time>2014-03-02T10:26:25Z</time>
      </trkpt>
      <trkpt lat="44.00343" lon="7.24857">
        <ele>1431.06</ele>
        <time>2014-03-02T10:26:35Z</time>
      </trkpt>
      <trkpt lat="44.00344" lon="7.24856">
        <ele>1431.54</ele>
        <time>2014-03-02T10:26:47Z</time>
      </trkpt>
      <trkpt lat="44.00345" lon="7.24857">
        <ele>1431.54</ele>
        <time>2014-03-02T10:27:06Z</time>
      </trkpt>
      <trkpt lat="44.00346" lon="7.24859">
        <ele>1430.58</ele>
        <time>2014-03-02T10:27:36Z</time>
      </trkpt>
      <trkpt lat="44.00346" lon="7.24858">
        <ele>1431.06</ele>
        <time>2014-03-02T10:28:00Z</time>
      </trkpt>
      <trkpt lat="44.00347" lon="7.24857">
        <ele>1431.06</ele>
        <time>2014-03-02T10:28:25Z</time>
      </trkpt>
      <trkpt lat="44.00348" lon="7.24857">
        <ele>1431.54</ele>
        <time>2014-03-02T10:28:50Z</time>
      </trkpt>
      <trkpt lat="44.00349" lon="7.24855">
        <ele>1431.06</ele>
        <time>2014-03-02T10:29:08Z</time>
      </trkpt>
      <trkpt lat="44.00348" lon="7.24848">
        <ele>1430.1</ele>
        <time>2014-03-02T10:29:26Z</time>
      </trkpt>
      <trkpt lat="44.00344" lon="7.24836">
        <ele>1432.5</ele>
        <time>2014-03-02T10:29:39Z</time>
      </trkpt>
      <trkpt lat="44.0034" lon="7.24825">
        <ele>1435.87</ele>
        <time>2014-03-02T10:29:51Z</time>
      </trkpt>
      <trkpt lat="44.00337" lon="7.24813">
        <ele>1438.27</ele>
        <time>2014-03-02T10:30:01Z</time>
      </trkpt>
      <trkpt lat="44.00337" lon="7.24814">
        <ele>1438.75</ele>
        <time>2014-03-02T10:30:21Z</time>
      </trkpt>
      <trkpt lat="44.00337" lon="7.24806">
        <ele>1439.71</ele>
        <time>2014-03-02T10:30:34Z</time>
      </trkpt>
      <trkpt lat="44.00337" lon="7.24798">
        <ele>1439.71</ele>
        <time>2014-03-02T10:30:46Z</time>
      </trkpt>
      <trkpt lat="44.00336" lon="7.24786">
        <ele>1440.19</ele>
        <time>2014-03-02T10:30:58Z</time>
      </trkpt>
      <trkpt lat="44.00335" lon="7.24781">
        <ele>1440.19</ele>
        <time>2014-03-02T10:31:13Z</time>
      </trkpt>
      <trkpt lat="44.00335" lon="7.24774">
        <ele>1439.23</ele>
        <time>2014-03-02T10:31:29Z</time>
      </trkpt>
      <trkpt lat="44.00334" lon="7.24767">
        <ele>1438.75</ele>
        <time>2014-03-02T10:31:43Z</time>
      </trkpt>
      <trkpt lat="44.00334" lon="7.24768">
        <ele>1438.75</ele>
        <time>2014-03-02T10:31:57Z</time>
      </trkpt>
      <trkpt lat="44.00335" lon="7.24767">
        <ele>1437.31</ele>
        <time>2014-03-02T10:32:16Z</time>
      </trkpt>
      <trkpt lat="44.00335" lon="7.24767">
        <ele>1435.87</ele>
        <time>2014-03-02T10:32:34Z</time>
      </trkpt>
      <trkpt lat="44.00333" lon="7.24762">
        <ele>1434.91</ele>
        <time>2014-03-02T10:32:49Z</time>
      </trkpt>
      <trkpt lat="44.00332" lon="7.24749">
        <ele>1434.42</ele>
        <time>2014-03-02T10:33:00Z</time>
      </trkpt>
      <trkpt lat="44.00329" lon="7.24736">
        <ele>1436.35</ele>
        <time>2014-03-02T10:33:12Z</time>
      </trkpt>
      <trkpt lat="44.00327" lon="7.24726">
        <ele>1438.27</ele>
        <time>2014-03-02T10:33:24Z</time>
      </trkpt>
      <trkpt lat="44.00327" lon="7.24726">
        <ele>1438.75</ele>
        <time>2014-03-02T10:33:45Z</time>
      </trkpt>
      <trkpt lat="44.00329" lon="7.24717">
        <ele>1439.23</ele>
        <time>2014-03-02T10:33:57Z</time>
      </trkpt>
      <trkpt lat="44.00331" lon="7.2471">
        <ele>1439.71</ele>
        <time>2014-03-02T10:34:09Z</time>
      </trkpt>
      <trkpt lat="44.0033" lon="7.247">
        <ele>1443.56</ele>
        <time>2014-03-02T10:34:24Z</time>
      </trkpt>
      <trkpt lat="44.00328" lon="7.24696">
        <ele>1445</ele>
        <time>2014-03-02T10:34:35Z</time>
      </trkpt>
      <trkpt lat="44.00325" lon="7.24688">
        <ele>1446.92</ele>
        <time>2014-03-02T10:34:48Z</time>
      </trkpt>
      <trkpt lat="44.00323" lon="7.24677">
        <ele>1448.84</ele>
        <time>2014-03-02T10:34:59Z</time>
      </trkpt>
      <trkpt lat="44.00321" lon="7.24667">
        <ele>1450.77</ele>
        <time>2014-03-02T10:35:13Z</time>
      </trkpt>
      <trkpt lat="44.00321" lon="7.24658">
        <ele>1451.73</ele>
        <time>2014-03-02T10:35:26Z</time>
      </trkpt>
      <trkpt lat="44.00321" lon="7.2465">
        <ele>1452.69</ele>
        <time>2014-03-02T10:35:37Z</time>
      </trkpt>
      <trkpt lat="44.00323" lon="7.24644">
        <ele>1452.69</ele>
        <time>2014-03-02T10:35:51Z</time>
      </trkpt>
      <trkpt lat="44.00327" lon="7.24641">
        <ele>1452.69</ele>
        <time>2014-03-02T10:36:02Z</time>
      </trkpt>
      <trkpt lat="44.00331" lon="7.24642">
        <ele>1453.17</ele>
        <time>2014-03-02T10:36:15Z</time>
      </trkpt>
      <trkpt lat="44.00331" lon="7.24643">
        <ele>1453.17</ele>
        <time>2014-03-02T10:36:36Z</time>
      </trkpt>
      <trkpt lat="44.00331" lon="7.24643">
        <ele>1453.17</ele>
        <time>2014-03-02T10:37:05Z</time>
      </trkpt>
      <trkpt lat="44.00335" lon="7.24645">
        <ele>1453.17</ele>
        <time>2014-03-02T10:37:19Z</time>
      </trkpt>
      <trkpt lat="44.00343" lon="7.24645">
        <ele>1455.09</ele>
        <time>2014-03-02T10:37:26Z</time>
      </trkpt>
      <trkpt lat="44.0035" lon="7.24645">
        <ele>1457.5</ele>
        <time>2014-03-02T10:37:37Z</time>
      </trkpt>
      <trkpt lat="44.00354" lon="7.24645">
        <ele>1460.38</ele>
        <time>2014-03-02T10:37:51Z</time>
      </trkpt>
      <trkpt lat="44.00355" lon="7.24644">
        <ele>1460.86</ele>
        <time>2014-03-02T10:38:07Z</time>
      </trkpt>
      <trkpt lat="44.00357" lon="7.24641">
        <ele>1462.78</ele>
        <time>2014-03-02T10:38:24Z</time>
      </trkpt>
      <trkpt lat="44.00363" lon="7.2464">
        <ele>1464.23</ele>
        <time>2014-03-02T10:38:35Z</time>
      </trkpt>
      <trkpt lat="44.0037" lon="7.24637">
        <ele>1467.11</ele>
        <time>2014-03-02T10:38:49Z</time>
      </trkpt>
      <trkpt lat="44.00375" lon="7.24636">
        <ele>1468.55</ele>
        <time>2014-03-02T10:39:01Z</time>
      </trkpt>
      <trkpt lat="44.00383" lon="7.2463">
        <ele>1465.67</ele>
        <time>2014-03-02T10:39:14Z</time>
      </trkpt>
      <trkpt lat="44.00386" lon="7.24626">
        <ele>1464.71</ele>
        <time>2014-03-02T10:39:25Z</time>
      </trkpt>
      <trkpt lat="44.0039" lon="7.24623">
        <ele>1465.19</ele>
        <time>2014-03-02T10:39:37Z</time>
      </trkpt>
      <trkpt lat="44.00391" lon="7.24621">
        <ele>1466.15</ele>
        <time>2014-03-02T10:39:51Z</time>
      </trkpt>
      <trkpt lat="44.00392" lon="7.24619">
        <ele>1467.11</ele>
        <time>2014-03-02T10:40:04Z</time>
      </trkpt>
      <trkpt lat="44.00392" lon="7.24618">
        <ele>1468.07</ele>
        <time>2014-03-02T10:40:26Z</time>
      </trkpt>
      <trkpt lat="44.00396" lon="7.2461">
        <ele>1469.51</ele>
        <time>2014-03-02T10:40:37Z</time>
      </trkpt>
      <trkpt lat="44.00399" lon="7.24604">
        <ele>1471.44</ele>
        <time>2014-03-02T10:40:47Z</time>
      </trkpt>
      <trkpt lat="44.00403" lon="7.24601">
        <ele>1471.92</ele>
        <time>2014-03-02T10:41:00Z</time>
      </trkpt>
      <trkpt lat="44.00407" lon="7.24614">
        <ele>1472.4</ele>
        <time>2014-03-02T10:41:13Z</time>
      </trkpt>
      <trkpt lat="44.00407" lon="7.24623">
        <ele>1471.92</ele>
        <time>2014-03-02T10:41:24Z</time>
      </trkpt>
      <trkpt lat="44.00408" lon="7.24633">
        <ele>1471.44</ele>
        <time>2014-03-02T10:41:36Z</time>
      </trkpt>
      <trkpt lat="44.00407" lon="7.24633">
        <ele>1470.95</ele>
        <time>2014-03-02T10:42:06Z</time>
      </trkpt>
      <trkpt lat="44.00406" lon="7.24637">
        <ele>1471.44</ele>
        <time>2014-03-02T10:42:21Z</time>
      </trkpt>
      <trkpt lat="44.00406" lon="7.24653">
        <ele>1472.4</ele>
        <time>2014-03-02T10:42:33Z</time>
      </trkpt>
      <trkpt lat="44.00406" lon="7.24659">
        <ele>1473.84</ele>
        <time>2014-03-02T10:42:49Z</time>
      </trkpt>
      <trkpt lat="44.00407" lon="7.24662">
        <ele>1475.28</ele>
        <time>2014-03-02T10:43:19Z</time>
      </trkpt>
      <trkpt lat="44.00404" lon="7.24666">
        <ele>1476.24</ele>
        <time>2014-03-02T10:43:46Z</time>
      </trkpt>
      <trkpt lat="44.00403" lon="7.2468">
        <ele>1477.68</ele>
        <time>2014-03-02T10:44:00Z</time>
      </trkpt>
      <trkpt lat="44.00403" lon="7.24681">
        <ele>1478.65</ele>
        <time>2014-03-02T10:44:04Z</time>
      </trkpt>
      <trkpt lat="44.00404" lon="7.24678">
        <ele>1482.01</ele>
        <time>2014-03-02T10:44:17Z</time>
      </trkpt>
      <trkpt lat="44.00407" lon="7.24678">
        <ele>1482.97</ele>
        <time>2014-03-02T10:44:30Z</time>
      </trkpt>
      <trkpt lat="44.00406" lon="7.24676">
        <ele>1484.41</ele>
        <time>2014-03-02T10:44:48Z</time>
      </trkpt>
      <trkpt lat="44.00408" lon="7.24673">
        <ele>1485.37</ele>
        <time>2014-03-02T10:45:05Z</time>
      </trkpt>
      <trkpt lat="44.00415" lon="7.24667">
        <ele>1486.34</ele>
        <time>2014-03-02T10:45:17Z</time>
      </trkpt>
      <trkpt lat="44.0042" lon="7.24657">
        <ele>1489.22</ele>
        <time>2014-03-02T10:45:29Z</time>
      </trkpt>
      <trkpt lat="44.00425" lon="7.24651">
        <ele>1490.66</ele>
        <time>2014-03-02T10:45:41Z</time>
      </trkpt>
      <trkpt lat="44.00428" lon="7.24648">
        <ele>1491.62</ele>
        <time>2014-03-02T10:45:52Z</time>
      </trkpt>
      <trkpt lat="44.00431" lon="7.24645">
        <ele>1492.1</ele>
        <time>2014-03-02T10:46:04Z</time>
      </trkpt>
      <trkpt lat="44.00435" lon="7.24642">
        <ele>1493.06</ele>
        <time>2014-03-02T10:46:19Z</time>
      </trkpt>
      <trkpt lat="44.00438" lon="7.24639">
        <ele>1495.47</ele>
        <time>2014-03-02T10:46:36Z</time>
      </trkpt>
      <trkpt lat="44.00446" lon="7.24627">
        <ele>1494.51</ele>
        <time>2014-03-02T10:46:52Z</time>
      </trkpt>
      <trkpt lat="44.0045" lon="7.24622">
        <ele>1496.43</ele>
        <time>2014-03-02T10:47:06Z</time>
      </trkpt>
      <trkpt lat="44.00451" lon="7.24615">
        <ele>1499.79</ele>
        <time>2014-03-02T10:47:21Z</time>
      </trkpt>
      <trkpt lat="44.00455" lon="7.24614">
        <ele>1501.24</ele>
        <time>2014-03-02T10:47:34Z</time>
      </trkpt>
      <trkpt lat="44.00458" lon="7.24611">
        <ele>1503.16</ele>
        <time>2014-03-02T10:47:46Z</time>
      </trkpt>
      <trkpt lat="44.00458" lon="7.24612">
        <ele>1503.64</ele>
        <time>2014-03-02T10:48:09Z</time>
      </trkpt>
      <trkpt lat="44.00459" lon="7.24607">
        <ele>1505.08</ele>
        <time>2014-03-02T10:48:25Z</time>
      </trkpt>
      <trkpt lat="44.00462" lon="7.24603">
        <ele>1507.48</ele>
        <time>2014-03-02T10:48:43Z</time>
      </trkpt>
      <trkpt lat="44.00464" lon="7.246">
        <ele>1508.93</ele>
        <time>2014-03-02T10:48:55Z</time>
      </trkpt>
      <trkpt lat="44.00465" lon="7.24599">
        <ele>1509.89</ele>
        <time>2014-03-02T10:49:10Z</time>
      </trkpt>
      <trkpt lat="44.00465" lon="7.24599">
        <ele>1510.85</ele>
        <time>2014-03-02T10:49:26Z</time>
      </trkpt>
      <trkpt lat="44.00465" lon="7.24599">
        <ele>1510.85</ele>
        <time>2014-03-02T10:49:31Z</time>
      </trkpt>
      <trkpt lat="44.00467" lon="7.24597">
        <ele>1512.29</ele>
        <time>2014-03-02T10:49:41Z</time>
      </trkpt>
      <trkpt lat="44.00471" lon="7.24593">
        <ele>1510.37</ele>
        <time>2014-03-02T10:49:55Z</time>
      </trkpt>
      <trkpt lat="44.00472" lon="7.24594">
        <ele>1510.37</ele>
        <time>2014-03-02T10:50:14Z</time>
      </trkpt>
      <trkpt lat="44.00473" lon="7.24596">
        <ele>1509.41</ele>
        <time>2014-03-02T10:50:39Z</time>
      </trkpt>
      <trkpt lat="44.00474" lon="7.24599">
        <ele>1507.97</ele>
        <time>2014-03-02T10:51:09Z</time>
      </trkpt>
      <trkpt lat="44.00474" lon="7.24601">
        <ele>1507.97</ele>
        <time>2014-03-02T10:51:32Z</time>
      </trkpt>
      <trkpt lat="44.00474" lon="7.24601">
        <ele>1507</ele>
        <time>2014-03-02T10:51:56Z</time>
      </trkpt>
      <trkpt lat="44.00474" lon="7.24601">
        <ele>1507</ele>
        <time>2014-03-02T10:52:21Z</time>
      </trkpt>
      <trkpt lat="44.00474" lon="7.246">
        <ele>1507</ele>
        <time>2014-03-02T10:52:47Z</time>
      </trkpt>
      <trkpt lat="44.00474" lon="7.246">
        <ele>1507</ele>
        <time>2014-03-02T10:53:10Z</time>
      </trkpt>
      <trkpt lat="44.00474" lon="7.246">
        <ele>1507.48</ele>
        <time>2014-03-02T10:53:41Z</time>
      </trkpt>
      <trkpt lat="44.00473" lon="7.246">
        <ele>1506.52</ele>
        <time>2014-03-02T10:54:15Z</time>
      </trkpt>
      <trkpt lat="44.00475" lon="7.24595">
        <ele>1507.48</ele>
        <time>2014-03-02T10:54:31Z</time>
      </trkpt>
      <trkpt lat="44.00478" lon="7.24584">
        <ele>1507.48</ele>
        <time>2014-03-02T10:54:42Z</time>
      </trkpt>
      <trkpt lat="44.0048" lon="7.24574">
        <ele>1506.52</ele>
        <time>2014-03-02T10:54:54Z</time>
      </trkpt>
      <trkpt lat="44.00482" lon="7.2457">
        <ele>1507</ele>
        <time>2014-03-02T10:55:05Z</time>
      </trkpt>
      <trkpt lat="44.00486" lon="7.24561">
        <ele>1508.45</ele>
        <time>2014-03-02T10:55:21Z</time>
      </trkpt>
      <trkpt lat="44.0049" lon="7.24558">
        <ele>1508.93</ele>
        <time>2014-03-02T10:55:38Z</time>
      </trkpt>
      <trkpt lat="44.00493" lon="7.24554">
        <ele>1508.93</ele>
        <time>2014-03-02T10:55:51Z</time>
      </trkpt>
      <trkpt lat="44.00494" lon="7.2455">
        <ele>1509.41</ele>
        <time>2014-03-02T10:56:05Z</time>
      </trkpt>
      <trkpt lat="44.00497" lon="7.24544">
        <ele>1510.85</ele>
        <time>2014-03-02T10:56:17Z</time>
      </trkpt>
      <trkpt lat="44.00496" lon="7.24543">
        <ele>1513.73</ele>
        <time>2014-03-02T10:56:40Z</time>
      </trkpt>
      <trkpt lat="44.00496" lon="7.24541">
        <ele>1515.18</ele>
        <time>2014-03-02T10:57:04Z</time>
      </trkpt>
      <trkpt lat="44.00498" lon="7.24538">
        <ele>1516.14</ele>
        <time>2014-03-02T10:57:17Z</time>
      </trkpt>
      <trkpt lat="44.005" lon="7.24536">
        <ele>1516.14</ele>
        <time>2014-03-02T10:57:29Z</time>
      </trkpt>
      <trkpt lat="44.00504" lon="7.24528">
        <ele>1519.02</ele>
        <time>2014-03-02T10:57:40Z</time>
      </trkpt>
      <trkpt lat="44.00506" lon="7.24523">
        <ele>1521.9</ele>
        <time>2014-03-02T10:57:53Z</time>
      </trkpt>
      <trkpt lat="44.00506" lon="7.24523">
        <ele>1523.83</ele>
        <time>2014-03-02T10:58:01Z</time>
      </trkpt>
      <trkpt lat="44.00509" lon="7.24521">
        <ele>1525.27</ele>
        <time>2014-03-02T10:58:16Z</time>
      </trkpt>
      <trkpt lat="44.00509" lon="7.24522">
        <ele>1525.75</ele>
        <time>2014-03-02T10:58:42Z</time>
      </trkpt>
      <trkpt lat="44.0051" lon="7.24522">
        <ele>1525.75</ele>
        <time>2014-03-02T10:59:10Z</time>
      </trkpt>
      <trkpt lat="44.0051" lon="7.24524">
        <ele>1526.23</ele>
        <time>2014-03-02T10:59:31Z</time>
      </trkpt>
      <trkpt lat="44.00511" lon="7.24523">
        <ele>1526.23</ele>
        <time>2014-03-02T10:59:56Z</time>
      </trkpt>
      <trkpt lat="44.00511" lon="7.24522">
        <ele>1526.71</ele>
        <time>2014-03-02T11:00:11Z</time>
      </trkpt>
      <trkpt lat="44.00513" lon="7.24521">
        <ele>1527.19</ele>
        <time>2014-03-02T11:00:24Z</time>
      </trkpt>
      <trkpt lat="44.00513" lon="7.24521">
        <ele>1528.15</ele>
        <time>2014-03-02T11:00:35Z</time>
      </trkpt>
      <trkpt lat="44.00516" lon="7.2452">
        <ele>1529.11</ele>
        <time>2014-03-02T11:00:48Z</time>
      </trkpt>
      <trkpt lat="44.0052" lon="7.24517">
        <ele>1530.08</ele>
        <time>2014-03-02T11:01:01Z</time>
      </trkpt>
      <trkpt lat="44.00524" lon="7.24516">
        <ele>1531.52</ele>
        <time>2014-03-02T11:01:17Z</time>
      </trkpt>
      <trkpt lat="44.00528" lon="7.24514">
        <ele>1535.36</ele>
        <time>2014-03-02T11:01:30Z</time>
      </trkpt>
      <trkpt lat="44.00534" lon="7.24511">
        <ele>1534.88</ele>
        <time>2014-03-02T11:01:43Z</time>
      </trkpt>
      <trkpt lat="44.00538" lon="7.24509">
        <ele>1532</ele>
        <time>2014-03-02T11:02:03Z</time>
      </trkpt>
      <trkpt lat="44.00539" lon="7.24507">
        <ele>1531.52</ele>
        <time>2014-03-02T11:02:23Z</time>
      </trkpt>
      <trkpt lat="44.00547" lon="7.24512">
        <ele>1531.04</ele>
        <time>2014-03-02T11:02:36Z</time>
      </trkpt>
      <trkpt lat="44.00546" lon="7.2451">
        <ele>1531.04</ele>
        <time>2014-03-02T11:03:04Z</time>
      </trkpt>
      <trkpt lat="44.0055" lon="7.24512">
        <ele>1532</ele>
        <time>2014-03-02T11:03:17Z</time>
      </trkpt>
      <trkpt lat="44.0055" lon="7.24511">
        <ele>1534.4</ele>
        <time>2014-03-02T11:03:30Z</time>
      </trkpt>
      <trkpt lat="44.0055" lon="7.24511">
        <ele>1537.77</ele>
        <time>2014-03-02T11:03:43Z</time>
      </trkpt>
      <trkpt lat="44.0055" lon="7.24505">
        <ele>1541.13</ele>
        <time>2014-03-02T11:03:56Z</time>
      </trkpt>
      <trkpt lat="44.00549" lon="7.24501">
        <ele>1543.53</ele>
        <time>2014-03-02T11:04:07Z</time>
      </trkpt>
      <trkpt lat="44.00551" lon="7.24494">
        <ele>1543.53</ele>
        <time>2014-03-02T11:04:20Z</time>
      </trkpt>
      <trkpt lat="44.00552" lon="7.24486">
        <ele>1544.98</ele>
        <time>2014-03-02T11:04:31Z</time>
      </trkpt>
      <trkpt lat="44.00554" lon="7.24479">
        <ele>1547.38</ele>
        <time>2014-03-02T11:04:44Z</time>
      </trkpt>
      <trkpt lat="44.00557" lon="7.24475">
        <ele>1547.38</ele>
        <time>2014-03-02T11:04:55Z</time>
      </trkpt>
      <trkpt lat="44.00557" lon="7.24475">
        <ele>1546.9</ele>
        <time>2014-03-02T11:05:12Z</time>
      </trkpt>
      <trkpt lat="44.00556" lon="7.24474">
        <ele>1546.42</ele>
        <time>2014-03-02T11:05:35Z</time>
      </trkpt>
      <trkpt lat="44.0056" lon="7.24467">
        <ele>1545.46</ele>
        <time>2014-03-02T11:05:50Z</time>
      </trkpt>
      <trkpt lat="44.00566" lon="7.24459">
        <ele>1542.57</ele>
        <time>2014-03-02T11:06:03Z</time>
      </trkpt>
      <trkpt lat="44.00567" lon="7.24453">
        <ele>1541.61</ele>
        <time>2014-03-02T11:06:15Z</time>
      </trkpt>
      <trkpt lat="44.00567" lon="7.24453">
        <ele>1541.13</ele>
        <time>2014-03-02T11:06:34Z</time>
      </trkpt>
      <trkpt lat="44.00568" lon="7.2445">
        <ele>1540.65</ele>
        <time>2014-03-02T11:06:47Z</time>
      </trkpt>
      <trkpt lat="44.00572" lon="7.24441">
        <ele>1539.21</ele>
        <time>2014-03-02T11:07:01Z</time>
      </trkpt>
      <trkpt lat="44.00573" lon="7.24434">
        <ele>1539.69</ele>
        <time>2014-03-02T11:07:13Z</time>
      </trkpt>
      <trkpt lat="44.00575" lon="7.24432">
        <ele>1541.61</ele>
        <time>2014-03-02T11:07:35Z</time>
      </trkpt>
      <trkpt lat="44.00578" lon="7.24425">
        <ele>1544.5</ele>
        <time>2014-03-02T11:07:47Z</time>
      </trkpt>
      <trkpt lat="44.00582" lon="7.24423">
        <ele>1546.42</ele>
        <time>2014-03-02T11:08:00Z</time>
      </trkpt>
      <trkpt lat="44.00587" lon="7.24418">
        <ele>1548.34</ele>
        <time>2014-03-02T11:08:10Z</time>
      </trkpt>
      <trkpt lat="44.00594" lon="7.24412">
        <ele>1548.34</ele>
        <time>2014-03-02T11:08:23Z</time>
      </trkpt>
      <trkpt lat="44.00599" lon="7.24408">
        <ele>1550.74</ele>
        <time>2014-03-02T11:08:33Z</time>
      </trkpt>
      <trkpt lat="44.00602" lon="7.24403">
        <ele>1550.74</ele>
        <time>2014-03-02T11:08:44Z</time>
      </trkpt>
      <trkpt lat="44.00603" lon="7.24405">
        <ele>1550.74</ele>
        <time>2014-03-02T11:09:03Z</time>
      </trkpt>
      <trkpt lat="44.00604" lon="7.24404">
        <ele>1550.74</ele>
        <time>2014-03-02T11:09:27Z</time>
      </trkpt>
      <trkpt lat="44.00603" lon="7.24403">
        <ele>1549.78</ele>
        <time>2014-03-02T11:09:47Z</time>
      </trkpt>
      <trkpt lat="44.00604" lon="7.24402">
        <ele>1549.78</ele>
        <time>2014-03-02T11:10:13Z</time>
      </trkpt>
      <trkpt lat="44.00604" lon="7.24404">
        <ele>1551.22</ele>
        <time>2014-03-02T11:10:35Z</time>
      </trkpt>
      <trkpt lat="44.00604" lon="7.24404">
        <ele>1551.71</ele>
        <time>2014-03-02T11:10:50Z</time>
      </trkpt>
      <trkpt lat="44.00604" lon="7.24403">
        <ele>1551.71</ele>
        <time>2014-03-02T11:11:16Z</time>
      </trkpt>
      <trkpt lat="44.00604" lon="7.24403">
        <ele>1552.19</ele>
        <time>2014-03-02T11:11:40Z</time>
      </trkpt>
      <trkpt lat="44.00603" lon="7.24401">
        <ele>1553.15</ele>
        <time>2014-03-02T11:12:04Z</time>
      </trkpt>
      <trkpt lat="44.00601" lon="7.24405">
        <ele>1553.15</ele>
        <time>2014-03-02T11:12:17Z</time>
      </trkpt>
      <trkpt lat="44.00601" lon="7.24408">
        <ele>1554.11</ele>
        <time>2014-03-02T11:12:35Z</time>
      </trkpt>
      <trkpt lat="44.00597" lon="7.24415">
        <ele>1553.63</ele>
        <time>2014-03-02T11:12:47Z</time>
      </trkpt>
      <trkpt lat="44.00593" lon="7.24419">
        <ele>1551.71</ele>
        <time>2014-03-02T11:12:53Z</time>
      </trkpt>
      <trkpt lat="44.0059" lon="7.24424">
        <ele>1551.22</ele>
        <time>2014-03-02T11:13:05Z</time>
      </trkpt>
      <trkpt lat="44.00584" lon="7.24427">
        <ele>1547.86</ele>
        <time>2014-03-02T11:13:18Z</time>
      </trkpt>
      <trkpt lat="44.00578" lon="7.24431">
        <ele>1547.86</ele>
        <time>2014-03-02T11:13:28Z</time>
      </trkpt>
      <trkpt lat="44.00576" lon="7.24434">
        <ele>1546.42</ele>
        <time>2014-03-02T11:13:41Z</time>
      </trkpt>
      <trkpt lat="44.00574" lon="7.24446">
        <ele>1542.09</ele>
        <time>2014-03-02T11:13:54Z</time>
      </trkpt>
      <trkpt lat="44.00573" lon="7.2445">
        <ele>1540.65</ele>
        <time>2014-03-02T11:14:00Z</time>
      </trkpt>
      <trkpt lat="44.00572" lon="7.24455">
        <ele>1537.29</ele>
        <time>2014-03-02T11:14:12Z</time>
      </trkpt>
      <trkpt lat="44.00572" lon="7.24456">
        <ele>1536.8</ele>
        <time>2014-03-02T11:14:31Z</time>
      </trkpt>
      <trkpt lat="44.0057" lon="7.24466">
        <ele>1534.88</ele>
        <time>2014-03-02T11:14:46Z</time>
      </trkpt>
      <trkpt lat="44.00565" lon="7.24478">
        <ele>1532.96</ele>
        <time>2014-03-02T11:15:01Z</time>
      </trkpt>
      <trkpt lat="44.00565" lon="7.2448">
        <ele>1533.44</ele>
        <time>2014-03-02T11:15:19Z</time>
      </trkpt>
      <trkpt lat="44.00564" lon="7.24482">
        <ele>1533.44</ele>
        <time>2014-03-02T11:15:39Z</time>
      </trkpt>
      <trkpt lat="44.00558" lon="7.24487">
        <ele>1532.96</ele>
        <time>2014-03-02T11:15:50Z</time>
      </trkpt>
      <trkpt lat="44.00558" lon="7.24497">
        <ele>1532</ele>
        <time>2014-03-02T11:16:01Z</time>
      </trkpt>
      <trkpt lat="44.0056" lon="7.24505">
        <ele>1530.08</ele>
        <time>2014-03-02T11:16:09Z</time>
      </trkpt>
      <trkpt lat="44.0056" lon="7.24508">
        <ele>1529.11</ele>
        <time>2014-03-02T11:16:12Z</time>
      </trkpt>
      <trkpt lat="44.0056" lon="7.24512">
        <ele>1528.63</ele>
        <time>2014-03-02T11:16:14Z</time>
      </trkpt>
      <trkpt lat="44.00557" lon="7.24517">
        <ele>1528.15</ele>
        <time>2014-03-02T11:16:26Z</time>
      </trkpt>
      <trkpt lat="44.00556" lon="7.24518">
        <ele>1528.15</ele>
        <time>2014-03-02T11:16:42Z</time>
      </trkpt>
      <trkpt lat="44.00549" lon="7.2452">
        <ele>1526.23</ele>
        <time>2014-03-02T11:16:55Z</time>
      </trkpt>
      <trkpt lat="44.00543" lon="7.24523">
        <ele>1523.83</ele>
        <time>2014-03-02T11:17:07Z</time>
      </trkpt>
      <trkpt lat="44.00535" lon="7.24525">
        <ele>1522.39</ele>
        <time>2014-03-02T11:17:19Z</time>
      </trkpt>
      <trkpt lat="44.00527" lon="7.24529">
        <ele>1522.39</ele>
        <time>2014-03-02T11:17:31Z</time>
      </trkpt>
      <trkpt lat="44.00523" lon="7.2453">
        <ele>1521.9</ele>
        <time>2014-03-02T11:17:36Z</time>
      </trkpt>
      <trkpt lat="44.00515" lon="7.24532">
        <ele>1519.98</ele>
        <time>2014-03-02T11:17:49Z</time>
      </trkpt>
      <trkpt lat="44.00515" lon="7.24533">
        <ele>1518.54</ele>
        <time>2014-03-02T11:18:07Z</time>
      </trkpt>
      <trkpt lat="44.00514" lon="7.24533">
        <ele>1518.54</ele>
        <time>2014-03-02T11:18:25Z</time>
      </trkpt>
      <trkpt lat="44.0051" lon="7.24534">
        <ele>1519.5</ele>
        <time>2014-03-02T11:18:44Z</time>
      </trkpt>
      <trkpt lat="44.00506" lon="7.24538">
        <ele>1518.06</ele>
        <time>2014-03-02T11:18:59Z</time>
      </trkpt>
      <trkpt lat="44.00503" lon="7.2454">
        <ele>1518.54</ele>
        <time>2014-03-02T11:19:17Z</time>
      </trkpt>
      <trkpt lat="44.00503" lon="7.2454">
        <ele>1518.06</ele>
        <time>2014-03-02T11:19:34Z</time>
      </trkpt>
      <trkpt lat="44.00501" lon="7.24542">
        <ele>1517.1</ele>
        <time>2014-03-02T11:19:52Z</time>
      </trkpt>
      <trkpt lat="44.00497" lon="7.24552">
        <ele>1514.21</ele>
        <time>2014-03-02T11:20:06Z</time>
      </trkpt>
      <trkpt lat="44.00495" lon="7.24559">
        <ele>1513.73</ele>
        <time>2014-03-02T11:20:21Z</time>
      </trkpt>
      <trkpt lat="44.00491" lon="7.24567">
        <ele>1512.29</ele>
        <time>2014-03-02T11:20:37Z</time>
      </trkpt>
      <trkpt lat="44.00488" lon="7.24573">
        <ele>1512.29</ele>
        <time>2014-03-02T11:20:51Z</time>
      </trkpt>
      <trkpt lat="44.00482" lon="7.24578">
        <ele>1512.77</ele>
        <time>2014-03-02T11:21:04Z</time>
      </trkpt>
      <trkpt lat="44.00479" lon="7.24589">
        <ele>1512.29</ele>
        <time>2014-03-02T11:21:22Z</time>
      </trkpt>
      <trkpt lat="44.00478" lon="7.24592">
        <ele>1512.77</ele>
        <time>2014-03-02T11:21:35Z</time>
      </trkpt>
      <trkpt lat="44.00476" lon="7.24597">
        <ele>1511.81</ele>
        <time>2014-03-02T11:21:46Z</time>
      </trkpt>
      <trkpt lat="44.00477" lon="7.24601">
        <ele>1511.81</ele>
        <time>2014-03-02T11:22:15Z</time>
      </trkpt>
      <trkpt lat="44.00477" lon="7.246">
        <ele>1511.81</ele>
        <time>2014-03-02T11:22:29Z</time>
      </trkpt>
      <trkpt lat="44.00477" lon="7.24598">
        <ele>1511.81</ele>
        <time>2014-03-02T11:22:49Z</time>
      </trkpt>
      <trkpt lat="44.00476" lon="7.24601">
        <ele>1511.33</ele>
        <time>2014-03-02T11:23:15Z</time>
      </trkpt>
      <trkpt lat="44.00473" lon="7.24604">
        <ele>1511.33</ele>
        <time>2014-03-02T11:23:29Z</time>
      </trkpt>
      <trkpt lat="44.0047" lon="7.24605">
        <ele>1510.37</ele>
        <time>2014-03-02T11:23:46Z</time>
      </trkpt>
      <trkpt lat="44.00468" lon="7.24607">
        <ele>1510.37</ele>
        <time>2014-03-02T11:24:01Z</time>
      </trkpt>
      <trkpt lat="44.00465" lon="7.2461">
        <ele>1510.37</ele>
        <time>2014-03-02T11:24:17Z</time>
      </trkpt>
      <trkpt lat="44.0046" lon="7.24614">
        <ele>1510.85</ele>
        <time>2014-03-02T11:24:32Z</time>
      </trkpt>
      <trkpt lat="44.00455" lon="7.24624">
        <ele>1512.77</ele>
        <time>2014-03-02T11:24:47Z</time>
      </trkpt>
      <trkpt lat="44.00451" lon="7.24626">
        <ele>1511.81</ele>
        <time>2014-03-02T11:24:58Z</time>
      </trkpt>
      <trkpt lat="44.00448" lon="7.24632">
        <ele>1510.85</ele>
        <time>2014-03-02T11:25:14Z</time>
      </trkpt>
      <trkpt lat="44.00445" lon="7.24634">
        <ele>1509.89</ele>
        <time>2014-03-02T11:25:28Z</time>
      </trkpt>
      <trkpt lat="44.00438" lon="7.24641">
        <ele>1508.93</ele>
        <time>2014-03-02T11:25:42Z</time>
      </trkpt>
      <trkpt lat="44.00434" lon="7.24646">
        <ele>1507.48</ele>
        <time>2014-03-02T11:25:58Z</time>
      </trkpt>
      <trkpt lat="44.00429" lon="7.24657">
        <ele>1502.2</ele>
        <time>2014-03-02T11:26:16Z</time>
      </trkpt>
      <trkpt lat="44.00417" lon="7.24669">
        <ele>1500.27</ele>
        <time>2014-03-02T11:26:31Z</time>
      </trkpt>
      <trkpt lat="44.00412" lon="7.24675">
        <ele>1500.27</ele>
        <time>2014-03-02T11:26:46Z</time>
      </trkpt>
      <trkpt lat="44.00404" lon="7.24684">
        <ele>1497.87</ele>
        <time>2014-03-02T11:27:00Z</time>
      </trkpt>
      <trkpt lat="44.00394" lon="7.24682">
        <ele>1496.43</ele>
        <time>2014-03-02T11:27:12Z</time>
      </trkpt>
      <trkpt lat="44.00398" lon="7.24673">
        <ele>1487.3</ele>
        <time>2014-03-02T11:27:25Z</time>
      </trkpt>
      <trkpt lat="44.004" lon="7.24667">
        <ele>1484.89</ele>
        <time>2014-03-02T11:27:30Z</time>
      </trkpt>
      <trkpt lat="44.00402" lon="7.24658">
        <ele>1481.53</ele>
        <time>2014-03-02T11:27:43Z</time>
      </trkpt>
      <trkpt lat="44.00401" lon="7.24651">
        <ele>1482.01</ele>
        <time>2014-03-02T11:27:53Z</time>
      </trkpt>
      <trkpt lat="44.00401" lon="7.24644">
        <ele>1482.49</ele>
        <time>2014-03-02T11:28:07Z</time>
      </trkpt>
      <trkpt lat="44.00401" lon="7.24635">
        <ele>1482.97</ele>
        <time>2014-03-02T11:28:15Z</time>
      </trkpt>
      <trkpt lat="44.00402" lon="7.24625">
        <ele>1483.45</ele>
        <time>2014-03-02T11:28:28Z</time>
      </trkpt>
      <trkpt lat="44.00403" lon="7.24618">
        <ele>1481.05</ele>
        <time>2014-03-02T11:28:40Z</time>
      </trkpt>
      <trkpt lat="44.00406" lon="7.24606">
        <ele>1476.72</ele>
        <time>2014-03-02T11:28:51Z</time>
      </trkpt>
      <trkpt lat="44.00404" lon="7.24609">
        <ele>1473.84</ele>
        <time>2014-03-02T11:29:03Z</time>
      </trkpt>
      <trkpt lat="44.00403" lon="7.24611">
        <ele>1471.92</ele>
        <time>2014-03-02T11:29:26Z</time>
      </trkpt>
      <trkpt lat="44.004" lon="7.24617">
        <ele>1473.36</ele>
        <time>2014-03-02T11:29:41Z</time>
      </trkpt>
      <trkpt lat="44.00396" lon="7.24622">
        <ele>1473.84</ele>
        <time>2014-03-02T11:29:53Z</time>
      </trkpt>
      <trkpt lat="44.00391" lon="7.24625">
        <ele>1473.84</ele>
        <time>2014-03-02T11:30:08Z</time>
      </trkpt>
      <trkpt lat="44.00385" lon="7.24632">
        <ele>1471.92</ele>
        <time>2014-03-02T11:30:23Z</time>
      </trkpt>
      <trkpt lat="44.00382" lon="7.24637">
        <ele>1469.99</ele>
        <time>2014-03-02T11:30:38Z</time>
      </trkpt>
      <trkpt lat="44.00374" lon="7.24641">
        <ele>1466.63</ele>
        <time>2014-03-02T11:30:51Z</time>
      </trkpt>
      <trkpt lat="44.00368" lon="7.24644">
        <ele>1462.78</ele>
        <time>2014-03-02T11:31:03Z</time>
      </trkpt>
      <trkpt lat="44.0036" lon="7.24647">
        <ele>1459.9</ele>
        <time>2014-03-02T11:31:16Z</time>
      </trkpt>
      <trkpt lat="44.00356" lon="7.24647">
        <ele>1459.42</ele>
        <time>2014-03-02T11:31:32Z</time>
      </trkpt>
      <trkpt lat="44.00347" lon="7.24649">
        <ele>1456.53</ele>
        <time>2014-03-02T11:31:43Z</time>
      </trkpt>
      <trkpt lat="44.00345" lon="7.2465">
        <ele>1456.53</ele>
        <time>2014-03-02T11:31:45Z</time>
      </trkpt>
      <trkpt lat="44.00342" lon="7.24649">
        <ele>1455.57</ele>
        <time>2014-03-02T11:31:48Z</time>
      </trkpt>
      <trkpt lat="44.00336" lon="7.24648">
        <ele>1453.17</ele>
        <time>2014-03-02T11:31:54Z</time>
      </trkpt>
      <trkpt lat="44.00333" lon="7.24648">
        <ele>1452.69</ele>
        <time>2014-03-02T11:31:57Z</time>
      </trkpt>
      <trkpt lat="44.00327" lon="7.24648">
        <ele>1451.73</ele>
        <time>2014-03-02T11:32:03Z</time>
      </trkpt>
      <trkpt lat="44.00322" lon="7.24649">
        <ele>1451.25</ele>
        <time>2014-03-02T11:32:15Z</time>
      </trkpt>
      <trkpt lat="44.00323" lon="7.24651">
        <ele>1449.32</ele>
        <time>2014-03-02T11:32:28Z</time>
      </trkpt>
      <trkpt lat="44.00325" lon="7.24655">
        <ele>1448.36</ele>
        <time>2014-03-02T11:32:41Z</time>
      </trkpt>
      <trkpt lat="44.00326" lon="7.24659">
        <ele>1446.92</ele>
        <time>2014-03-02T11:32:47Z</time>
      </trkpt>
      <trkpt lat="44.00328" lon="7.24673">
        <ele>1443.56</ele>
        <time>2014-03-02T11:33:01Z</time>
      </trkpt>
      <trkpt lat="44.00329" lon="7.24677">
        <ele>1442.11</ele>
        <time>2014-03-02T11:33:22Z</time>
      </trkpt>
      <trkpt lat="44.00332" lon="7.24683">
        <ele>1439.71</ele>
        <time>2014-03-02T11:33:38Z</time>
      </trkpt>
      <trkpt lat="44.00334" lon="7.24693">
        <ele>1437.31</ele>
        <time>2014-03-02T11:33:51Z</time>
      </trkpt>
      <trkpt lat="44.00338" lon="7.24702">
        <ele>1434.42</ele>
        <time>2014-03-02T11:34:02Z</time>
      </trkpt>
      <trkpt lat="44.00338" lon="7.2471">
        <ele>1433.46</ele>
        <time>2014-03-02T11:34:14Z</time>
      </trkpt>
      <trkpt lat="44.00335" lon="7.24719">
        <ele>1432.98</ele>
        <time>2014-03-02T11:34:29Z</time>
      </trkpt>
      <trkpt lat="44.00333" lon="7.24724">
        <ele>1432.02</ele>
        <time>2014-03-02T11:34:42Z</time>
      </trkpt>
      <trkpt lat="44.00334" lon="7.24723">
        <ele>1431.54</ele>
        <time>2014-03-02T11:35:06Z</time>
      </trkpt>
      <trkpt lat="44.00334" lon="7.24738">
        <ele>1425.77</ele>
        <time>2014-03-02T11:35:22Z</time>
      </trkpt>
      <trkpt lat="44.00337" lon="7.24753">
        <ele>1427.21</ele>
        <time>2014-03-02T11:35:34Z</time>
      </trkpt>
      <trkpt lat="44.00338" lon="7.24769">
        <ele>1426.73</ele>
        <time>2014-03-02T11:35:47Z</time>
      </trkpt>
      <trkpt lat="44.0034" lon="7.24777">
        <ele>1424.81</ele>
        <time>2014-03-02T11:35:59Z</time>
      </trkpt>
      <trkpt lat="44.0034" lon="7.24778">
        <ele>1424.81</ele>
        <time>2014-03-02T11:36:03Z</time>
      </trkpt>
      <trkpt lat="44.00342" lon="7.24788">
        <ele>1425.77</ele>
        <time>2014-03-02T11:36:14Z</time>
      </trkpt>
      <trkpt lat="44.00342" lon="7.24795">
        <ele>1426.25</ele>
        <time>2014-03-02T11:36:24Z</time>
      </trkpt>
      <trkpt lat="44.00344" lon="7.24806">
        <ele>1424.33</ele>
        <time>2014-03-02T11:36:37Z</time>
      </trkpt>
      <trkpt lat="44.00345" lon="7.24815">
        <ele>1424.81</ele>
        <time>2014-03-02T11:36:51Z</time>
      </trkpt>
      <trkpt lat="44.00345" lon="7.24823">
        <ele>1424.81</ele>
        <time>2014-03-02T11:37:08Z</time>
      </trkpt>
      <trkpt lat="44.00348" lon="7.24837">
        <ele>1426.73</ele>
        <time>2014-03-02T11:37:21Z</time>
      </trkpt>
      <trkpt lat="44.00351" lon="7.24846">
        <ele>1425.29</ele>
        <time>2014-03-02T11:37:33Z</time>
      </trkpt>
      <trkpt lat="44.00352" lon="7.24848">
        <ele>1425.29</ele>
        <time>2014-03-02T11:37:54Z</time>
      </trkpt>
      <trkpt lat="44.00347" lon="7.2486">
        <ele>1426.73</ele>
        <time>2014-03-02T11:38:07Z</time>
      </trkpt>
      <trkpt lat="44.00344" lon="7.24865">
        <ele>1426.25</ele>
        <time>2014-03-02T11:38:10Z</time>
      </trkpt>
      <trkpt lat="44.00335" lon="7.24871">
        <ele>1424.33</ele>
        <time>2014-03-02T11:38:22Z</time>
      </trkpt>
      <trkpt lat="44.00332" lon="7.24871">
        <ele>1422.89</ele>
        <time>2014-03-02T11:38:32Z</time>
      </trkpt>
      <trkpt lat="44.00322" lon="7.24871">
        <ele>1421.45</ele>
        <time>2014-03-02T11:38:44Z</time>
      </trkpt>
      <trkpt lat="44.00315" lon="7.24866">
        <ele>1418.08</ele>
        <time>2014-03-02T11:38:56Z</time>
      </trkpt>
      <trkpt lat="44.00309" lon="7.2486">
        <ele>1413.76</ele>
        <time>2014-03-02T11:39:09Z</time>
      </trkpt>
      <trkpt lat="44.00308" lon="7.24861">
        <ele>1412.31</ele>
        <time>2014-03-02T11:39:13Z</time>
      </trkpt>
      <trkpt lat="44.00304" lon="7.24862">
        <ele>1408.95</ele>
        <time>2014-03-02T11:39:25Z</time>
      </trkpt>
      <trkpt lat="44.003" lon="7.24867">
        <ele>1407.03</ele>
        <time>2014-03-02T11:39:37Z</time>
      </trkpt>
      <trkpt lat="44.00294" lon="7.24874">
        <ele>1407.03</ele>
        <time>2014-03-02T11:39:50Z</time>
      </trkpt>
      <trkpt lat="44.00284" lon="7.24875">
        <ele>1406.55</ele>
        <time>2014-03-02T11:40:00Z</time>
      </trkpt>
      <trkpt lat="44.00276" lon="7.24866">
        <ele>1402.22</ele>
        <time>2014-03-02T11:40:13Z</time>
      </trkpt>
      <trkpt lat="44.00274" lon="7.24864">
        <ele>1401.26</ele>
        <time>2014-03-02T11:40:32Z</time>
      </trkpt>
      <trkpt lat="44.00268" lon="7.24854">
        <ele>1397.89</ele>
        <time>2014-03-02T11:40:45Z</time>
      </trkpt>
      <trkpt lat="44.00267" lon="7.24848">
        <ele>1394.53</ele>
        <time>2014-03-02T11:40:59Z</time>
      </trkpt>
      <trkpt lat="44.00264" lon="7.24842">
        <ele>1392.13</ele>
        <time>2014-03-02T11:41:13Z</time>
      </trkpt>
      <trkpt lat="44.00257" lon="7.24839">
        <ele>1390.68</ele>
        <time>2014-03-02T11:41:25Z</time>
      </trkpt>
      <trkpt lat="44.0025" lon="7.24844">
        <ele>1390.68</ele>
        <time>2014-03-02T11:41:37Z</time>
      </trkpt>
      <trkpt lat="44.00249" lon="7.24847">
        <ele>1390.68</ele>
        <time>2014-03-02T11:41:56Z</time>
      </trkpt>
      <trkpt lat="44.00246" lon="7.24851">
        <ele>1389.72</ele>
        <time>2014-03-02T11:42:10Z</time>
      </trkpt>
      <trkpt lat="44.00241" lon="7.24864">
        <ele>1387.32</ele>
        <time>2014-03-02T11:42:23Z</time>
      </trkpt>
      <trkpt lat="44.00239" lon="7.24874">
        <ele>1386.36</ele>
        <time>2014-03-02T11:42:38Z</time>
      </trkpt>
      <trkpt lat="44.00237" lon="7.24878">
        <ele>1385.88</ele>
        <time>2014-03-02T11:42:42Z</time>
      </trkpt>
      <trkpt lat="44.00234" lon="7.24884">
        <ele>1383.47</ele>
        <time>2014-03-02T11:42:52Z</time>
      </trkpt>
      <trkpt lat="44.0023" lon="7.24896">
        <ele>1382.03</ele>
        <time>2014-03-02T11:43:04Z</time>
      </trkpt>
      <trkpt lat="44.00223" lon="7.24906">
        <ele>1380.59</ele>
        <time>2014-03-02T11:43:15Z</time>
      </trkpt>
      <trkpt lat="44.00218" lon="7.24913">
        <ele>1378.19</ele>
        <time>2014-03-02T11:43:27Z</time>
      </trkpt>
      <trkpt lat="44.00219" lon="7.24914">
        <ele>1377.71</ele>
        <time>2014-03-02T11:43:48Z</time>
      </trkpt>
      <trkpt lat="44.00212" lon="7.24921">
        <ele>1378.19</ele>
        <time>2014-03-02T11:44:08Z</time>
      </trkpt>
      <trkpt lat="44.00204" lon="7.24928">
        <ele>1378.67</ele>
        <time>2014-03-02T11:44:18Z</time>
      </trkpt>
      <trkpt lat="44.00195" lon="7.24938">
        <ele>1375.3</ele>
        <time>2014-03-02T11:44:32Z</time>
      </trkpt>
      <trkpt lat="44.00189" lon="7.24945">
        <ele>1373.86</ele>
        <time>2014-03-02T11:44:46Z</time>
      </trkpt>
      <trkpt lat="44.00184" lon="7.24953">
        <ele>1372.9</ele>
        <time>2014-03-02T11:44:58Z</time>
      </trkpt>
      <trkpt lat="44.00182" lon="7.24958">
        <ele>1371.46</ele>
        <time>2014-03-02T11:45:03Z</time>
      </trkpt>
      <trkpt lat="44.00178" lon="7.24967">
        <ele>1370.02</ele>
        <time>2014-03-02T11:45:14Z</time>
      </trkpt>
      <trkpt lat="44.00171" lon="7.24977">
        <ele>1370.02</ele>
        <time>2014-03-02T11:45:26Z</time>
      </trkpt>
      <trkpt lat="44.00166" lon="7.24985">
        <ele>1369.05</ele>
        <time>2014-03-02T11:45:38Z</time>
      </trkpt>
      <trkpt lat="44.00161" lon="7.24991">
        <ele>1370.02</ele>
        <time>2014-03-02T11:45:50Z</time>
      </trkpt>
      <trkpt lat="44.00158" lon="7.24998">
        <ele>1370.02</ele>
        <time>2014-03-02T11:46:04Z</time>
      </trkpt>
      <trkpt lat="44.00156" lon="7.25003">
        <ele>1370.98</ele>
        <time>2014-03-02T11:46:17Z</time>
      </trkpt>
      <trkpt lat="44.00147" lon="7.25011">
        <ele>1370.5</ele>
        <time>2014-03-02T11:46:30Z</time>
      </trkpt>
      <trkpt lat="44.00137" lon="7.25014">
        <ele>1370.02</ele>
        <time>2014-03-02T11:46:43Z</time>
      </trkpt>
      <trkpt lat="44.00131" lon="7.25014">
        <ele>1370.98</ele>
        <time>2014-03-02T11:46:55Z</time>
      </trkpt>
      <trkpt lat="44.00131" lon="7.25013">
        <ele>1371.94</ele>
        <time>2014-03-02T11:47:15Z</time>
      </trkpt>
      <trkpt lat="44.00126" lon="7.25016">
        <ele>1370.98</ele>
        <time>2014-03-02T11:47:33Z</time>
      </trkpt>
      <trkpt lat="44.00122" lon="7.25019">
        <ele>1368.09</ele>
        <time>2014-03-02T11:47:46Z</time>
      </trkpt>
      <trkpt lat="44.0012" lon="7.25022">
        <ele>1364.73</ele>
        <time>2014-03-02T11:48:10Z</time>
      </trkpt>
      <trkpt lat="44.00119" lon="7.25022">
        <ele>1363.29</ele>
        <time>2014-03-02T11:48:37Z</time>
      </trkpt>
      <trkpt lat="44.00119" lon="7.25022">
        <ele>1362.33</ele>
        <time>2014-03-02T11:49:06Z</time>
      </trkpt>
      <trkpt lat="44.00118" lon="7.25023">
        <ele>1362.33</ele>
        <time>2014-03-02T11:49:35Z</time>
      </trkpt>
      <trkpt lat="44.00118" lon="7.25023">
        <ele>1362.81</ele>
        <time>2014-03-02T11:50:02Z</time>
      </trkpt>
      <trkpt lat="44.00113" lon="7.2502">
        <ele>1362.33</ele>
        <time>2014-03-02T11:50:19Z</time>
      </trkpt>
      <trkpt lat="44.00108" lon="7.25016">
        <ele>1362.33</ele>
        <time>2014-03-02T11:50:30Z</time>
      </trkpt>
      <trkpt lat="44.001" lon="7.25014">
        <ele>1359.92</ele>
        <time>2014-03-02T11:50:42Z</time>
      </trkpt>
      <trkpt lat="44.00095" lon="7.25011">
        <ele>1357.52</ele>
        <time>2014-03-02T11:50:53Z</time>
      </trkpt>
      <trkpt lat="44.00089" lon="7.25007">
        <ele>1355.12</ele>
        <time>2014-03-02T11:51:06Z</time>
      </trkpt>
      <trkpt lat="44.00083" lon="7.25004">
        <ele>1354.15</ele>
        <time>2014-03-02T11:51:14Z</time>
      </trkpt>
      <trkpt lat="44.00078" lon="7.24998">
        <ele>1352.23</ele>
        <time>2014-03-02T11:51:26Z</time>
      </trkpt>
      <trkpt lat="44.00073" lon="7.24993">
        <ele>1351.27</ele>
        <time>2014-03-02T11:51:40Z</time>
      </trkpt>
      <trkpt lat="44.00066" lon="7.24989">
        <ele>1350.79</ele>
        <time>2014-03-02T11:51:54Z</time>
      </trkpt>
      <trkpt lat="44.00065" lon="7.2499">
        <ele>1350.31</ele>
        <time>2014-03-02T11:51:55Z</time>
      </trkpt>
      <trkpt lat="44.00058" lon="7.2499">
        <ele>1348.87</ele>
        <time>2014-03-02T11:52:05Z</time>
      </trkpt>
      <trkpt lat="44.00049" lon="7.24987">
        <ele>1345.98</ele>
        <time>2014-03-02T11:52:17Z</time>
      </trkpt>
      <trkpt lat="44.00043" lon="7.24987">
        <ele>1343.58</ele>
        <time>2014-03-02T11:52:27Z</time>
      </trkpt>
      <trkpt lat="44.00032" lon="7.24985">
        <ele>1340.7</ele>
        <time>2014-03-02T11:52:41Z</time>
      </trkpt>
      <trkpt lat="44.00021" lon="7.2498">
        <ele>1336.37</ele>
        <time>2014-03-02T11:52:54Z</time>
      </trkpt>
      <trkpt lat="44.00013" lon="7.24971">
        <ele>1337.81</ele>
        <time>2014-03-02T11:53:05Z</time>
      </trkpt>
      <trkpt lat="44.00005" lon="7.24967">
        <ele>1336.37</ele>
        <time>2014-03-02T11:53:18Z</time>
      </trkpt>
      <trkpt lat="43.99995" lon="7.24964">
        <ele>1336.37</ele>
        <time>2014-03-02T11:53:30Z</time>
      </trkpt>
      <trkpt lat="43.99987" lon="7.24961">
        <ele>1337.33</ele>
        <time>2014-03-02T11:53:42Z</time>
      </trkpt>
      <trkpt lat="43.99983" lon="7.24956">
        <ele>1337.33</ele>
        <time>2014-03-02T11:53:48Z</time>
      </trkpt>
      <trkpt lat="43.99974" lon="7.24951">
        <ele>1336.85</ele>
        <time>2014-03-02T11:53:59Z</time>
      </trkpt>
      <trkpt lat="43.99966" lon="7.24947">
        <ele>1337.81</ele>
        <time>2014-03-02T11:54:09Z</time>
      </trkpt>
      <trkpt lat="43.99959" lon="7.24943">
        <ele>1339.73</ele>
        <time>2014-03-02T11:54:21Z</time>
      </trkpt>
      <trkpt lat="43.99952" lon="7.24941">
        <ele>1340.22</ele>
        <time>2014-03-02T11:54:40Z</time>
      </trkpt>
      <trkpt lat="43.99941" lon="7.24935">
        <ele>1339.25</ele>
        <time>2014-03-02T11:54:52Z</time>
      </trkpt>
      <trkpt lat="43.99932" lon="7.24932">
        <ele>1334.45</ele>
        <time>2014-03-02T11:55:05Z</time>
      </trkpt>
      <trkpt lat="43.99924" lon="7.2493">
        <ele>1332.04</ele>
        <time>2014-03-02T11:55:19Z</time>
      </trkpt>
      <trkpt lat="43.99922" lon="7.2493">
        <ele>1332.04</ele>
        <time>2014-03-02T11:55:35Z</time>
      </trkpt>
      <trkpt lat="43.99914" lon="7.2493">
        <ele>1332.04</ele>
        <time>2014-03-02T11:55:49Z</time>
      </trkpt>
      <trkpt lat="43.99908" lon="7.24933">
        <ele>1330.6</ele>
        <time>2014-03-02T11:56:03Z</time>
      </trkpt>
      <trkpt lat="43.999" lon="7.2494">
        <ele>1329.64</ele>
        <time>2014-03-02T11:56:15Z</time>
      </trkpt>
      <trkpt lat="43.99893" lon="7.24947">
        <ele>1329.64</ele>
        <time>2014-03-02T11:56:26Z</time>
      </trkpt>
      <trkpt lat="43.99889" lon="7.24954">
        <ele>1329.16</ele>
        <time>2014-03-02T11:56:38Z</time>
      </trkpt>
      <trkpt lat="43.99886" lon="7.24959">
        <ele>1328.2</ele>
        <time>2014-03-02T11:56:56Z</time>
      </trkpt>
      <trkpt lat="43.99879" lon="7.24971">
        <ele>1326.28</ele>
        <time>2014-03-02T11:57:08Z</time>
      </trkpt>
      <trkpt lat="43.99876" lon="7.24977">
        <ele>1326.76</ele>
        <time>2014-03-02T11:57:21Z</time>
      </trkpt>
      <trkpt lat="43.99871" lon="7.24984">
        <ele>1325.8</ele>
        <time>2014-03-02T11:57:37Z</time>
      </trkpt>
      <trkpt lat="43.99867" lon="7.25007">
        <ele>1324.35</ele>
        <time>2014-03-02T11:57:52Z</time>
      </trkpt>
      <trkpt lat="43.99865" lon="7.2502">
        <ele>1324.83</ele>
        <time>2014-03-02T11:58:05Z</time>
      </trkpt>
      <trkpt lat="43.99859" lon="7.25036">
        <ele>1325.31</ele>
        <time>2014-03-02T11:58:19Z</time>
      </trkpt>
      <trkpt lat="43.99854" lon="7.25056">
        <ele>1321.95</ele>
        <time>2014-03-02T11:58:33Z</time>
      </trkpt>
      <trkpt lat="43.9985" lon="7.25072">
        <ele>1321.95</ele>
        <time>2014-03-02T11:58:48Z</time>
      </trkpt>
      <trkpt lat="43.99844" lon="7.25088">
        <ele>1321.95</ele>
        <time>2014-03-02T11:59:02Z</time>
      </trkpt>
      <trkpt lat="43.99843" lon="7.25102">
        <ele>1321.95</ele>
        <time>2014-03-02T11:59:14Z</time>
      </trkpt>
      <trkpt lat="43.99841" lon="7.2511">
        <ele>1322.91</ele>
        <time>2014-03-02T11:59:19Z</time>
      </trkpt>
      <trkpt lat="43.99838" lon="7.25123">
        <ele>1324.83</ele>
        <time>2014-03-02T11:59:32Z</time>
      </trkpt>
      <trkpt lat="43.99839" lon="7.2513">
        <ele>1324.83</ele>
        <time>2014-03-02T11:59:47Z</time>
      </trkpt>
      <trkpt lat="43.99839" lon="7.25145">
        <ele>1324.83</ele>
        <time>2014-03-02T12:00:00Z</time>
      </trkpt>
      <trkpt lat="43.9984" lon="7.25155">
        <ele>1325.31</ele>
        <time>2014-03-02T12:00:11Z</time>
      </trkpt>
      <trkpt lat="43.99841" lon="7.25167">
        <ele>1323.39</ele>
        <time>2014-03-02T12:00:26Z</time>
      </trkpt>
      <trkpt lat="43.99841" lon="7.25178">
        <ele>1320.51</ele>
        <time>2014-03-02T12:00:40Z</time>
      </trkpt>
      <trkpt lat="43.99839" lon="7.25183">
        <ele>1319.55</ele>
        <time>2014-03-02T12:00:48Z</time>
      </trkpt>
      <trkpt lat="43.99834" lon="7.25193">
        <ele>1317.14</ele>
        <time>2014-03-02T12:00:59Z</time>
      </trkpt>
      <trkpt lat="43.99823" lon="7.25212">
        <ele>1314.74</ele>
        <time>2014-03-02T12:01:13Z</time>
      </trkpt>
      <trkpt lat="43.99818" lon="7.25224">
        <ele>1312.34</ele>
        <time>2014-03-02T12:01:24Z</time>
      </trkpt>
      <trkpt lat="43.99811" lon="7.25248">
        <ele>1310.41</ele>
        <time>2014-03-02T12:01:42Z</time>
      </trkpt>
      <trkpt lat="43.99805" lon="7.25256">
        <ele>1310.41</ele>
        <time>2014-03-02T12:01:55Z</time>
      </trkpt>
      <trkpt lat="43.99798" lon="7.25262">
        <ele>1309.45</ele>
        <time>2014-03-02T12:02:10Z</time>
      </trkpt>
      <trkpt lat="43.99789" lon="7.25265">
        <ele>1308.97</ele>
        <time>2014-03-02T12:02:26Z</time>
      </trkpt>
      <trkpt lat="43.99779" lon="7.25266">
        <ele>1306.09</ele>
        <time>2014-03-02T12:02:38Z</time>
      </trkpt>
      <trkpt lat="43.9977" lon="7.25267">
        <ele>1301.28</ele>
        <time>2014-03-02T12:02:50Z</time>
      </trkpt>
      <trkpt lat="43.99762" lon="7.25267">
        <ele>1299.84</ele>
        <time>2014-03-02T12:03:04Z</time>
      </trkpt>
      <trkpt lat="43.99753" lon="7.25265">
        <ele>1297.92</ele>
        <time>2014-03-02T12:03:18Z</time>
      </trkpt>
      <trkpt lat="43.9975" lon="7.25266">
        <ele>1297.92</ele>
        <time>2014-03-02T12:03:32Z</time>
      </trkpt>
      <trkpt lat="43.9975" lon="7.25262">
        <ele>1299.36</ele>
        <time>2014-03-02T12:03:44Z</time>
      </trkpt>
      <trkpt lat="43.99753" lon="7.2526">
        <ele>1298.4</ele>
        <time>2014-03-02T12:03:58Z</time>
      </trkpt>
      <trkpt lat="43.99758" lon="7.25254">
        <ele>1296.96</ele>
        <time>2014-03-02T12:04:07Z</time>
      </trkpt>
      <trkpt lat="43.99763" lon="7.25252">
        <ele>1295.51</ele>
        <time>2014-03-02T12:04:19Z</time>
      </trkpt>
      <trkpt lat="43.99758" lon="7.25251">
        <ele>1294.07</ele>
        <time>2014-03-02T12:04:36Z</time>
      </trkpt>
      <trkpt lat="43.99754" lon="7.2525">
        <ele>1292.15</ele>
        <time>2014-03-02T12:04:49Z</time>
      </trkpt>
      <trkpt lat="43.99747" lon="7.25249">
        <ele>1291.19</ele>
        <time>2014-03-02T12:05:02Z</time>
      </trkpt>
      <trkpt lat="43.99738" lon="7.25246">
        <ele>1290.23</ele>
        <time>2014-03-02T12:05:15Z</time>
      </trkpt>
      <trkpt lat="43.9973" lon="7.25245">
        <ele>1288.3</ele>
        <time>2014-03-02T12:05:30Z</time>
      </trkpt>
      <trkpt lat="43.99725" lon="7.25243">
        <ele>1288.3</ele>
        <time>2014-03-02T12:05:43Z</time>
      </trkpt>
      <trkpt lat="43.99723" lon="7.25242">
        <ele>1287.82</ele>
        <time>2014-03-02T12:05:55Z</time>
      </trkpt>
      <trkpt lat="43.99717" lon="7.25238">
        <ele>1285.9</ele>
        <time>2014-03-02T12:06:08Z</time>
      </trkpt>
      <trkpt lat="43.99713" lon="7.25237">
        <ele>1285.42</ele>
        <time>2014-03-02T12:06:21Z</time>
      </trkpt>
      <trkpt lat="43.99707" lon="7.25233">
        <ele>1284.94</ele>
        <time>2014-03-02T12:06:33Z</time>
      </trkpt>
      <trkpt lat="43.99703" lon="7.2523">
        <ele>1282.54</ele>
        <time>2014-03-02T12:06:42Z</time>
      </trkpt>
      <trkpt lat="43.99697" lon="7.25232">
        <ele>1280.61</ele>
        <time>2014-03-02T12:06:53Z</time>
      </trkpt>
      <trkpt lat="43.99692" lon="7.25233">
        <ele>1279.17</ele>
        <time>2014-03-02T12:07:09Z</time>
      </trkpt>
      <trkpt lat="43.99693" lon="7.25233">
        <ele>1278.69</ele>
        <time>2014-03-02T12:07:24Z</time>
      </trkpt>
      <trkpt lat="43.99701" lon="7.25221">
        <ele>1279.65</ele>
        <time>2014-03-02T12:07:39Z</time>
      </trkpt>
      <trkpt lat="43.99708" lon="7.25214">
        <ele>1279.17</ele>
        <time>2014-03-02T12:07:50Z</time>
      </trkpt>
      <trkpt lat="43.99714" lon="7.25209">
        <ele>1276.77</ele>
        <time>2014-03-02T12:08:05Z</time>
      </trkpt>
      <trkpt lat="43.99718" lon="7.25206">
        <ele>1273.88</ele>
        <time>2014-03-02T12:08:16Z</time>
      </trkpt>
      <trkpt lat="43.99721" lon="7.25203">
        <ele>1272.92</ele>
        <time>2014-03-02T12:08:22Z</time>
      </trkpt>
      <trkpt lat="43.99732" lon="7.25188">
        <ele>1272.44</ele>
        <time>2014-03-02T12:08:36Z</time>
      </trkpt>
      <trkpt lat="43.99728" lon="7.25193">
        <ele>1271.48</ele>
        <time>2014-03-02T12:08:46Z</time>
      </trkpt>
      <trkpt lat="43.99717" lon="7.25193">
        <ele>1268.6</ele>
        <time>2014-03-02T12:08:58Z</time>
      </trkpt>
      <trkpt lat="43.99706" lon="7.25195">
        <ele>1264.27</ele>
        <time>2014-03-02T12:09:11Z</time>
      </trkpt>
      <trkpt lat="43.99701" lon="7.25193">
        <ele>1262.35</ele>
        <time>2014-03-02T12:09:16Z</time>
      </trkpt>
      <trkpt lat="43.99692" lon="7.25193">
        <ele>1259.46</ele>
        <time>2014-03-02T12:09:30Z</time>
      </trkpt>
      <trkpt lat="43.99689" lon="7.25193">
        <ele>1259.46</ele>
        <time>2014-03-02T12:09:46Z</time>
      </trkpt>
      <trkpt lat="43.99684" lon="7.25192">
        <ele>1258.5</ele>
        <time>2014-03-02T12:09:57Z</time>
      </trkpt>
      <trkpt lat="43.99676" lon="7.25196">
        <ele>1256.58</ele>
        <time>2014-03-02T12:10:08Z</time>
      </trkpt>
      <trkpt lat="43.99668" lon="7.25197">
        <ele>1254.66</ele>
        <time>2014-03-02T12:10:15Z</time>
      </trkpt>
      <trkpt lat="43.99656" lon="7.25195">
        <ele>1252.74</ele>
        <time>2014-03-02T12:10:26Z</time>
      </trkpt>
      <trkpt lat="43.99651" lon="7.25195">
        <ele>1250.81</ele>
        <time>2014-03-02T12:10:32Z</time>
      </trkpt>
      <trkpt lat="43.99644" lon="7.25199">
        <ele>1249.85</ele>
        <time>2014-03-02T12:10:45Z</time>
      </trkpt>
      <trkpt lat="43.99642" lon="7.25198">
        <ele>1249.85</ele>
        <time>2014-03-02T12:11:01Z</time>
      </trkpt>
      <trkpt lat="43.99641" lon="7.25201">
        <ele>1248.41</ele>
        <time>2014-03-02T12:11:08Z</time>
      </trkpt>
      <trkpt lat="43.99643" lon="7.25204">
        <ele>1246.49</ele>
        <time>2014-03-02T12:11:22Z</time>
      </trkpt>
      <trkpt lat="43.99644" lon="7.25205">
        <ele>1245.53</ele>
        <time>2014-03-02T12:11:39Z</time>
      </trkpt>
      <trkpt lat="43.99642" lon="7.25206">
        <ele>1245.53</ele>
        <time>2014-03-02T12:11:49Z</time>
      </trkpt>
      <trkpt lat="43.99644" lon="7.25206">
        <ele>1245.53</ele>
        <time>2014-03-02T12:11:51Z</time>
      </trkpt>
      <trkpt lat="43.99644" lon="7.25206">
        <ele>1244.08</ele>
        <time>2014-03-02T12:12:06Z</time>
      </trkpt>
      <trkpt lat="43.99642" lon="7.25207">
        <ele>1243.12</ele>
        <time>2014-03-02T12:12:29Z</time>
      </trkpt>
      <trkpt lat="43.99642" lon="7.25207">
        <ele>1243.12</ele>
        <time>2014-03-02T12:12:46Z</time>
      </trkpt>
      <trkpt lat="43.99642" lon="7.25207">
        <ele>1243.12</ele>
        <time>2014-03-02T12:13:16Z</time>
      </trkpt>
      <trkpt lat="43.99642" lon="7.25208">
        <ele>1243.6</ele>
        <time>2014-03-02T12:13:39Z</time>
      </trkpt>
      <trkpt lat="43.99642" lon="7.25208">
        <ele>1244.08</ele>
        <time>2014-03-02T12:13:59Z</time>
      </trkpt>
      <trkpt lat="43.99642" lon="7.25209">
        <ele>1243.6</ele>
        <time>2014-03-02T12:14:18Z</time>
      </trkpt>
      <trkpt lat="43.99641" lon="7.2521">
        <ele>1243.6</ele>
        <time>2014-03-02T12:14:40Z</time>
      </trkpt>
      <trkpt lat="43.99641" lon="7.2521">
        <ele>1243.6</ele>
        <time>2014-03-02T12:15:00Z</time>
      </trkpt>
      <trkpt lat="43.99641" lon="7.25211">
        <ele>1244.08</ele>
        <time>2014-03-02T12:15:23Z</time>
      </trkpt>
      <trkpt lat="43.99641" lon="7.25211">
        <ele>1244.56</ele>
        <time>2014-03-02T12:15:47Z</time>
      </trkpt>
      <trkpt lat="43.99641" lon="7.25211">
        <ele>1244.08</ele>
        <time>2014-03-02T12:16:10Z</time>
      </trkpt>
      <trkpt lat="43.9964" lon="7.25211">
        <ele>1244.08</ele>
        <time>2014-03-02T12:16:30Z</time>
      </trkpt>
      <trkpt lat="43.9964" lon="7.25211">
        <ele>1244.56</ele>
        <time>2014-03-02T12:16:50Z</time>
      </trkpt>
      <trkpt lat="43.9964" lon="7.25212">
        <ele>1244.56</ele>
        <time>2014-03-02T12:17:11Z</time>
      </trkpt>
      <trkpt lat="43.9964" lon="7.25211">
        <ele>1244.56</ele>
        <time>2014-03-02T12:17:32Z</time>
      </trkpt>
      <trkpt lat="43.9964" lon="7.25211">
        <ele>1245.04</ele>
        <time>2014-03-02T12:17:49Z</time>
      </trkpt>
      <trkpt lat="43.9964" lon="7.2521">
        <ele>1245.04</ele>
        <time>2014-03-02T12:18:11Z</time>
      </trkpt>
      <trkpt lat="43.9964" lon="7.2521">
        <ele>1245.04</ele>
        <time>2014-03-02T12:18:36Z</time>
      </trkpt>
      <trkpt lat="43.9964" lon="7.25211">
        <ele>1245.53</ele>
        <time>2014-03-02T12:18:59Z</time>
      </trkpt>
      <trkpt lat="43.9964" lon="7.2521">
        <ele>1245.53</ele>
        <time>2014-03-02T12:19:21Z</time>
      </trkpt>
      <trkpt lat="43.9964" lon="7.2521">
        <ele>1245.53</ele>
        <time>2014-03-02T12:19:50Z</time>
      </trkpt>
      <trkpt lat="43.9964" lon="7.2521">
        <ele>1245.53</ele>
        <time>2014-03-02T12:20:13Z</time>
      </trkpt>
      <trkpt lat="43.9964" lon="7.25211">
        <ele>1245.53</ele>
        <time>2014-03-02T12:20:36Z</time>
      </trkpt>
      <trkpt lat="43.99641" lon="7.25211">
        <ele>1246.01</ele>
        <time>2014-03-02T12:21:02Z</time>
      </trkpt>
      <trkpt lat="43.99641" lon="7.2521">
        <ele>1246.01</ele>
        <time>2014-03-02T12:21:28Z</time>
      </trkpt>
      <trkpt lat="43.99641" lon="7.2521">
        <ele>1246.01</ele>
        <time>2014-03-02T12:21:49Z</time>
      </trkpt>
      <trkpt lat="43.99641" lon="7.2521">
        <ele>1245.53</ele>
        <time>2014-03-02T12:22:12Z</time>
      </trkpt>
      <trkpt lat="43.99641" lon="7.2521">
        <ele>1245.53</ele>
        <time>2014-03-02T12:22:39Z</time>
      </trkpt>
      <trkpt lat="43.99641" lon="7.25209">
        <ele>1245.53</ele>
        <time>2014-03-02T12:23:04Z</time>
      </trkpt>
      <trkpt lat="43.99642" lon="7.25208">
        <ele>1245.53</ele>
        <time>2014-03-02T12:23:33Z</time>
      </trkpt>
      <trkpt lat="43.99642" lon="7.25208">
        <ele>1246.01</ele>
        <time>2014-03-02T12:24:02Z</time>
      </trkpt>
      <trkpt lat="43.99642" lon="7.25207">
        <ele>1246.01</ele>
        <time>2014-03-02T12:24:35Z</time>
      </trkpt>
      <trkpt lat="43.99642" lon="7.25208">
        <ele>1246.01</ele>
        <time>2014-03-02T12:25:10Z</time>
      </trkpt>
      <trkpt lat="43.99643" lon="7.25207">
        <ele>1246.49</ele>
        <time>2014-03-02T12:25:44Z</time>
      </trkpt>
      <trkpt lat="43.99643" lon="7.25206">
        <ele>1246.97</ele>
        <time>2014-03-02T12:26:19Z</time>
      </trkpt>
      <trkpt lat="43.99643" lon="7.25205">
        <ele>1246.49</ele>
        <time>2014-03-02T12:26:53Z</time>
      </trkpt>
      <trkpt lat="43.99644" lon="7.25205">
        <ele>1246.49</ele>
        <time>2014-03-02T12:27:30Z</time>
      </trkpt>
      <trkpt lat="43.99644" lon="7.25205">
        <ele>1246.01</ele>
        <time>2014-03-02T12:28:03Z</time>
      </trkpt>
      <trkpt lat="43.99645" lon="7.25204">
        <ele>1245.53</ele>
        <time>2014-03-02T12:28:35Z</time>
      </trkpt>
      <trkpt lat="43.99645" lon="7.25204">
        <ele>1245.04</ele>
        <time>2014-03-02T12:29:11Z</time>
      </trkpt>
      <trkpt lat="43.99645" lon="7.25204">
        <ele>1244.56</ele>
        <time>2014-03-02T12:29:44Z</time>
      </trkpt>
      <trkpt lat="43.99645" lon="7.25204">
        <ele>1244.08</ele>
        <time>2014-03-02T12:30:18Z</time>
      </trkpt>
      <trkpt lat="43.99645" lon="7.25204">
        <ele>1244.56</ele>
        <time>2014-03-02T12:30:51Z</time>
      </trkpt>
      <trkpt lat="43.99645" lon="7.25204">
        <ele>1244.56</ele>
        <time>2014-03-02T12:31:27Z</time>
      </trkpt>
      <trkpt lat="43.99645" lon="7.25204">
        <ele>1244.56</ele>
        <time>2014-03-02T12:32:04Z</time>
      </trkpt>
      <trkpt lat="43.99646" lon="7.25204">
        <ele>1244.08</ele>
        <time>2014-03-02T12:32:41Z</time>
      </trkpt>
      <trkpt lat="43.99646" lon="7.25204">
        <ele>1243.6</ele>
        <time>2014-03-02T12:33:19Z</time>
      </trkpt>
      <trkpt lat="43.99646" lon="7.25205">
        <ele>1243.12</ele>
        <time>2014-03-02T12:33:55Z</time>
      </trkpt>
      <trkpt lat="43.99646" lon="7.25205">
        <ele>1242.64</ele>
        <time>2014-03-02T12:34:34Z</time>
      </trkpt>
      <trkpt lat="43.99646" lon="7.25205">
        <ele>1242.64</ele>
        <time>2014-03-02T12:35:05Z</time>
      </trkpt>
      <trkpt lat="43.99646" lon="7.25205">
        <ele>1242.16</ele>
        <time>2014-03-02T12:35:40Z</time>
      </trkpt>
      <trkpt lat="43.99645" lon="7.25205">
        <ele>1241.68</ele>
        <time>2014-03-02T12:36:02Z</time>
      </trkpt>
      <trkpt lat="43.99647" lon="7.25204">
        <ele>1241.68</ele>
        <time>2014-03-02T12:36:16Z</time>
      </trkpt>
      <trkpt lat="43.99646" lon="7.25204">
        <ele>1241.68</ele>
        <time>2014-03-02T12:36:31Z</time>
      </trkpt>
      <trkpt lat="43.99646" lon="7.25203">
        <ele>1241.2</ele>
        <time>2014-03-02T12:36:55Z</time>
      </trkpt>
      <trkpt lat="43.99646" lon="7.25203">
        <ele>1241.2</ele>
        <time>2014-03-02T12:37:15Z</time>
      </trkpt>
      <trkpt lat="43.99643" lon="7.25204">
        <ele>1240.72</ele>
        <time>2014-03-02T12:37:29Z</time>
      </trkpt>
      <trkpt lat="43.99642" lon="7.25203">
        <ele>1239.76</ele>
        <time>2014-03-02T12:37:41Z</time>
      </trkpt>
      <trkpt lat="43.99639" lon="7.25204">
        <ele>1239.28</ele>
        <time>2014-03-02T12:37:53Z</time>
      </trkpt>
      <trkpt lat="43.99637" lon="7.25204">
        <ele>1237.83</ele>
        <time>2014-03-02T12:38:03Z</time>
      </trkpt>
      <trkpt lat="43.99631" lon="7.25202">
        <ele>1234.47</ele>
        <time>2014-03-02T12:38:12Z</time>
      </trkpt>
      <trkpt lat="43.99618" lon="7.25195">
        <ele>1230.62</ele>
        <time>2014-03-02T12:38:23Z</time>
      </trkpt>
      <trkpt lat="43.99609" lon="7.25191">
        <ele>1228.7</ele>
        <time>2014-03-02T12:38:37Z</time>
      </trkpt>
      <trkpt lat="43.99605" lon="7.2519">
        <ele>1227.74</ele>
        <time>2014-03-02T12:38:47Z</time>
      </trkpt>
      <trkpt lat="43.99599" lon="7.25187">
        <ele>1227.26</ele>
        <time>2014-03-02T12:38:59Z</time>
      </trkpt>
      <trkpt lat="43.99592" lon="7.25183">
        <ele>1225.34</ele>
        <time>2014-03-02T12:39:13Z</time>
      </trkpt>
      <trkpt lat="43.99584" lon="7.25181">
        <ele>1223.9</ele>
        <time>2014-03-02T12:39:25Z</time>
      </trkpt>
      <trkpt lat="43.99579" lon="7.25181">
        <ele>1223.42</ele>
        <time>2014-03-02T12:39:37Z</time>
      </trkpt>
      <trkpt lat="43.99583" lon="7.25188">
        <ele>1222.45</ele>
        <time>2014-03-02T12:39:50Z</time>
      </trkpt>
      <trkpt lat="43.99587" lon="7.25194">
        <ele>1221.49</ele>
        <time>2014-03-02T12:40:02Z</time>
      </trkpt>
      <trkpt lat="43.99586" lon="7.25197">
        <ele>1220.53</ele>
        <time>2014-03-02T12:40:04Z</time>
      </trkpt>
      <trkpt lat="43.99583" lon="7.25196">
        <ele>1220.05</ele>
        <time>2014-03-02T12:40:07Z</time>
      </trkpt>
      <trkpt lat="43.99572" lon="7.25191">
        <ele>1217.17</ele>
        <time>2014-03-02T12:40:20Z</time>
      </trkpt>
      <trkpt lat="43.99566" lon="7.2519">
        <ele>1212.84</ele>
        <time>2014-03-02T12:40:34Z</time>
      </trkpt>
      <trkpt lat="43.99568" lon="7.25195">
        <ele>1210.44</ele>
        <time>2014-03-02T12:40:48Z</time>
      </trkpt>
      <trkpt lat="43.9957" lon="7.25197">
        <ele>1209.96</ele>
        <time>2014-03-02T12:40:52Z</time>
      </trkpt>
      <trkpt lat="43.99563" lon="7.25197">
        <ele>1207.07</ele>
        <time>2014-03-02T12:41:06Z</time>
      </trkpt>
      <trkpt lat="43.99561" lon="7.25204">
        <ele>1206.11</ele>
        <time>2014-03-02T12:41:17Z</time>
      </trkpt>
      <trkpt lat="43.99568" lon="7.25209">
        <ele>1204.67</ele>
        <time>2014-03-02T12:41:30Z</time>
      </trkpt>
      <trkpt lat="43.99568" lon="7.25209">
        <ele>1204.19</ele>
        <time>2014-03-02T12:41:31Z</time>
      </trkpt>
      <trkpt lat="43.99575" lon="7.25216">
        <ele>1203.23</ele>
        <time>2014-03-02T12:41:42Z</time>
      </trkpt>
      <trkpt lat="43.99578" lon="7.2522">
        <ele>1202.27</ele>
        <time>2014-03-02T12:41:52Z</time>
      </trkpt>
      <trkpt lat="43.99582" lon="7.25224">
        <ele>1202.27</ele>
        <time>2014-03-02T12:41:59Z</time>
      </trkpt>
      <trkpt lat="43.99583" lon="7.25227">
        <ele>1201.79</ele>
        <time>2014-03-02T12:42:01Z</time>
      </trkpt>
      <trkpt lat="43.99586" lon="7.25233">
        <ele>1200.34</ele>
        <time>2014-03-02T12:42:08Z</time>
      </trkpt>
      <trkpt lat="43.99595" lon="7.2525">
        <ele>1199.86</ele>
        <time>2014-03-02T12:42:23Z</time>
      </trkpt>
      <trkpt lat="43.99601" lon="7.25264">
        <ele>1198.42</ele>
        <time>2014-03-02T12:42:38Z</time>
      </trkpt>
      <trkpt lat="43.99602" lon="7.25264">
        <ele>1197.94</ele>
        <time>2014-03-02T12:42:39Z</time>
      </trkpt>
      <trkpt lat="43.9961" lon="7.25271">
        <ele>1196.02</ele>
        <time>2014-03-02T12:42:52Z</time>
      </trkpt>
      <trkpt lat="43.99616" lon="7.25273">
        <ele>1194.58</ele>
        <time>2014-03-02T12:43:04Z</time>
      </trkpt>
      <trkpt lat="43.99625" lon="7.25282">
        <ele>1192.65</ele>
        <time>2014-03-02T12:43:18Z</time>
      </trkpt>
      <trkpt lat="43.99627" lon="7.25284">
        <ele>1191.69</ele>
        <time>2014-03-02T12:43:20Z</time>
      </trkpt>
      <trkpt lat="43.99631" lon="7.25287">
        <ele>1190.73</ele>
        <time>2014-03-02T12:43:24Z</time>
      </trkpt>
      <trkpt lat="43.99638" lon="7.25296">
        <ele>1189.77</ele>
        <time>2014-03-02T12:43:37Z</time>
      </trkpt>
      <trkpt lat="43.9964" lon="7.25306">
        <ele>1188.81</ele>
        <time>2014-03-02T12:43:51Z</time>
      </trkpt>
      <trkpt lat="43.99645" lon="7.25317">
        <ele>1184.96</ele>
        <time>2014-03-02T12:44:07Z</time>
      </trkpt>
      <trkpt lat="43.99647" lon="7.25328">
        <ele>1182.56</ele>
        <time>2014-03-02T12:44:22Z</time>
      </trkpt>
      <trkpt lat="43.99648" lon="7.25331">
        <ele>1181.6</ele>
        <time>2014-03-02T12:44:30Z</time>
      </trkpt>
      <trkpt lat="43.99649" lon="7.25338">
        <ele>1181.6</ele>
        <time>2014-03-02T12:44:43Z</time>
      </trkpt>
      <trkpt lat="43.99648" lon="7.25342">
        <ele>1180.16</ele>
        <time>2014-03-02T12:44:57Z</time>
      </trkpt>
      <trkpt lat="43.99648" lon="7.25346">
        <ele>1179.19</ele>
        <time>2014-03-02T12:45:11Z</time>
      </trkpt>
      <trkpt lat="43.99649" lon="7.25371">
        <ele>1178.23</ele>
        <time>2014-03-02T12:45:23Z</time>
      </trkpt>
      <trkpt lat="43.99648" lon="7.25382">
        <ele>1175.83</ele>
        <time>2014-03-02T12:45:38Z</time>
      </trkpt>
      <trkpt lat="43.99645" lon="7.25387">
        <ele>1173.91</ele>
        <time>2014-03-02T12:45:50Z</time>
      </trkpt>
      <trkpt lat="43.99645" lon="7.25393">
        <ele>1170.54</ele>
        <time>2014-03-02T12:46:02Z</time>
      </trkpt>
      <trkpt lat="43.99644" lon="7.25401">
        <ele>1168.14</ele>
        <time>2014-03-02T12:46:15Z</time>
      </trkpt>
      <trkpt lat="43.99642" lon="7.25412">
        <ele>1165.26</ele>
        <time>2014-03-02T12:46:30Z</time>
      </trkpt>
      <trkpt lat="43.99636" lon="7.2541">
        <ele>1164.77</ele>
        <time>2014-03-02T12:46:47Z</time>
      </trkpt>
      <trkpt lat="43.9963" lon="7.25407">
        <ele>1163.81</ele>
        <time>2014-03-02T12:47:01Z</time>
      </trkpt>
      <trkpt lat="43.99625" lon="7.25402">
        <ele>1163.81</ele>
        <time>2014-03-02T12:47:15Z</time>
      </trkpt>
      <trkpt lat="43.99613" lon="7.25399">
        <ele>1164.29</ele>
        <time>2014-03-02T12:47:30Z</time>
      </trkpt>
      <trkpt lat="43.99602" lon="7.25397">
        <ele>1164.29</ele>
        <time>2014-03-02T12:47:44Z</time>
      </trkpt>
      <trkpt lat="43.99587" lon="7.25394">
        <ele>1164.29</ele>
        <time>2014-03-02T12:47:57Z</time>
      </trkpt>
      <trkpt lat="43.99574" lon="7.25406">
        <ele>1160.45</ele>
        <time>2014-03-02T12:48:10Z</time>
      </trkpt>
      <trkpt lat="43.99561" lon="7.25419">
        <ele>1151.32</ele>
        <time>2014-03-02T12:48:24Z</time>
      </trkpt>
      <trkpt lat="43.99548" lon="7.25431">
        <ele>1148.91</ele>
        <time>2014-03-02T12:48:38Z</time>
      </trkpt>
      <trkpt lat="43.99536" lon="7.25441">
        <ele>1148.43</ele>
        <time>2014-03-02T12:48:51Z</time>
      </trkpt>
      <trkpt lat="43.99522" lon="7.25447">
        <ele>1147.47</ele>
        <time>2014-03-02T12:49:07Z</time>
      </trkpt>
      <trkpt lat="43.99514" lon="7.2545">
        <ele>1146.51</ele>
        <time>2014-03-02T12:49:13Z</time>
      </trkpt>
      <trkpt lat="43.99506" lon="7.25463">
        <ele>1146.03</ele>
        <time>2014-03-02T12:49:26Z</time>
      </trkpt>
      <trkpt lat="43.99499" lon="7.25472">
        <ele>1145.55</ele>
        <time>2014-03-02T12:49:35Z</time>
      </trkpt>
      <trkpt lat="43.99491" lon="7.25485">
        <ele>1146.03</ele>
        <time>2014-03-02T12:49:47Z</time>
      </trkpt>
      <trkpt lat="43.99488" lon="7.25491">
        <ele>1146.03</ele>
        <time>2014-03-02T12:49:59Z</time>
      </trkpt>
      <trkpt lat="43.99488" lon="7.25488">
        <ele>1146.03</ele>
        <time>2014-03-02T12:50:02Z</time>
      </trkpt>
      <trkpt lat="43.99485" lon="7.25479">
        <ele>1146.51</ele>
        <time>2014-03-02T12:50:13Z</time>
      </trkpt>
      <trkpt lat="43.99485" lon="7.2548">
        <ele>1146.03</ele>
        <time>2014-03-02T12:50:15Z</time>
      </trkpt>
      <trkpt lat="43.99478" lon="7.25486">
        <ele>1145.55</ele>
        <time>2014-03-02T12:50:27Z</time>
      </trkpt>
      <trkpt lat="43.99474" lon="7.25494">
        <ele>1143.14</ele>
        <time>2014-03-02T12:50:37Z</time>
      </trkpt>
      <trkpt lat="43.99469" lon="7.25503">
        <ele>1142.18</ele>
        <time>2014-03-02T12:50:50Z</time>
      </trkpt>
      <trkpt lat="43.99468" lon="7.25504">
        <ele>1142.18</ele>
        <time>2014-03-02T12:50:52Z</time>
      </trkpt>
      <trkpt lat="43.99467" lon="7.25508">
        <ele>1141.7</ele>
        <time>2014-03-02T12:50:56Z</time>
      </trkpt>
      <trkpt lat="43.99463" lon="7.255">
        <ele>1139.3</ele>
        <time>2014-03-02T12:51:09Z</time>
      </trkpt>
      <trkpt lat="43.99462" lon="7.25494">
        <ele>1138.34</ele>
        <time>2014-03-02T12:51:15Z</time>
      </trkpt>
      <trkpt lat="43.99462" lon="7.25487">
        <ele>1137.86</ele>
        <time>2014-03-02T12:51:24Z</time>
      </trkpt>
      <trkpt lat="43.99456" lon="7.25494">
        <ele>1135.45</ele>
        <time>2014-03-02T12:51:38Z</time>
      </trkpt>
      <trkpt lat="43.99452" lon="7.25498">
        <ele>1134.49</ele>
        <time>2014-03-02T12:51:46Z</time>
      </trkpt>
      <trkpt lat="43.99452" lon="7.25501">
        <ele>1133.53</ele>
        <time>2014-03-02T12:51:48Z</time>
      </trkpt>
      <trkpt lat="43.99448" lon="7.25514">
        <ele>1130.65</ele>
        <time>2014-03-02T12:52:01Z</time>
      </trkpt>
      <trkpt lat="43.99445" lon="7.25511">
        <ele>1127.76</ele>
        <time>2014-03-02T12:52:13Z</time>
      </trkpt>
      <trkpt lat="43.99444" lon="7.25504">
        <ele>1126.8</ele>
        <time>2014-03-02T12:52:21Z</time>
      </trkpt>
      <trkpt lat="43.99444" lon="7.25488">
        <ele>1123.44</ele>
        <time>2014-03-02T12:52:34Z</time>
      </trkpt>
      <trkpt lat="43.99441" lon="7.25487">
        <ele>1122</ele>
        <time>2014-03-02T12:52:46Z</time>
      </trkpt>
      <trkpt lat="43.99439" lon="7.2549">
        <ele>1120.55</ele>
        <time>2014-03-02T12:52:57Z</time>
      </trkpt>
      <trkpt lat="43.99434" lon="7.25499">
        <ele>1117.19</ele>
        <time>2014-03-02T12:53:09Z</time>
      </trkpt>
      <trkpt lat="43.9943" lon="7.25508">
        <ele>1114.79</ele>
        <time>2014-03-02T12:53:21Z</time>
      </trkpt>
      <trkpt lat="43.99428" lon="7.25511">
        <ele>1113.82</ele>
        <time>2014-03-02T12:53:25Z</time>
      </trkpt>
      <trkpt lat="43.99426" lon="7.255">
        <ele>1110.46</ele>
        <time>2014-03-02T12:53:36Z</time>
      </trkpt>
      <trkpt lat="43.99422" lon="7.25505">
        <ele>1106.13</ele>
        <time>2014-03-02T12:53:49Z</time>
      </trkpt>
      <trkpt lat="43.99421" lon="7.25506">
        <ele>1106.13</ele>
        <time>2014-03-02T12:53:50Z</time>
      </trkpt>
      <trkpt lat="43.9942" lon="7.25521">
        <ele>1103.73</ele>
        <time>2014-03-02T12:54:02Z</time>
      </trkpt>
      <trkpt lat="43.99417" lon="7.25535">
        <ele>1100.85</ele>
        <time>2014-03-02T12:54:16Z</time>
      </trkpt>
      <trkpt lat="43.99417" lon="7.25549">
        <ele>1099.4</ele>
        <time>2014-03-02T12:54:30Z</time>
      </trkpt>
      <trkpt lat="43.99417" lon="7.2556">
        <ele>1100.37</ele>
        <time>2014-03-02T12:54:44Z</time>
      </trkpt>
      <trkpt lat="43.99416" lon="7.2557">
        <ele>1099.4</ele>
        <time>2014-03-02T12:54:59Z</time>
      </trkpt>
      <trkpt lat="43.99417" lon="7.25577">
        <ele>1097.96</ele>
        <time>2014-03-02T12:55:07Z</time>
      </trkpt>
      <trkpt lat="43.99416" lon="7.25588">
        <ele>1097</ele>
        <time>2014-03-02T12:55:18Z</time>
      </trkpt>
      <trkpt lat="43.99415" lon="7.25589">
        <ele>1097.48</ele>
        <time>2014-03-02T12:55:19Z</time>
      </trkpt>
      <trkpt lat="43.99407" lon="7.25588">
        <ele>1097.48</ele>
        <time>2014-03-02T12:55:29Z</time>
      </trkpt>
      <trkpt lat="43.99406" lon="7.25588">
        <ele>1097</ele>
        <time>2014-03-02T12:55:30Z</time>
      </trkpt>
      <trkpt lat="43.99395" lon="7.25581">
        <ele>1095.08</ele>
        <time>2014-03-02T12:55:43Z</time>
      </trkpt>
      <trkpt lat="43.99387" lon="7.25572">
        <ele>1093.16</ele>
        <time>2014-03-02T12:55:57Z</time>
      </trkpt>
      <trkpt lat="43.99379" lon="7.25568">
        <ele>1089.79</ele>
        <time>2014-03-02T12:56:11Z</time>
      </trkpt>
      <trkpt lat="43.99369" lon="7.25566">
        <ele>1086.91</ele>
        <time>2014-03-02T12:56:26Z</time>
      </trkpt>
      <trkpt lat="43.9936" lon="7.25563">
        <ele>1083.06</ele>
        <time>2014-03-02T12:56:38Z</time>
      </trkpt>
      <trkpt lat="43.99365" lon="7.25551">
        <ele>1081.62</ele>
        <time>2014-03-02T12:56:49Z</time>
      </trkpt>
      <trkpt lat="43.9937" lon="7.25546">
        <ele>1080.18</ele>
        <time>2014-03-02T12:56:56Z</time>
      </trkpt>
      <trkpt lat="43.99364" lon="7.25545">
        <ele>1080.66</ele>
        <time>2014-03-02T12:57:03Z</time>
      </trkpt>
      <trkpt lat="43.99353" lon="7.25545">
        <ele>1080.18</ele>
        <time>2014-03-02T12:57:16Z</time>
      </trkpt>
      <trkpt lat="43.99347" lon="7.25546">
        <ele>1077.78</ele>
        <time>2014-03-02T12:57:27Z</time>
      </trkpt>
      <trkpt lat="43.99341" lon="7.25552">
        <ele>1075.85</ele>
        <time>2014-03-02T12:57:38Z</time>
      </trkpt>
      <trkpt lat="43.99331" lon="7.25562">
        <ele>1073.93</ele>
        <time>2014-03-02T12:57:52Z</time>
      </trkpt>
      <trkpt lat="43.99325" lon="7.25575">
        <ele>1070.57</ele>
        <time>2014-03-02T12:58:06Z</time>
      </trkpt>
      <trkpt lat="43.99323" lon="7.25586">
        <ele>1067.68</ele>
        <time>2014-03-02T12:58:19Z</time>
      </trkpt>
      <trkpt lat="43.99322" lon="7.25592">
        <ele>1066.72</ele>
        <time>2014-03-02T12:58:23Z</time>
      </trkpt>
      <trkpt lat="43.99319" lon="7.25599">
        <ele>1065.76</ele>
        <time>2014-03-02T12:58:35Z</time>
      </trkpt>
      <trkpt lat="43.9931" lon="7.25598">
        <ele>1063.84</ele>
        <time>2014-03-02T12:58:50Z</time>
      </trkpt>
      <trkpt lat="43.99301" lon="7.25596">
        <ele>1060.47</ele>
        <time>2014-03-02T12:59:06Z</time>
      </trkpt>
      <trkpt lat="43.99295" lon="7.25596">
        <ele>1059.03</ele>
        <time>2014-03-02T12:59:11Z</time>
      </trkpt>
      <trkpt lat="43.9929" lon="7.25597">
        <ele>1058.55</ele>
        <time>2014-03-02T12:59:24Z</time>
      </trkpt>
      <trkpt lat="43.9929" lon="7.25595">
        <ele>1057.11</ele>
        <time>2014-03-02T12:59:40Z</time>
      </trkpt>
      <trkpt lat="43.99289" lon="7.25596">
        <ele>1057.11</ele>
        <time>2014-03-02T12:59:52Z</time>
      </trkpt>
      <trkpt lat="43.99284" lon="7.25603">
        <ele>1056.15</ele>
        <time>2014-03-02T12:59:59Z</time>
      </trkpt>
      <trkpt lat="43.99279" lon="7.25612">
        <ele>1057.11</ele>
        <time>2014-03-02T13:00:10Z</time>
      </trkpt>
      <trkpt lat="43.99271" lon="7.25618">
        <ele>1056.63</ele>
        <time>2014-03-02T13:00:17Z</time>
      </trkpt>
      <trkpt lat="43.99262" lon="7.25624">
        <ele>1055.18</ele>
        <time>2014-03-02T13:00:25Z</time>
      </trkpt>
      <trkpt lat="43.99251" lon="7.25632">
        <ele>1050.38</ele>
        <time>2014-03-02T13:00:39Z</time>
      </trkpt>
      <trkpt lat="43.99243" lon="7.25639">
        <ele>1049.9</ele>
        <time>2014-03-02T13:00:52Z</time>
      </trkpt>
      <trkpt lat="43.99237" lon="7.25639">
        <ele>1050.86</ele>
        <time>2014-03-02T13:01:07Z</time>
      </trkpt>
      <trkpt lat="43.99234" lon="7.25641">
        <ele>1051.82</ele>
        <time>2014-03-02T13:01:15Z</time>
      </trkpt>
      <trkpt lat="43.9922" lon="7.25646">
        <ele>1051.34</ele>
        <time>2014-03-02T13:01:28Z</time>
      </trkpt>
      <trkpt lat="43.9921" lon="7.25655">
        <ele>1050.86</ele>
        <time>2014-03-02T13:01:41Z</time>
      </trkpt>
      <trkpt lat="43.99198" lon="7.25661">
        <ele>1048.94</ele>
        <time>2014-03-02T13:01:53Z</time>
      </trkpt>
      <trkpt lat="43.99185" lon="7.25673">
        <ele>1046.53</ele>
        <time>2014-03-02T13:02:07Z</time>
      </trkpt>
      <trkpt lat="43.99173" lon="7.25677">
        <ele>1043.65</ele>
        <time>2014-03-02T13:02:19Z</time>
      </trkpt>
      <trkpt lat="43.99157" lon="7.25681">
        <ele>1042.21</ele>
        <time>2014-03-02T13:02:33Z</time>
      </trkpt>
      <trkpt lat="43.99144" lon="7.25682">
        <ele>1043.17</ele>
        <time>2014-03-02T13:02:45Z</time>
      </trkpt>
      <trkpt lat="43.9913" lon="7.25681">
        <ele>1046.05</ele>
        <time>2014-03-02T13:02:57Z</time>
      </trkpt>
      <trkpt lat="43.99118" lon="7.25677">
        <ele>1050.86</ele>
        <time>2014-03-02T13:03:09Z</time>
      </trkpt>
      <trkpt lat="43.99112" lon="7.25675">
        <ele>1052.3</ele>
        <time>2014-03-02T13:03:16Z</time>
      </trkpt>
      <trkpt lat="43.99109" lon="7.25673">
        <ele>1052.78</ele>
        <time>2014-03-02T13:03:19Z</time>
      </trkpt>
      <trkpt lat="43.99097" lon="7.25666">
        <ele>1054.7</ele>
        <time>2014-03-02T13:03:31Z</time>
      </trkpt>
      <trkpt lat="43.9909" lon="7.25664">
        <ele>1053.74</ele>
        <time>2014-03-02T13:03:36Z</time>
      </trkpt>
      <trkpt lat="43.99074" lon="7.25666">
        <ele>1047.97</ele>
        <time>2014-03-02T13:03:49Z</time>
      </trkpt>
      <trkpt lat="43.99064" lon="7.25669">
        <ele>1043.65</ele>
        <time>2014-03-02T13:03:59Z</time>
      </trkpt>
      <trkpt lat="43.99056" lon="7.25673">
        <ele>1039.8</ele>
        <time>2014-03-02T13:04:07Z</time>
      </trkpt>
      <trkpt lat="43.99052" lon="7.25676">
        <ele>1039.32</ele>
        <time>2014-03-02T13:04:11Z</time>
      </trkpt>
      <trkpt lat="43.99049" lon="7.2568">
        <ele>1038.36</ele>
        <time>2014-03-02T13:04:15Z</time>
      </trkpt>
      <trkpt lat="43.99045" lon="7.25687">
        <ele>1036.92</ele>
        <time>2014-03-02T13:04:29Z</time>
      </trkpt>
      <trkpt lat="43.99044" lon="7.25697">
        <ele>1037.88</ele>
        <time>2014-03-02T13:04:46Z</time>
      </trkpt>
      <trkpt lat="43.99043" lon="7.25713">
        <ele>1038.36</ele>
        <time>2014-03-02T13:04:57Z</time>
      </trkpt>
      <trkpt lat="43.99042" lon="7.25716">
        <ele>1038.36</ele>
        <time>2014-03-02T13:04:59Z</time>
      </trkpt>
      <trkpt lat="43.99041" lon="7.25721">
        <ele>1038.36</ele>
        <time>2014-03-02T13:05:03Z</time>
      </trkpt>
      <trkpt lat="43.9904" lon="7.25731">
        <ele>1037.4</ele>
        <time>2014-03-02T13:05:10Z</time>
      </trkpt>
      <trkpt lat="43.99042" lon="7.25737">
        <ele>1037.4</ele>
        <time>2014-03-02T13:05:15Z</time>
      </trkpt>
      <trkpt lat="43.9904" lon="7.25756">
        <ele>1034.04</ele>
        <time>2014-03-02T13:05:28Z</time>
      </trkpt>
      <trkpt lat="43.9904" lon="7.25761">
        <ele>1033.07</ele>
        <time>2014-03-02T13:05:31Z</time>
      </trkpt>
      <trkpt lat="43.9904" lon="7.25765">
        <ele>1032.11</ele>
        <time>2014-03-02T13:05:34Z</time>
      </trkpt>
      <trkpt lat="43.99038" lon="7.25772">
        <ele>1031.63</ele>
        <time>2014-03-02T13:05:39Z</time>
      </trkpt>
      <trkpt lat="43.9904" lon="7.2579">
        <ele>1030.67</ele>
        <time>2014-03-02T13:05:52Z</time>
      </trkpt>
      <trkpt lat="43.99039" lon="7.25793">
        <ele>1030.67</ele>
        <time>2014-03-02T13:05:54Z</time>
      </trkpt>
      <trkpt lat="43.99042" lon="7.25807">
        <ele>1028.75</ele>
        <time>2014-03-02T13:06:03Z</time>
      </trkpt>
      <trkpt lat="43.99046" lon="7.25819">
        <ele>1025.86</ele>
        <time>2014-03-02T13:06:12Z</time>
      </trkpt>
      <trkpt lat="43.99042" lon="7.25845">
        <ele>1025.38</ele>
        <time>2014-03-02T13:06:29Z</time>
      </trkpt>
      <trkpt lat="43.99036" lon="7.25862">
        <ele>1022.02</ele>
        <time>2014-03-02T13:06:41Z</time>
      </trkpt>
      <trkpt lat="43.99036" lon="7.25872">
        <ele>1021.54</ele>
        <time>2014-03-02T13:06:47Z</time>
      </trkpt>
      <trkpt lat="43.9904" lon="7.25896">
        <ele>1019.13</ele>
        <time>2014-03-02T13:07:03Z</time>
      </trkpt>
      <trkpt lat="43.99043" lon="7.25915">
        <ele>1016.25</ele>
        <time>2014-03-02T13:07:16Z</time>
      </trkpt>
      <trkpt lat="43.9904" lon="7.25931">
        <ele>1014.33</ele>
        <time>2014-03-02T13:07:28Z</time>
      </trkpt>
      <trkpt lat="43.99039" lon="7.25934">
        <ele>1013.85</ele>
        <time>2014-03-02T13:07:30Z</time>
      </trkpt>
      <trkpt lat="43.99038" lon="7.25936">
        <ele>1013.85</ele>
        <time>2014-03-02T13:07:32Z</time>
      </trkpt>
      <trkpt lat="43.99035" lon="7.25946">
        <ele>1012.89</ele>
        <time>2014-03-02T13:07:41Z</time>
      </trkpt>
      <trkpt lat="43.9903" lon="7.25969">
        <ele>1012.41</ele>
        <time>2014-03-02T13:07:56Z</time>
      </trkpt>
      <trkpt lat="43.99027" lon="7.25984">
        <ele>1010</ele>
        <time>2014-03-02T13:08:06Z</time>
      </trkpt>
      <trkpt lat="43.99025" lon="7.25992">
        <ele>1008.56</ele>
        <time>2014-03-02T13:08:11Z</time>
      </trkpt>
      <trkpt lat="43.99026" lon="7.25999">
        <ele>1007.6</ele>
        <time>2014-03-02T13:08:15Z</time>
      </trkpt>
      <trkpt lat="43.99027" lon="7.26011">
        <ele>1007.12</ele>
        <time>2014-03-02T13:08:23Z</time>
      </trkpt>
      <trkpt lat="43.99031" lon="7.26024">
        <ele>1007.6</ele>
        <time>2014-03-02T13:08:32Z</time>
      </trkpt>
      <trkpt lat="43.99034" lon="7.26029">
        <ele>1008.08</ele>
        <time>2014-03-02T13:08:37Z</time>
      </trkpt>
      <trkpt lat="43.99035" lon="7.26039">
        <ele>1010.48</ele>
        <time>2014-03-02T13:08:44Z</time>
      </trkpt>
      <trkpt lat="43.99037" lon="7.26041">
        <ele>1011.44</ele>
        <time>2014-03-02T13:08:46Z</time>
      </trkpt>
      <trkpt lat="43.99037" lon="7.26049">
        <ele>1012.41</ele>
        <time>2014-03-02T13:08:51Z</time>
      </trkpt>
      <trkpt lat="43.99037" lon="7.26052">
        <ele>1012.41</ele>
        <time>2014-03-02T13:08:53Z</time>
      </trkpt>
      <trkpt lat="43.99041" lon="7.26062">
        <ele>1011.93</ele>
        <time>2014-03-02T13:09:00Z</time>
      </trkpt>
      <trkpt lat="43.99041" lon="7.26072">
        <ele>1011.93</ele>
        <time>2014-03-02T13:09:06Z</time>
      </trkpt>
      <trkpt lat="43.99042" lon="7.26089">
        <ele>1010.48</ele>
        <time>2014-03-02T13:09:18Z</time>
      </trkpt>
      <trkpt lat="43.99032" lon="7.26094">
        <ele>1009.04</ele>
        <time>2014-03-02T13:09:30Z</time>
      </trkpt>
      <trkpt lat="43.99022" lon="7.2609">
        <ele>1007.6</ele>
        <time>2014-03-02T13:09:39Z</time>
      </trkpt>
      <trkpt lat="43.99008" lon="7.26086">
        <ele>1005.2</ele>
        <time>2014-03-02T13:09:52Z</time>
      </trkpt>
      <trkpt lat="43.98994" lon="7.26094">
        <ele>1007.6</ele>
        <time>2014-03-02T13:10:06Z</time>
      </trkpt>
      <trkpt lat="43.98991" lon="7.261">
        <ele>1008.08</ele>
        <time>2014-03-02T13:10:19Z</time>
      </trkpt>
      <trkpt lat="43.98986" lon="7.26099">
        <ele>1008.08</ele>
        <time>2014-03-02T13:10:22Z</time>
      </trkpt>
      <trkpt lat="43.98969" lon="7.26086">
        <ele>1006.16</ele>
        <time>2014-03-02T13:10:37Z</time>
      </trkpt>
      <trkpt lat="43.98963" lon="7.26085">
        <ele>1005.2</ele>
        <time>2014-03-02T13:10:41Z</time>
      </trkpt>
      <trkpt lat="43.98953" lon="7.26086">
        <ele>1005.2</ele>
        <time>2014-03-02T13:10:50Z</time>
      </trkpt>
      <trkpt lat="43.98949" lon="7.26087">
        <ele>1004.72</ele>
        <time>2014-03-02T13:10:53Z</time>
      </trkpt>
      <trkpt lat="43.98933" lon="7.26094">
        <ele>1003.75</ele>
        <time>2014-03-02T13:11:07Z</time>
      </trkpt>
      <trkpt lat="43.98931" lon="7.26096">
        <ele>1002.79</ele>
        <time>2014-03-02T13:11:10Z</time>
      </trkpt>
      <trkpt lat="43.98919" lon="7.26103">
        <ele>996.54</ele>
        <time>2014-03-02T13:11:25Z</time>
      </trkpt>
      <trkpt lat="43.9891" lon="7.261">
        <ele>994.14</ele>
        <time>2014-03-02T13:11:34Z</time>
      </trkpt>
      <trkpt lat="43.98907" lon="7.26099">
        <ele>993.18</ele>
        <time>2014-03-02T13:11:36Z</time>
      </trkpt>
      <trkpt lat="43.98888" lon="7.26099">
        <ele>993.66</ele>
        <time>2014-03-02T13:11:51Z</time>
      </trkpt>
      <trkpt lat="43.98884" lon="7.26098">
        <ele>994.62</ele>
        <time>2014-03-02T13:11:54Z</time>
      </trkpt>
      <trkpt lat="43.98878" lon="7.26096">
        <ele>995.1</ele>
        <time>2014-03-02T13:11:59Z</time>
      </trkpt>
      <trkpt lat="43.98863" lon="7.26087">
        <ele>996.54</ele>
        <time>2014-03-02T13:12:13Z</time>
      </trkpt>
      <trkpt lat="43.98848" lon="7.26079">
        <ele>993.18</ele>
        <time>2014-03-02T13:12:28Z</time>
      </trkpt>
      <trkpt lat="43.98837" lon="7.26077">
        <ele>992.7</ele>
        <time>2014-03-02T13:12:38Z</time>
      </trkpt>
      <trkpt lat="43.98832" lon="7.26077">
        <ele>991.74</ele>
        <time>2014-03-02T13:12:42Z</time>
      </trkpt>
      <trkpt lat="43.98824" lon="7.26067">
        <ele>988.37</ele>
        <time>2014-03-02T13:12:54Z</time>
      </trkpt>
      <trkpt lat="43.98824" lon="7.26065">
        <ele>987.89</ele>
        <time>2014-03-02T13:12:56Z</time>
      </trkpt>
      <trkpt lat="43.98822" lon="7.26054">
        <ele>986.45</ele>
        <time>2014-03-02T13:13:04Z</time>
      </trkpt>
      <trkpt lat="43.98815" lon="7.26048">
        <ele>986.45</ele>
        <time>2014-03-02T13:13:12Z</time>
      </trkpt>
      <trkpt lat="43.98814" lon="7.26046">
        <ele>986.93</ele>
        <time>2014-03-02T13:13:15Z</time>
      </trkpt>
      <trkpt lat="43.98809" lon="7.26039">
        <ele>988.37</ele>
        <time>2014-03-02T13:13:24Z</time>
      </trkpt>
      <trkpt lat="43.98795" lon="7.26029">
        <ele>988.85</ele>
        <time>2014-03-02T13:13:38Z</time>
      </trkpt>
      <trkpt lat="43.98795" lon="7.26022">
        <ele>988.85</ele>
        <time>2014-03-02T13:13:55Z</time>
      </trkpt>
      <trkpt lat="43.98795" lon="7.26021">
        <ele>988.37</ele>
        <time>2014-03-02T13:14:18Z</time>
      </trkpt>
      <trkpt lat="43.98792" lon="7.2602">
        <ele>987.41</ele>
        <time>2014-03-02T13:14:40Z</time>
      </trkpt>
      <trkpt lat="43.98779" lon="7.26017">
        <ele>985.01</ele>
        <time>2014-03-02T13:14:55Z</time>
      </trkpt>
      <trkpt lat="43.98765" lon="7.26007">
        <ele>982.6</ele>
        <time>2014-03-02T13:15:09Z</time>
      </trkpt>
      <trkpt lat="43.98764" lon="7.26007">
        <ele>982.12</ele>
        <time>2014-03-02T13:15:10Z</time>
      </trkpt>
      <trkpt lat="43.98754" lon="7.25997">
        <ele>979.72</ele>
        <time>2014-03-02T13:15:23Z</time>
      </trkpt>
    </trkseg>
  </trk>
</gpx>